[[[{"header":{"parameterUnit":"kt","parameterCategory":2,"dx":1,"dy":1,"la1":29.285339999999998,"la2":30.599998999999997,"lo1":-89.70041500000002,"lo2":-87.6738589999976,"nx":112,"ny":82,"refTime":"2022-10-30T12:00:00:Z","depth":0,"parameterNumber":1,"parameterNumberName":"U-component_of_WINDS"},"data":[-5.5222,-5.5502,-5.5211,-5.4311,-5.3514,-5.2607,-5.1484,-4.8663,-4.6347,-4.6653,-4.5974,-4.4627,-4.2491,-4.2096,-4.1352,-3.9512,-3.7735,-3.6257,0.0,-3.4071,0.0,0.0,0.0,0.0,0.0,0.0,0.0,0.0,0.0,0.0,0.0,-4.6097,-4.8538,-4.9265,-5.155,-5.2641,-5.2459,-5.2459,-5.3005,-5.4147,-5.3368,-5.3763,-5.4909,-5.5706,-5.5836,-5.5316,-5.5887,-5.581,-5.5264,-5.5039,-5.4857,-5.4857,-5.4857,-5.4857,-5.4857,-5.4857,-5.4857,-5.4857,-5.4857,-5.4953,-5.5212,-5.4165,-5.3302,-5.2365,-5.1499,-5.0647,-4.9742,-4.8361,-4.8295,-4.842,-4.7007,-4.6756,-4.6882,-4.6882,-4.6882,-4.6882,-4.6882,-4.6882,-4.6882,-4.6882,-4.6882,-4.6882,-4.6882,-4.6882,-4.6882,-4.6882,-4.6882,-4.6882,-4.6882,-4.5592,-4.3784,-4.1235,-3.9779,-3.742,-3.3441,-2.9373,-2.5929,-2.328,-2.2794,-2.2551,-2.2403,-2.2308,-2.2439,-2.2784,-2.4338,-2.52,-2.5544,-2.7107,-2.7795,-2.7795,-2.7795,-2.7795,-5.2392,-5.2977,-5.2839,-5.1833,-5.0946,-5.0056,-4.8691,-4.5703,-4.3028,-4.251,-4.1979,-4.0991,-3.9069,-3.8821,-3.8449,-3.7187,-3.5871,-3.4967,0.0,0.0,0.0,0.0,0.0,0.0,0.0,0.0,0.0,0.0,-4.3526,0.0,-4.4487,-4.7551,-4.9681,-5.0434,-5.155,-5.2226,-5.2433,-5.2433,-5.2901,-5.3836,-5.3472,-5.3784,-5.4909,-5.5913,-5.6147,-5.5628,-5.6199,-5.6121,-5.555,-5.4953,-5.4857,-5.4857,-5.4857,-5.4857,-5.4857,-5.4857,-5.4857,-5.4857,-5.4857,-5.5108,-5.555,-5.5134,-5.4435,-5.3614,-5.3227,-5.1991,-5.0622,-4.9444,-4.8929,-4.8463,-4.7218,-4.6882,-4.6882,-4.6882,-4.6882,-4.6882,-4.6882,-4.6882,-4.6882,-4.6882,-4.6882,-4.6882,-4.6882,-4.6882,-4.6882,-4.6882,-4.6882,-4.6882,-4.6882,-4.6882,-4.5791,-4.3227,-4.3048,-4.1415,-3.742,-3.3501,-2.8697,-2.3223,-2.2636,-2.2424,-2.2276,-2.2439,-2.2439,-2.2784,-2.4338,-2.52,-2.5557,-2.7107,-2.7795,-2.7795,-2.7795,-2.7795,-5.0823,-5.0506,-4.9499,-4.7779,-4.6752,-4.5622,-4.3464,-4.2882,-4.2055,-3.958,-3.8962,-3.8315,-3.591,-3.5578,-3.5578,-3.5325,-3.4699,0.0,0.0,0.0,0.0,0.0,0.0,0.0,0.0,-4.3526,-4.5448,0.0,-4.8356,-5.0226,-4.8045,-5.059,-5.2122,-5.2174,-5.2148,-5.2407,-5.3005,-5.3005,-5.329,-5.3836,-5.3836,-5.4147,-5.4909,-5.5887,-5.6121,-5.5654,-5.6199,-5.6121,-5.5576,-5.4953,-5.4857,-5.4857,-5.4857,-5.4857,-5.4857,-5.4857,-5.4857,-5.4857,-5.4857,-5.5108,-5.5602,-5.5628,-5.5628,-5.5524,-5.4927,-5.2996,-5.0917,-5.0769,-4.9081,-4.7018,-4.7039,-4.6861,-4.6882,-4.6882,-4.6882,-4.6882,-4.6882,-4.6882,-4.6882,-4.6882,-4.6882,-4.6882,-4.6882,-4.6882,-4.6882,-4.6882,-4.6882,-4.6882,-4.6882,-4.6882,-4.6882,-4.6882,-4.6882,-4.5234,-4.1576,-3.7459,-3.1451,-2.3349,-2.2567,-2.2439,-2.2439,-2.2439,-2.2784,-2.3648,-2.4683,-2.5544,-2.6418,-2.7279,-2.7795,-2.7795,-2.7795,-2.7795,-4.7948,-4.8261,-4.7844,-4.6885,-4.574,-4.4803,-4.4137,-4.1168,-3.851,-3.8138,-3.7891,0.0,0.0,0.0,-3.5545,-3.4249,0.0,-3.4197,-3.4064,-3.4195,0.0,0.0,0.0,0.0,0.0,-4.4305,-4.4798,-4.6019,-4.7785,-4.8746,-4.8538,-5.0434,-5.1914,-5.2745,-5.2356,-5.2407,-5.3005,-5.3005,-5.329,-5.3836,-5.3836,-5.4147,-5.4909,-5.5498,-5.5991,-5.6199,-5.5939,-5.5991,-5.6147,-5.5134,-5.4857,-5.4857,-5.4857,-5.4857,-5.4857,-5.4857,-5.4857,-5.4857,-5.4857,-5.5108,-5.568,-5.6095,-5.6225,-5.6121,-5.5524,-5.4909,-5.4041,-5.3061,-5.2616,-5.1845,-4.9595,-4.8996,-4.8641,-4.7218,-4.6882,-4.7218,-4.8641,-4.793,-4.7218,-4.8641,-4.7752,-4.6882,-4.6882,-4.8108,-4.8463,-4.7039,-4.6882,-4.6882,-4.6882,-4.6882,-4.6882,-4.6882,-4.6882,-4.6359,-4.4946,-3.873,-3.3755,-3.0991,-2.5493,-2.2439,-2.2439,-2.2957,-2.3475,-2.3648,-2.52,-2.6246,-2.6418,-2.7279,-2.7795,-2.7795,-2.7795,-2.7795,-4.459,-4.4514,-4.3937,-4.2943,-4.191,-4.1203,-4.1299,-3.914,-3.7063,-3.6777,0.0,0.0,0.0,0.0,0.0,0.0,-3.3865,-3.4722,-3.5215,-3.5994,-3.7579,-4.0461,0.0,0.0,-4.4591,-4.5577,-4.6668,-4.8019,-4.9759,-5.0382,-4.9499,-5.0849,-5.207,-5.2979,-5.2433,-5.2407,-5.3005,-5.3239,-5.3394,-5.3498,-5.3966,-5.4381,-5.4909,-5.5576,-5.6147,-5.6433,-5.6095,-5.6147,-5.6355,-5.5186,-5.4857,-5.4857,-5.4857,-5.4857,-5.4909,-5.4979,-5.5082,-5.5082,-5.5082,-5.5628,-5.6329,-5.6433,-5.6459,-5.6355,-5.5784,-5.5102,-5.4343,-5.386,-5.355,-5.2875,-5.1316,-5.0393,-4.9507,-4.8285,-4.8108,-4.8463,-4.9507,-4.9507,-4.9507,-5.0746,-5.0038,-4.9152,-4.9152,-5.0215,-5.0215,-4.8285,-4.8108,-4.7752,-4.6861,-4.6882,-4.6882,-4.6882,-4.6694,-4.6463,-4.6367,-3.9083,-3.4322,-3.391,-2.6531,-2.2439,-2.2439,-2.3302,-2.4165,-2.4855,-2.5901,-2.659,-2.6935,-2.7623,-2.7795,-2.7795,-2.7795,-2.7795,-4.1175,-4.0083,-3.9198,-3.7889,-3.6939,-3.6453,-3.6942,0.0,-3.6765,-3.5561,0.0,-3.5325,-3.3981,0.0,0.0,-3.3242,-3.4462,-3.5731,-3.6929,-3.8384,-3.9656,-4.0409,-4.2227,-4.3422,-4.3422,-4.711,-4.9525,-4.9577,-5.2459,-5.3294,-5.0693,-5.1499,-5.233,-5.2979,-5.2563,-5.2589,-5.3083,-5.3654,-5.3654,-5.3109,-5.4362,-5.4857,-5.4909,-5.5784,-5.6329,-5.6433,-5.6303,-5.6329,-5.6355,-5.5186,-5.4857,-5.4857,-5.4857,-5.4857,-5.4935,-5.5394,-5.5602,-5.5602,-5.568,-5.6407,-5.7238,-5.6719,-5.6589,-5.6537,-5.5965,-5.451,-5.3144,-5.386,-5.3183,-5.2306,-5.27,-5.163,-5.0393,-5.0038,-5.0038,-5.0215,-5.0393,-5.1431,-5.2489,-5.2841,-5.2665,-5.2489,-5.2841,-5.2841,-5.2137,-5.0393,-4.9861,-4.9174,-4.7396,-4.706,-4.6882,-4.6882,-4.6443,-4.6304,-4.6262,-3.8636,-3.3878,-3.3831,-2.6506,-2.2439,-2.2439,-2.3302,-2.451,-2.6418,-2.659,-2.6935,-2.7795,-2.7795,-2.7795,-2.7795,-2.7795,-2.7795,-3.8878,-3.7793,-3.7081,-3.6811,-3.5877,-3.5032,0.0,0.0,0.0,-3.516,-3.6586,-3.7372,-3.579,-3.6311,-3.704,-3.7267,-3.7605,-3.8072,-3.8631,-4.2227,-4.5448,-4.7395,-4.7603,-4.7603,-4.7603,-4.8408,-4.9109,-4.9551,-5.0642,-5.1239,-5.1135,-5.1343,-5.194,-5.2953,-5.3342,-5.3576,-5.368,-5.4251,-5.4251,-5.368,-5.4544,-5.4857,-5.4883,-5.5091,-5.555,-5.6381,-5.5446,-5.5576,-5.6355,-5.5186,-5.4857,-5.4857,-5.4857,-5.4857,-5.4935,-5.5394,-5.5602,-5.568,-5.6121,-5.6744,-5.729,-5.7186,-5.7446,-5.7731,-5.716,-5.616,-5.5205,-5.5771,-5.5663,-5.5287,-5.4903,-5.4648,-5.3945,-5.2313,-5.196,-5.2313,-5.3945,-5.3393,-5.3017,-5.4448,-5.3569,-5.3017,-5.4624,-5.4824,-5.4097,-5.2313,-5.0746,-4.9684,-4.9351,-4.7752,-4.6882,-4.6882,-4.6443,-4.6003,-4.5647,-3.8301,-3.3767,-3.3295,-2.6393,-2.2439,-2.2439,-2.3302,-2.451,-2.6418,-2.7107,-2.7623,-2.7795,-2.7795,-2.7795,-2.7795,-2.7795,-2.7795,-3.6302,-3.5335,-3.4916,-3.4232,-3.3645,0.0,0.0,-3.4071,-3.454,-3.5576,-3.7059,-3.815,-3.8436,-3.9189,-3.9983,-4.015,-4.0669,-4.1552,-4.3006,-4.5681,-4.7473,-4.7473,-4.7967,-4.833,-4.833,-4.859,-4.8876,-4.9161,-4.9966,-5.0412,-5.0239,-5.1241,-5.194,-5.2318,-5.339,-5.3836,-5.3836,-5.4407,-5.4407,-5.3836,-5.4433,-5.4857,-5.4883,-5.503,-5.5472,-5.5991,-5.542,-5.5498,-5.5965,-5.5056,-5.4857,-5.4857,-5.4857,-5.4901,-5.5238,-5.581,-5.6225,-5.6511,-5.677,-5.7264,-5.7679,-5.7394,-5.7679,-5.8043,-5.7472,-5.6719,-5.6017,-5.6017,-5.6225,-5.6301,-5.629,-5.585,-5.5174,-5.4097,-5.3921,-5.4272,-5.5174,-5.5325,-5.5676,-5.6576,-5.6026,-5.5676,-5.6576,-5.6751,-5.6051,-5.4272,-5.3217,-5.216,-5.1277,-4.9507,-4.8199,-4.7962,-4.6634,-4.5626,-4.5187,-3.7963,-3.3374,-3.32,-2.6883,-2.2957,-2.2957,-2.4338,-2.5544,-2.6418,-2.7279,-2.7795,-2.7795,-2.7795,-2.7795,-2.7795,-2.7795,-2.7795,-3.3792,-3.3216,-3.3071,-3.1973,-3.1909,0.0,-3.2615,-3.3204,-3.4112,-3.5575,-3.6769,-3.7963,-3.948,-4.0376,-4.103,-4.1798,-4.2662,-4.401,-4.621,-4.7886,-4.8071,-4.6227,-4.7213,-4.8045,-4.8045,-4.8486,-4.8798,-4.8902,-4.9655,-4.9899,-4.9197,-5.0932,-5.1756,-5.1529,-5.2888,-5.3732,-5.3836,-5.4199,-5.4414,-5.4018,-5.4355,-5.4753,-5.4883,-5.5212,-5.5498,-5.5602,-5.5472,-5.5498,-5.555,-5.4953,-5.4857,-5.4883,-5.5013,-5.5186,-5.568,-5.6355,-5.69,-5.7316,-5.7446,-5.7783,-5.8069,-5.7627,-5.7783,-5.8043,-5.7472,-5.69,-5.6329,-5.5758,-5.6017,-5.6589,-5.716,-5.6692,-5.5876,-5.5876,-5.5876,-5.5876,-5.5876,-5.71,-5.8147,-5.8147,-5.8147,-5.8147,-5.8147,-5.8147,-5.7624,-5.6226,-5.57,-5.4824,-5.3193,-5.1362,-4.9924,-4.9018,-4.7056,-4.553,-4.4831,-3.8359,-3.4035,-3.3525,-2.8428,-2.5016,-2.451,-2.6061,-2.6922,-2.6922,-2.7451,-2.7795,-2.7795,-2.7795,-2.7795,-2.7795,-2.7795,-2.7795,-3.1603,-3.1817,-3.243,-3.1821,-3.2799,0.0,-3.0839,-3.2654,-3.4463,-3.3362,-3.4934,-3.6227,-3.5631,-3.5968,-3.7373,-4.088,-4.1836,-4.2755,-4.4229,-4.7035,-4.8668,-4.8408,-4.8538,-4.8668,-4.8668,-4.872,-4.8953,-4.9473,-4.9161,-4.9073,-4.9172,-5.0572,-5.1345,-5.0946,-5.248,-5.3342,-5.3836,-5.342,-5.368,-5.4779,-5.4147,-5.4199,-5.4857,-5.4935,-5.5108,-5.5576,-5.503,-5.5108,-5.555,-5.4953,-5.4857,-5.4935,-5.529,-5.555,-5.5732,-5.6822,-5.7264,-5.7394,-5.7887,-5.8095,-5.8147,-5.8095,-5.8095,-5.8043,-5.7472,-5.69,-5.6329,-5.5758,-5.6017,-5.6589,-5.716,-5.7558,-5.7798,-5.7798,-5.7798,-5.7798,-5.7798,-5.7973,-5.8147,-5.8147,-5.8147,-5.8147,-5.8147,-5.8147,-5.7973,-5.7798,-5.6401,-5.535,-5.5174,-5.2988,-5.0938,-4.9148,-4.7958,-4.6534,-4.481,-4.0587,-3.7108,-3.4562,-3.2348,-2.9799,-2.7425,-2.8283,-2.8798,-2.8798,-2.8138,-2.7795,-2.7795,-2.7795,-2.7795,-2.7795,-2.7795,-2.7795,-3.0526,-3.1355,-3.2194,-3.0949,0.0,0.0,-2.8977,-3.0175,-3.1757,-3.143,-3.3814,-3.596,-3.6049,-3.7116,-3.8552,-3.9945,-4.0484,-4.2164,-4.6327,-4.7989,-4.8642,-4.8278,-4.8252,-4.8252,-4.8252,-4.8252,-4.8356,-4.859,-4.7947,-4.8161,-4.929,-5.0496,-5.111,-5.087,-5.1744,-5.2785,-5.3836,-5.329,-5.3576,-5.4857,-5.4122,-5.4329,-5.5238,-5.5238,-5.5368,-5.5602,-5.5342,-5.5186,-5.5056,-5.4961,-5.4901,-5.5264,-5.5524,-5.6017,-5.6667,-5.7134,-5.7524,-5.7835,-5.8069,-5.8147,-5.8147,-5.8147,-5.7939,-5.7627,-5.7394,-5.6667,-5.5913,-5.568,-5.5524,-5.5654,-5.6563,-5.7238,-5.7757,-5.8069,-5.8147,-5.8147,-5.8147,-5.8147,-5.7973,-5.7449,-5.7798,-5.8147,-5.8147,-5.8147,-5.8147,-5.8147,-5.7449,-5.6824,-5.6493,-5.4658,-5.2688,-5.1406,-4.8921,-4.7037,-4.6099,-4.2943,-3.9606,-3.643,-3.5378,-3.3509,-3.0327,-3.1026,-3.1539,-3.1539,-3.0184,-2.9341,-2.9341,-2.9341,-2.8826,-2.7795,-2.7795,-2.7795,-2.9957,0.0,0.0,0.0,0.0,0.0,-2.7144,-2.7849,-2.9165,-2.952,-3.1797,-3.3942,-3.5045,-3.6219,-3.7275,-3.8034,-3.8815,-4.1311,-4.6496,-4.793,-4.8356,-4.7941,-4.7889,-4.7889,-4.7889,-4.7889,-4.7967,-4.8122,-4.769,-4.8058,-4.9759,-5.0214,-5.049,-5.0642,-5.1362,-5.2138,-5.3368,-5.2823,-5.3187,-5.4622,-5.3888,-5.4225,-5.5368,-5.5524,-5.5524,-5.5368,-5.555,-5.5368,-5.4953,-5.4953,-5.5316,-5.5862,-5.6017,-5.6589,-5.7342,-5.7498,-5.7809,-5.8147,-5.8147,-5.8147,-5.8147,-5.8147,-5.7887,-5.7498,-5.716,-5.6315,-5.5423,-5.5114,-5.4726,-5.4623,-5.5604,-5.6471,-5.7212,-5.7783,-5.774,-5.7592,-5.7772,-5.7624,-5.71,-5.655,-5.6925,-5.7449,-5.7624,-5.7624,-5.7572,-5.7765,-5.774,-5.7359,-5.7134,-5.5705,-5.4253,-5.2952,-5.0385,-4.8474,-4.7632,-4.5665,-4.2801,-3.8631,-3.8763,-3.7242,-3.3247,-3.3589,-3.3946,-3.3946,-3.2238,-3.1041,-3.0527,-3.0527,-2.9841,-2.8482,-2.7967,-2.7795,0.0,0.0,0.0,-2.9816,-2.9204,-2.7816,-2.5298,-2.6366,-2.7778,-2.7396,-2.8028,-2.9207,-3.0818,-3.036,-3.1018,-3.4484,-3.7083,-3.9724,-4.293,-4.5993,-4.7915,-4.7889,-4.7889,-4.7889,-4.7889,-4.7889,-4.8122,-4.8694,-4.872,-4.9213,-5.0382,-4.9703,-4.9527,-5.0213,-5.0881,-5.1628,-5.2174,-5.1628,-5.22,-5.3862,-5.329,-5.3789,-5.4909,-5.5342,-5.529,-5.4935,-5.5342,-5.5602,-5.5576,-5.5576,-5.5913,-5.6485,-5.703,-5.729,-5.7368,-5.7939,-5.8147,-5.8147,-5.8147,-5.8147,-5.8147,-5.8147,-5.8147,-5.7913,-5.6822,-5.5756,-5.4993,-5.3925,-5.343,-5.3557,-5.4115,-5.5371,-5.6615,-5.7186,-5.6628,-5.6066,-5.6598,-5.6051,-5.5525,-5.535,-5.5525,-5.57,-5.6725,-5.6051,-5.5875,-5.7248,-5.6628,-5.608,-5.6367,-5.5824,-5.496,-5.3045,-5.2408,-5.1261,-4.9392,-4.9226,-4.6853,-4.1646,-4.2882,-4.1557,-3.5989,-3.5819,-3.5819,-3.5819,-3.4116,-3.2238,-3.0527,-3.0527,-3.0527,-3.0356,-2.8654,-2.7795,-2.8483,-2.9081,-2.9387,-2.8418,-2.6997,-2.56,-2.448,-2.5219,-2.6164,-2.5794,-2.8001,-2.9974,-2.9533,-2.9845,-3.1702,-3.7,-3.8257,-4.0374,-4.603,-4.7401,-4.7889,-4.7889,-4.7889,-4.7889,-4.7889,-4.8226,-4.8538,-4.8746,-4.8307,-4.8796,-5.0382,-4.9495,-4.9247,-5.0188,-5.0983,-5.1758,-5.2693,-5.2148,-5.2511,-5.3836,-5.3265,-5.3763,-5.4883,-5.5342,-5.5498,-5.5316,-5.5524,-5.5602,-5.5602,-5.5602,-5.6173,-5.703,-5.7238,-5.755,-5.7887,-5.8095,-5.8147,-5.8147,-5.8147,-5.8147,-5.7921,-5.7013,-5.68,-5.6533,-5.4579,-5.4099,-5.3886,-5.2846,-5.2911,-5.3456,-5.3658,-5.4281,-5.5009,-5.506,-5.5464,-5.5767,-5.545,-5.4361,-5.3426,-5.3426,-5.3918,-5.4434,-5.4753,-5.4581,-5.4703,-5.5748,-5.5697,-5.5493,-5.5798,-5.5732,-5.528,-5.4205,-5.3011,-5.1897,-5.1237,-5.1707,-4.9368,-4.2674,-4.5018,-4.368,-3.7161,-3.7518,-3.7705,-3.7705,-3.5989,-3.4798,-3.4116,-3.4116,-3.3434,-3.2238,-3.1725,-3.1383,-2.9012,-2.9195,-2.9049,-2.9105,-2.6691,-2.4238,-2.4401,-2.4929,-2.5627,-2.6312,-2.8684,-3.052,-2.9852,-3.0985,-3.3613,-3.8612,-3.9875,-4.215,-4.7656,-4.8122,-4.7889,-4.7889,-4.7889,-4.7889,-4.7889,-4.8408,-4.8824,-4.9031,-4.8796,-4.9311,-5.0693,-5.0106,-4.9931,-5.0496,-5.1137,-5.15,-5.2067,-5.1238,-5.1676,-5.3239,-5.2739,-5.3152,-5.4433,-5.5238,-5.5498,-5.529,-5.529,-5.5524,-5.5913,-5.5913,-5.6589,-5.7601,-5.7601,-5.7835,-5.8147,-5.8147,-5.8147,-5.8147,-5.8147,-5.7973,-5.7521,-5.6437,-5.5832,-5.5425,-5.3437,-5.2822,-5.269,-5.2301,-5.2581,-5.3076,-5.343,-5.3684,-5.3872,-5.3723,-5.4223,-5.4574,-5.3037,-5.2331,-5.1965,-5.1604,-5.221,-5.2794,-5.3108,-5.2891,-5.3061,-5.4041,-5.3973,-5.4066,-5.4371,-5.4627,-5.4638,-5.4442,-5.3569,-5.305,-5.305,-5.3544,-5.1542,-4.6042,-4.6853,-4.5018,-3.9513,-3.8874,-3.8723,-3.8723,-3.7536,-3.7009,-3.7009,-3.6329,-3.5309,-3.4116,-3.3605,-3.3263,-3.0998,-2.9606,-2.8103,-3.1556,-2.7934,-2.3754,-2.5283,-2.56,-2.6357,-2.8797,-2.9896,-3.0603,-3.1497,-3.3688,-3.6327,-3.9453,-4.179,-4.4259,-4.7535,-4.7797,-4.7915,-4.7889,-4.7889,-4.7889,-4.7889,-4.8434,-4.9031,-4.9551,-5.0148,-5.0745,-5.1265,-5.1291,-5.1291,-5.1291,-5.1291,-5.1009,-5.0264,-4.9337,-4.9923,-5.1991,-5.1719,-5.244,-5.3836,-5.5005,-5.5212,-5.4857,-5.4857,-5.5368,-5.6459,-5.6459,-5.7134,-5.8147,-5.8147,-5.8147,-5.8147,-5.8147,-5.8147,-5.8147,-5.8147,-5.7449,-5.6624,-5.6041,-5.5347,-5.4287,-5.3006,-5.2183,-5.1775,-5.1904,-5.2062,-5.2252,-5.3076,-5.343,-5.343,-5.343,-5.3147,-5.2036,-4.9912,-5.0213,-5.0706,-5.0213,-5.0495,-5.0999,-5.1368,-5.1172,-5.0979,-5.1806,-5.1626,-5.1629,-5.2111,-5.2886,-5.343,-5.3595,-5.4227,-5.4857,-5.4857,-5.4857,-5.3708,-5.0906,-4.8041,-4.5374,-4.2694,-4.0039,-3.8553,-3.8553,-3.8553,-3.8723,-3.8723,-3.7009,-3.6159,-3.5989,-3.4287,-3.3605,-2.8567,-2.8547,-2.8225,-2.9354,-2.6894,-2.4738,-2.6635,-2.7244,-2.7883,-2.9392,-3.0432,-3.1777,-3.3688,-3.6455,-3.9602,-4.3017,-4.3723,-4.5103,-4.8642,-4.8798,-4.8382,-4.7941,-4.7889,-4.7889,-4.7889,-4.8798,-4.9447,-4.9577,-5.0512,-5.1135,-5.1291,-5.1291,-5.1291,-5.1291,-5.1291,-5.1344,-5.1603,-5.0823,-5.0743,-5.1183,-5.1179,-5.1852,-5.3239,-5.3966,-5.4433,-5.4857,-5.4857,-5.5368,-5.6459,-5.6459,-5.7134,-5.8147,-5.8147,-5.8147,-5.8147,-5.8147,-5.8147,-5.8147,-5.8147,-5.7449,-5.6573,-5.4899,-5.4258,-5.3353,-5.096,-5.0625,-5.0933,-5.0292,-5.1096,-5.2087,-5.2417,-5.2417,-5.2581,-5.324,-5.1855,-5.0364,-5.0817,-4.996,-4.9062,-4.9087,-4.8852,-4.8618,-4.8826,-4.8734,-4.8897,-4.977,-5.0181,-5.0799,-5.2333,-5.2988,-5.3734,-5.4391,-5.4719,-5.4857,-5.4857,-5.4857,-5.3354,-5.0007,-4.7186,-4.4203,-4.0863,-3.8686,-3.767,-3.767,-3.767,-3.8027,-3.8723,-3.8214,-3.8045,-3.8045,-3.7536,-3.7348,-2.917,-3.0283,-3.0994,-3.0761,-2.8432,-2.6567,-2.7801,-2.784,-2.8028,-2.9516,-3.2514,-3.5443,-3.6749,-3.9388,-4.1757,-4.3824,-4.5006,-4.6396,-4.8505,-4.8564,-4.8252,-4.7915,-4.7889,-4.7889,-4.7889,-4.8928,-4.9603,-4.9603,-5.0642,-5.1291,-5.1291,-5.1291,-5.1291,-5.1291,-5.1291,-5.1292,-5.1293,-5.0826,-5.0204,-4.9449,-5.0143,-5.1174,-5.2528,-5.3416,-5.4011,-5.4227,-5.4719,-5.5368,-5.6459,-5.6459,-5.7134,-5.8147,-5.8147,-5.8147,-5.8147,-5.8147,-5.8147,-5.7973,-5.7624,-5.6925,-5.585,-5.3893,-5.2842,-5.2114,-4.9911,-4.9771,-5.0078,-4.9913,-5.0741,-5.1567,-5.2087,-5.1732,-5.1567,-5.2062,-5.0572,-4.9251,-5.0268,-4.9582,-4.8524,-4.8524,-4.8242,-4.7796,-4.7562,-4.7914,-4.831,-4.8557,-4.9175,-5.0143,-5.1617,-5.2382,-5.324,-5.4062,-5.4555,-5.4857,-5.4857,-5.4857,-5.3872,-5.1848,-4.9203,-4.6042,-4.2526,-4.0357,-3.8517,-3.7331,-3.7331,-3.7348,-3.7518,-3.7857,-3.7857,-3.7518,-3.7518,-3.7518,-3.1204,-3.3062,-3.4466,-3.3954,-3.1079,-2.8532,-2.8756,-2.8415,-2.8423,-3.0019,-3.5593,-4.0119,-4.0119,-4.2158,-4.3801,-4.3872,-4.6237,-4.7993,-4.7993,-4.7993,-4.7967,-4.7889,-4.7889,-4.7889,-4.7889,-4.8928,-4.9603,-4.9603,-5.0642,-5.1291,-5.1291,-5.1291,-5.1291,-5.1291,-5.1291,-5.0983,-5.0367,-5.0059,-4.9287,-4.7764,-4.8873,-5.0178,-5.1573,-5.2933,-5.3361,-5.324,-5.4062,-5.5202,-5.6264,-5.6186,-5.6833,-5.8043,-5.7965,-5.7965,-5.8043,-5.8043,-5.8095,-5.7973,-5.7075,-5.6201,-5.5002,-5.306,-5.1842,-5.0776,-4.9767,-4.9439,-4.9605,-5.0244,-5.0575,-5.0906,-5.1732,-5.1402,-5.0741,-5.0741,-4.9698,-4.8641,-4.9251,-4.8828,-4.8478,-4.8337,-4.8219,-4.7796,-4.721,-4.7914,-4.8406,-4.7937,-4.8711,-4.9676,-5.062,-5.1542,-5.2417,-5.3569,-5.4391,-5.4857,-5.4857,-5.4857,-5.4857,-5.4857,-5.2202,-4.9203,-4.602,-4.2862,-4.0188,-3.767,-3.7331,-3.6821,-3.5989,-3.6839,-3.6821,-3.5989,-3.5989,-3.5989,-3.2061,-3.3624,-3.4859,-3.5194,-3.187,-2.8812,-3.012,-3.1701,-3.3071,-3.3964,-3.8594,-4.2617,-4.2617,-4.4958,-4.7154,-4.7784,-4.8299,-4.859,-4.859,-4.859,-4.8434,-4.7941,-4.7889,-4.7889,-4.7889,-4.8928,-4.9603,-4.9603,-5.0642,-5.1291,-5.1291,-5.1291,-5.1291,-5.1291,-5.1291,-5.1291,-5.1137,-4.9776,-4.8848,-4.8539,-4.8171,-4.9045,-5.08,-5.1508,-5.1894,-5.2417,-5.2581,-5.3705,-5.5391,-5.4739,-5.573,-5.742,-5.6926,-5.703,-5.7472,-5.7472,-5.7757,-5.7973,-5.7075,-5.6201,-5.5002,-5.306,-5.1842,-5.0776,-4.9767,-4.9439,-4.9439,-4.9605,-5.0078,-5.0741,-5.0906,-5.0906,-5.0741,-5.0741,-4.9698,-4.8548,-4.8641,-4.8595,-4.8267,-4.7402,-4.8007,-4.8242,-4.728,-4.7609,-4.7984,-4.789,-4.8406,-4.9297,-5.1093,-5.179,-5.2721,-5.4391,-5.4693,-5.4857,-5.4857,-5.4857,-5.4857,-5.4857,-5.1518,-4.9345,-4.8682,-4.3345,-4.002,-3.9513,-3.7331,-3.6159,-3.5989,-3.6839,-3.6821,-3.5989,-3.5989,-3.5989,-3.2512,-3.3788,-3.4508,-3.444,-3.2308,-3.0846,-3.341,-3.4354,-3.5412,-3.751,-4.1419,-4.4547,-4.5387,-4.6857,-4.7993,-4.8252,-4.8304,-4.8304,-4.8304,-4.8304,-4.82,-4.7915,-4.7889,-4.7889,-4.7889,-4.8928,-4.9603,-4.9603,-5.0642,-5.1291,-5.1291,-5.1291,-5.1291,-5.1291,-5.1291,-5.1291,-5.1291,-4.9621,-4.8848,-4.8694,-4.7453,-4.7861,-4.9425,-4.9456,-5.0482,-5.2087,-5.2581,-5.372,-5.532,-5.5037,-5.5759,-5.6848,-5.6563,-5.6615,-5.6848,-5.6848,-5.703,-5.7092,-5.5666,-5.483,-5.4189,-5.2016,-5.0928,-5.0424,-4.9673,-4.9251,-4.904,-4.904,-4.9156,-4.9317,-4.9603,-4.9698,-4.9769,-5.0031,-4.9582,-4.9087,-4.9087,-4.9087,-4.8852,-4.7916,-4.8174,-4.8267,-4.7632,-4.7702,-4.7961,-4.8242,-4.9062,-5.0215,-5.1527,-5.2407,-5.3405,-5.4719,-5.4857,-5.4857,-5.4857,-5.4857,-5.4753,-5.4277,-5.3038,-5.1231,-4.911,-4.4535,-4.2002,-4.2002,-3.7482,-3.4968,-3.4628,-3.5479,-3.5479,-3.4628,-3.4277,-3.4179,-3.2445,-3.3494,-3.4013,-3.3882,-3.3153,-3.3053,-3.5872,-3.6662,-3.7934,-4.1442,-4.4363,-4.659,-4.7681,-4.8096,-4.8174,-4.7797,-4.7889,-4.7889,-4.7889,-4.7889,-4.7889,-4.7889,-4.7889,-4.7889,-4.7889,-4.8928,-4.9603,-4.9603,-5.0642,-5.1291,-5.1291,-5.1291,-5.1291,-5.1291,-5.1291,-5.1291,-5.1291,-4.9621,-4.8848,-4.8694,-4.7143,-4.7163,-4.8889,-4.8183,-4.9242,-5.1897,-5.2581,-5.3734,-5.5076,-5.5139,-5.559,-5.6251,-5.6121,-5.6147,-5.6277,-5.6277,-5.6186,-5.5925,-5.4204,-5.3523,-5.3085,-5.0884,-5.0213,-5.0096,-4.9462,-4.8993,-4.8501,-4.8384,-4.8195,-4.7984,-4.8384,-4.8524,-4.8805,-4.9321,-4.9439,-4.9439,-4.9439,-4.9439,-4.9298,-4.8618,-4.8618,-4.8524,-4.8148,-4.8125,-4.8359,-4.8618,-4.9817,-5.1071,-5.2252,-5.3076,-5.3734,-5.4693,-5.4753,-5.4674,-5.4674,-5.457,-5.4199,-5.3862,-5.4277,-5.3213,-5.0066,-4.6685,-4.4992,-4.4992,-3.895,-3.5309,-3.4441,-3.4375,-3.4513,-3.448,-3.3126,-3.2967,-3.1592,-3.2713,-3.3741,-3.4798,-3.4849,-3.4574,-3.4203,-3.8242,-4.2895,-4.584,-4.7937,-4.8928,-4.8045,-4.8746,-4.9083,-4.8071,-4.7889,-4.7889,-4.7889,-4.7889,-4.7889,-4.7889,-4.7889,-4.7889,-4.7889,-4.8928,-4.9603,-4.9603,-5.0642,-5.1291,-5.1291,-5.1291,-5.1291,-5.1291,-5.1291,-5.1291,-5.1291,-4.9621,-4.8848,-4.8694,-4.7143,-4.7667,-5.0246,-4.8669,-4.8917,-5.0906,-5.0906,-5.1861,-5.3188,-5.3518,-5.4499,-5.5628,-5.5082,-5.5186,-5.568,-5.568,-5.5513,-5.5078,-5.4034,-5.3183,-5.2283,-5.0715,-5.0213,-5.0025,-4.8899,-4.8571,-4.8571,-4.8078,-4.7914,-4.7984,-4.8384,-4.8524,-4.8805,-4.9321,-4.9439,-4.9439,-4.9439,-4.9439,-4.9298,-4.8618,-4.9063,-4.9204,-4.8524,-4.8993,-4.9321,-4.9368,-5.0055,-5.1402,-5.3076,-5.343,-5.3734,-5.4693,-5.4225,-5.3914,-5.3914,-5.3446,-5.3342,-5.381,-5.3888,-5.3959,-5.4262,-5.035,-4.8151,-4.8151,-4.2471,-3.9175,-3.8124,-3.5445,-3.561,-3.8394,-3.4238,-3.4384,-2.993,-3.1208,-3.1922,-3.2182,-3.4517,-3.6239,-3.5024,-3.6716,-3.9211,-4.2186,-4.4738,-4.6333,-4.5356,-4.7369,-4.859,-4.711,-4.7447,-4.7889,-4.7889,-4.7889,-4.7889,-4.7889,-4.7889,-4.8019,-4.8382,-4.9135,-4.9733,-5.0096,-5.0849,-5.1291,-5.1291,-5.1291,-5.1291,-5.1291,-5.1291,-5.1291,-5.1291,-5.0213,-4.9596,-4.9596,-4.7919,-4.8452,-5.1254,-5.0294,-5.0857,-5.2417,-5.2417,-5.2706,-5.3212,-5.3975,-5.452,-5.503,-5.4961,-5.5013,-5.5056,-5.5056,-5.4716,-5.4089,-5.3063,-5.2204,-5.1175,-4.9981,-4.9533,-4.9204,-4.8641,-4.808,-4.7702,-4.7468,-4.7421,-4.7538,-4.8054,-4.843,-4.8805,-4.9321,-4.9439,-4.9439,-4.9439,-4.9439,-4.9392,-4.9016,-4.9298,-4.9392,-4.9181,-4.9321,-4.9605,-5.0078,-5.0575,-5.128,-5.2622,-5.3386,-5.3745,-5.3706,-5.3472,-5.3342,-5.3342,-5.3446,-5.3316,-5.2849,-5.3446,-5.394,-5.4173,-5.0645,-4.8711,-4.9016,-4.4745,-4.2029,-4.1416,-4.0095,-4.0378,-4.1721,-3.9654,-3.8489,-2.8527,-2.9693,-3.0294,-3.0151,-3.2856,-3.5593,-3.5566,-3.5834,-3.7142,-4.0606,-4.397,-4.5871,-4.4555,-4.6772,-4.82,-4.6486,-4.6876,-4.7499,-4.7837,-4.7889,-4.7889,-4.7889,-4.8045,-4.8304,-4.872,-4.9421,-5.0018,-5.0434,-5.0979,-5.1291,-5.1291,-5.1291,-5.1291,-5.1291,-5.1291,-5.1291,-5.1291,-5.0521,-5.0213,-5.0059,-4.8841,-4.9565,-5.2051,-5.1508,-5.2057,-5.3405,-5.2911,-5.2911,-5.3405,-5.3898,-5.4365,-5.4857,-5.4857,-5.4857,-5.4857,-5.4857,-5.4062,-5.2911,-5.2252,-5.1237,-5.022,-4.944,-4.8805,-4.8478,-4.815,-4.7702,-4.7116,-4.7116,-4.7116,-4.7257,-4.7937,-4.85,-4.8993,-4.9368,-4.9439,-4.9439,-4.9439,-4.9439,-4.9439,-4.9439,-4.9439,-4.9439,-4.9439,-4.9605,-4.9913,-5.0575,-5.1237,-5.17,-5.2482,-5.3216,-5.3628,-5.3057,-5.2849,-5.2823,-5.2979,-5.3057,-5.2875,-5.2433,-5.2979,-5.3265,-5.3083,-5.1123,-4.9915,-5.0132,-4.6812,-4.4892,-4.4404,-4.3295,-4.355,-4.4817,-4.3196,-4.1236,-2.7667,-2.8424,-2.9276,-2.9524,-3.017,-3.1681,-3.5112,-3.675,-3.8784,-4.3151,-4.7468,-4.9551,-4.672,-4.7603,-4.82,-4.6486,-4.6201,-4.6616,-4.7733,-4.7889,-4.7889,-4.7889,-4.8382,-4.8746,-4.8746,-4.9785,-5.0611,-5.0611,-5.0979,-5.1291,-5.1291,-5.1291,-5.1291,-5.1291,-5.1291,-5.1291,-5.1291,-5.0521,-5.0213,-5.0213,-4.9861,-5.0884,-5.3031,-5.1831,-5.2057,-5.3405,-5.1567,-5.1732,-5.343,-5.2417,-5.3215,-5.4857,-5.4857,-5.4857,-5.4857,-5.4857,-5.3708,-5.2087,-5.2087,-5.093,-4.9368,-4.8688,-4.8524,-4.8337,-4.7444,-4.7116,-4.7116,-4.7116,-4.7116,-4.735,-4.8406,-4.9063,-4.9439,-4.9439,-4.9439,-4.9439,-4.9439,-4.9439,-4.9439,-4.9439,-4.9439,-4.9439,-4.9439,-5.0078,-5.0741,-5.0741,-5.2252,-5.3227,-5.2482,-5.3216,-5.3628,-5.3057,-5.2485,-5.2382,-5.2953,-5.1966,-5.181,-5.2927,-5.2459,-5.1914,-5.1343,-5.2407,-5.2745,-5.2017,-4.9156,-4.7636,-4.7636,-4.3615,-4.3876,-4.7811,-4.335,-4.1566,-2.7646,-2.8924,-3.0756,-3.2584,-3.3039,-3.4021,-3.7197,-3.7033,-3.748,-4.2391,-4.1721,-4.0863,-4.2929,-4.5318,-4.6954,-4.6798,-4.711,-4.7473,-4.7837,-4.7889,-4.7889,-4.7889,-4.8408,-4.8902,-4.9291,-5.0018,-5.0767,-5.1005,-5.1187,-5.1291,-5.1291,-5.1291,-5.1291,-5.1291,-5.1291,-5.1291,-5.1291,-5.1137,-5.0983,-5.1009,-5.165,-5.2554,-5.3602,-5.3686,-5.3883,-5.4391,-5.3708,-5.3872,-5.4391,-5.4062,-5.4201,-5.4857,-5.4857,-5.4857,-5.4857,-5.4857,-5.3708,-5.2087,-5.2087,-5.0688,-4.8735,-4.8571,-4.8033,-4.7538,-4.721,-4.7116,-4.7116,-4.7116,-4.7472,-4.8336,-4.9016,-4.9321,-4.9439,-4.9439,-4.9439,-4.9439,-4.9439,-4.9439,-4.9439,-4.9439,-4.9439,-4.9345,-4.8993,-4.9864,-5.0664,-5.0587,-5.1783,-5.2807,-5.2863,-5.2768,-5.2615,-5.2433,-5.1914,-5.1628,-5.181,-5.1862,-5.1862,-5.1836,-5.2018,-5.2407,-5.3005,-5.2641,-5.2693,-5.329,-5.1968,-5.1186,-5.0626,-4.9507,-4.9549,-5.1061,-4.9621,-4.7822,-2.775,-2.955,-3.1771,-3.3241,-3.3375,-3.4324,-3.8506,-3.719,-3.6862,-4.2428,-4.0273,-3.8734,-4.2903,-4.4824,-4.6149,-4.6928,-4.7343,-4.7655,-4.7863,-4.7889,-4.7967,-4.82,-4.872,-4.9291,-4.9862,-5.0434,-5.0927,-5.1265,-5.1291,-5.1291,-5.1291,-5.1291,-5.1291,-5.1291,-5.1291,-5.1291,-5.1291,-5.1291,-5.1395,-5.1628,-5.2563,-5.329,-5.3862,-5.4596,-5.4857,-5.4857,-5.4391,-5.4555,-5.4883,-5.4391,-5.4555,-5.4883,-5.4953,-5.5186,-5.5342,-5.5134,-5.3874,-5.2309,-5.1914,-5.0423,-4.8454,-4.8057,-4.7655,-4.7069,-4.6881,-4.6952,-4.7139,-4.735,-4.7846,-4.8641,-4.9321,-4.9439,-4.9439,-4.9439,-4.9439,-4.9439,-4.9439,-4.9439,-4.9439,-4.9439,-4.9298,-4.9063,-4.9062,-4.9903,-5.0734,-5.0899,-5.2036,-5.2702,-5.2745,-5.2356,-5.2044,-5.1836,-5.1499,-5.1369,-5.1602,-5.194,-5.207,-5.194,-5.207,-5.2356,-5.2849,-5.2407,-5.2382,-5.2875,-5.2537,-5.2174,-5.181,-5.181,-5.1964,-5.2085,-5.2085,-5.0188,-2.7957,-2.9967,-3.2326,-3.2057,-3.1952,-3.3323,-3.8968,-3.7515,-3.6769,-4.2906,-4.2264,-4.1661,-4.5389,-4.5473,-4.5499,-4.672,-4.7084,-4.7369,-4.7759,-4.7837,-4.8045,-4.8616,-4.9161,-4.9707,-5.0278,-5.0927,-5.1291,-5.1291,-5.1291,-5.1291,-5.1291,-5.1291,-5.1291,-5.1291,-5.1291,-5.1291,-5.1291,-5.1291,-5.155,-5.207,-5.2745,-5.3316,-5.381,-5.4433,-5.4857,-5.4693,-5.3821,-5.3985,-5.4693,-5.3821,-5.3985,-5.4935,-5.5368,-5.5913,-5.6251,-5.5732,-5.4332,-5.2606,-5.1781,-5.0084,-4.8406,-4.7421,-4.7092,-4.6952,-4.6506,-4.674,-4.7257,-4.7726,-4.8289,-4.8852,-4.9321,-4.9439,-4.9439,-4.9439,-4.9439,-4.9439,-4.9439,-4.9439,-4.9439,-4.9392,-4.9016,-4.8967,-4.9687,-5.0294,-5.0934,-5.1497,-5.2451,-5.2719,-5.2148,-5.207,-5.1888,-5.1343,-5.1291,-5.1499,-5.2044,-5.2122,-5.2356,-5.2901,-5.2433,-5.1914,-5.1447,-5.1836,-5.1862,-5.1369,-5.1317,-5.1291,-5.1291,-5.1291,-5.1291,-5.1291,-5.1291,-4.9571,-2.7957,-2.9342,-3.1642,-3.3013,-3.3184,-3.4451,-3.9711,-3.7878,-3.676,-4.316,-4.0404,-3.8352,-4.2697,-4.3084,-4.337,-4.5422,-4.7577,-4.859,-4.7395,-4.7239,-4.7447,-4.8019,-4.82,-4.8512,-4.9083,-5.046,-5.1291,-5.1291,-5.1291,-5.1291,-5.1291,-5.1291,-5.1291,-5.1291,-5.1291,-5.1291,-5.1291,-5.1291,-5.1369,-5.1525,-5.2953,-5.3472,-5.3239,-5.4414,-5.4857,-5.4831,-5.3623,-5.3726,-5.4805,-5.3597,-5.3752,-5.4935,-5.5368,-5.5394,-5.5082,-5.5117,-5.3985,-5.2597,-5.2345,-5.0566,-4.8399,-4.816,-4.7329,-4.635,-4.6233,-4.6975,-4.7726,-4.7843,-4.8547,-4.9298,-4.9415,-4.9439,-4.9439,-4.9439,-4.9439,-4.9439,-4.9439,-4.9439,-4.9321,-4.8782,-4.9249,-4.938,-4.8885,-5.0282,-5.1136,-5.0591,-5.1601,-5.2122,-5.1576,-5.1499,-5.1447,-5.1317,-5.1291,-5.1343,-5.1499,-5.1888,-5.22,-5.233,-5.22,-5.2278,-5.2589,-5.1888,-5.1628,-5.194,-5.1525,-5.1291,-5.1291,-5.1291,-5.1291,-5.1291,-5.1291,-5.0829,-2.8727,-2.9967,-3.1758,-3.2492,-3.285,-3.3991,-3.7706,-3.6694,-3.6586,-4.2127,-4.0823,-3.9503,-4.223,-4.3993,-4.4772,-4.3889,-4.5941,-4.7213,-4.6019,-4.6305,-4.6772,-4.7084,-4.8045,-4.8798,-4.9109,-5.046,-5.1291,-5.1291,-5.1291,-5.1291,-5.1291,-5.1291,-5.1291,-5.1291,-5.1291,-5.1291,-5.1291,-5.155,-5.168,-5.1706,-5.3135,-5.355,-5.3031,-5.4336,-5.4857,-5.4831,-5.4206,-5.431,-5.4831,-5.4206,-5.431,-5.4935,-5.5368,-5.5394,-5.516,-5.542,-5.483,-5.3745,-5.2603,-5.0516,-4.8355,-4.8114,-4.7201,-4.6186,-4.6186,-4.7069,-4.7867,-4.7867,-4.8641,-4.9439,-4.9439,-4.9439,-4.9392,-4.9157,-4.9087,-4.9016,-4.8782,-4.8711,-4.8641,-4.887,-4.9093,-4.9374,-4.9605,-5.0318,-5.0925,-5.0778,-5.1241,-5.1628,-5.1343,-5.1291,-5.1291,-5.1291,-5.1291,-5.1291,-5.1291,-5.1576,-5.1862,-5.2122,-5.2148,-5.2174,-5.22,-5.1628,-5.1447,-5.1732,-5.1447,-5.1291,-5.1291,-5.1291,-5.1291,-5.1291,-5.1291,-5.1291,-2.9623,-3.0775,-3.2302,-3.1813,-3.2075,-3.2996,-3.4941,-3.5191,-3.6145,-4.0383,-4.152,-4.1656,-4.2123,-4.5162,-4.6331,-4.264,-4.3604,-4.4902,-4.4746,-4.5577,-4.6253,-4.6331,-4.8045,-4.9291,-4.9577,-5.0642,-5.1291,-5.1291,-5.1291,-5.1291,-5.1291,-5.1291,-5.1291,-5.1291,-5.1291,-5.1343,-5.1421,-5.1992,-5.2226,-5.2148,-5.3394,-5.3628,-5.3031,-5.4336,-5.4857,-5.4857,-5.4674,-5.47,-5.4857,-5.4674,-5.47,-5.4935,-5.5368,-5.555,-5.555,-5.6121,-5.5965,-5.5073,-5.2849,-5.0476,-4.8465,-4.7777,-4.6987,-4.6186,-4.6186,-4.7069,-4.789,-4.8121,-4.8688,-4.9439,-4.9439,-4.9439,-4.9321,-4.8641,-4.8524,-4.8547,-4.8145,-4.8027,-4.8325,-4.9078,-4.901,-4.9167,-5.0663,-5.0544,-5.0521,-5.1137,-5.1291,-5.1291,-5.1291,-5.1291,-5.1291,-5.1291,-5.1291,-5.1291,-5.1291,-5.1369,-5.1602,-5.1992,-5.2018,-5.1784,-5.1317,-5.1291,-5.1291,-5.1291,-5.1291,-5.1291,-5.1291,-5.1291,-5.1291,-5.1291,-5.1291,-5.1291,-2.9623,-3.0775,-3.2608,-3.3118,-3.2876,-3.2996,-3.4966,-3.5216,-3.5576,-3.7838,-3.9059,-3.976,-3.9838,-4.1137,-4.2149,-4.2067,-4.2591,-4.3785,-4.5681,-4.6097,-4.6382,-4.6876,-4.7213,-4.7993,-4.9447,-5.0642,-5.1291,-5.1291,-5.1291,-5.1291,-5.1291,-5.1291,-5.1291,-5.1291,-5.1291,-5.1525,-5.1992,-5.2589,-5.2615,-5.2148,-5.3784,-5.4018,-5.3031,-5.4336,-5.4857,-5.4805,-5.3841,-5.3971,-5.4779,-5.3815,-5.3997,-5.4935,-5.5368,-5.529,-5.4901,-5.5524,-5.5368,-5.4745,-5.3804,-5.1757,-4.9276,-4.8089,-4.6987,-4.6186,-4.6186,-4.7069,-4.8121,-4.9218,-4.9462,-4.9439,-4.9439,-4.9439,-4.9321,-4.8641,-4.8524,-4.871,-4.8973,-4.9014,-4.903,-4.9388,-5.0028,-5.0456,-5.0262,-5.0727,-5.1137,-5.1291,-5.1291,-5.1291,-5.1291,-5.1291,-5.1291,-5.1291,-5.1291,-5.1291,-5.1291,-5.1732,-5.1836,-5.1447,-5.1421,-5.1395,-5.1291,-5.1291,-5.1291,-5.1291,-5.1291,-5.1291,-5.1291,-5.1291,-5.1291,-5.1291,-5.1291,-5.1291,-3.1325,-3.212,-3.3377,-3.3126,-3.3144,-3.3635,-3.4567,-3.4636,-3.5163,-3.7241,-3.8072,-3.8617,-3.9215,-4.0773,-4.1942,-4.2015,-4.3162,-4.4616,-4.6019,-4.672,-4.698,-4.6642,-4.7941,-4.9083,-4.9551,-5.0642,-5.1291,-5.1291,-5.1291,-5.1291,-5.1291,-5.1291,-5.1291,-5.1291,-5.1291,-5.1732,-5.2589,-5.3161,-5.3161,-5.2615,-5.4179,-5.3945,-5.2148,-5.4075,-5.4518,-5.3945,-5.4049,-5.4388,-5.4831,-5.431,-5.4388,-5.4909,-5.5005,-5.4953,-5.4909,-5.503,-5.5117,-5.4779,-5.4044,-5.3017,-5.1656,-4.9408,-4.8706,-4.8404,-4.7644,-4.8447,-4.9818,-5.0548,-5.0331,-5.0244,-5.0765,-5.0218,-4.9719,-4.968,-4.9343,-4.9141,-4.8925,-4.8961,-4.9202,-4.9712,-5.0309,-5.0518,-5.0727,-5.1137,-5.1291,-5.1291,-5.1291,-5.1291,-5.1291,-5.1291,-5.1291,-5.1291,-5.1291,-5.1291,-5.1291,-5.1525,-5.1576,-5.1317,-5.1291,-5.1291,-5.1291,-5.1291,-5.1291,-5.1291,-5.1291,-5.1291,-5.1291,-5.1291,-5.1291,-5.1291,-5.1291,-5.1291,-3.3361,0.0,-3.5465,-3.4281,-3.4522,-3.4982,0.0,-3.4566,-3.467,-3.6571,-3.7379,-3.7786,-3.8254,-4.0305,-4.176,-4.1312,-4.337,-4.5188,-4.537,-4.672,-4.7421,-4.6694,-4.9005,-5.0538,-5.0226,-5.0979,-5.1447,-5.1291,-5.1291,-5.1291,-5.1291,-5.1291,-5.1291,-5.1291,-5.1421,-5.2044,-5.3187,-5.3628,-5.3706,-5.358,-5.444,-5.3815,-5.1758,-5.3945,-5.4232,-5.3057,-5.4362,-5.4857,-5.4857,-5.4857,-5.4857,-5.4857,-5.4857,-5.4857,-5.4857,-5.4857,-5.4857,-5.4805,-5.4199,-5.3804,-5.3223,-5.1103,-5.0417,-5.0246,-4.901,-5.0122,-5.1795,-5.1795,-5.1339,-5.1042,-5.1725,-5.0979,-5.0117,-5.0246,-4.9961,-4.9516,-4.9127,-4.9158,-4.9312,-5.0213,-5.0367,-5.0675,-5.1137,-5.1291,-5.1291,-5.1291,-5.1291,-5.1291,-5.1291,-5.1291,-5.1291,-5.1291,-5.1291,-5.1291,-5.1291,-5.1291,-5.1291,-5.1291,-5.1291,-5.1291,-5.1291,-5.1291,-5.1291,-5.1291,-5.1291,-5.1291,-5.1291,-5.1291,-5.1291,-5.1291,-5.1291,-5.1291,0.0,-3.776,-4.0174,-3.8589,-3.7902,-3.7509,-3.7509,-3.5735,0.0,-3.4384,-3.615,-3.7189,-3.555,-3.757,-3.9397,-3.8825,-4.1994,-4.4149,-4.3136,-4.537,-4.7265,-4.7707,-4.981,-5.1421,-5.1914,-5.2044,-5.1862,-5.1343,-5.1291,-5.1291,-5.1291,-5.1291,-5.1291,-5.1291,-5.181,-5.2615,-5.3784,-5.381,-5.4096,-5.4753,-5.4831,-5.4232,-5.2927,-5.431,-5.4232,-5.3057,-5.4362,-5.4857,-5.4857,-5.4857,-5.4857,-5.4857,-5.4857,-5.4857,-5.4857,-5.4857,-5.4857,-5.4857,-5.4831,-5.3815,-5.2756,-5.2518,-5.1655,-5.0295,-4.9447,-5.101,-5.3354,-5.3354,-5.2346,-5.132,-5.1345,-5.0925,-5.0221,-4.9679,-4.9689,-4.9648,-5.0031,-5.0059,-5.0213,-5.1137,-5.1291,-5.1291,-5.1291,-5.1291,-5.1291,-5.1291,-5.1291,-5.1291,-5.1291,-5.1291,-5.1291,-5.1291,-5.1291,-5.1291,-5.1291,-5.1291,-5.1291,-5.1291,-5.1291,-5.1291,-5.1291,-5.1291,-5.1291,-5.1291,-5.1291,-5.1291,-5.1291,-5.1291,-5.1291,-5.1291,-5.1291,-5.1291,-3.6622,-3.8682,-4.0469,-4.0192,-3.9763,-3.8955,-3.789,-3.6696,-3.5501,-3.441,-3.4878,-3.5527,-3.5605,-3.6774,-3.8384,-4.0305,-4.2175,-4.4097,-4.6201,-4.711,-4.8174,-4.981,-5.1083,-5.2044,-5.2615,-5.1706,-5.1291,-5.1784,-5.1161,-5.0927,-5.1265,-5.1628,-5.1992,-5.2356,-5.2563,-5.3057,-5.3836,-5.4199,-5.4485,-5.4857,-5.4857,-5.4258,-5.3031,-5.4336,-5.4232,-5.3057,-5.4362,-5.4466,0.0,-5.457,-5.444,-5.3867,-5.4596,-5.4857,-5.4857,-5.4857,-5.4857,-5.4857,-5.4857,-5.4399,-5.4081,-5.4081,-5.272,-5.1185,-5.232,-5.2822,-5.2822,-5.3113,-5.2374,-5.1741,-5.2196,-5.1656,-5.0701,-5.1103,-5.0954,-5.0622,-5.0881,-5.0829,-5.0983,-5.1291,-5.1291,-5.1291,-5.1291,-5.1291,-5.1291,-5.1291,-5.1291,-5.1291,-5.1291,-5.1291,-5.1291,-5.1291,-5.1291,-5.1291,-5.1291,-5.1291,-5.1291,-5.1291,-5.1291,-5.1291,-5.1291,-5.2212,-5.2365,-5.1291,-5.2212,-5.2365,-5.1291,-5.1291,-5.1752,-5.2798,-5.1752,-5.1905,-3.8447,-4.0535,-4.2593,-4.2464,-4.1976,-4.1033,-3.9163,-3.7864,-3.6566,-3.4826,-3.4462,-3.4774,-3.5761,-3.641,-3.7838,-4.1085,-4.2097,-4.3759,-4.7421,-4.7915,-4.8616,-5.0538,-5.1576,-5.2433,-5.3187,-5.2226,-5.1784,-5.2382,-5.1706,-5.1421,-5.181,-5.2018,-5.2485,-5.3239,-5.3083,-5.3368,-5.4096,-5.4674,-5.4857,-5.4857,-5.4857,-5.4258,-5.3031,-5.4336,-5.4232,-5.3057,-5.4362,-5.4232,-5.3083,-5.4388,-5.4179,-5.3109,-5.4414,-5.4857,-5.4857,-5.4857,-5.4857,-5.4857,-5.4857,-5.4857,-5.4857,-5.4857,-5.3479,-5.2409,-5.4262,-5.3549,-5.24,-5.2949,-5.2399,-5.1954,-5.2587,-5.1859,-5.111,-5.1733,-5.1576,-5.1291,-5.1291,-5.1291,-5.1291,-5.1291,-5.1291,-5.1291,-5.1291,-5.1291,-5.1291,-5.1291,-5.1291,-5.1291,-5.1291,-5.1291,-5.1291,-5.1291,-5.1291,-5.1291,-5.1291,-5.1291,-5.1291,-5.1291,-5.1752,-5.2059,-5.2059,-5.3562,-5.3868,-5.2825,-5.341,-5.3104,-5.2059,-5.2059,-5.2645,-5.3562,-5.3131,-5.3104,-4.0497,-4.4017,-4.7458,-4.5849,-4.5041,-4.3863,-4.1552,-3.9293,-3.7189,-3.5343,-3.498,-3.5162,-3.5839,-3.641,-3.7734,-4.0591,-4.1526,-4.3057,-4.5837,-4.7213,-4.833,-4.9499,-5.1135,-5.2589,-5.3706,-5.381,-5.3576,-5.3031,-5.2979,-5.3005,-5.3005,-5.2459,-5.2667,-5.381,-5.329,-5.3711,-5.4857,-5.4857,-5.4857,-5.4857,-5.4857,-5.4284,-5.3057,-5.4362,-5.4258,-5.3083,-5.4388,-5.4206,-5.3083,-5.4388,-5.4179,-5.3109,-5.4414,-5.4857,-5.4857,-5.4857,-5.4857,-5.4857,-5.4857,-5.4857,-5.4857,-5.4857,-5.4201,-5.3569,-5.4529,-5.3429,-5.1891,-5.2846,-5.2563,-5.2122,-5.2122,-5.1706,-5.1291,-5.1291,-5.1291,-5.1291,-5.1291,-5.1291,-5.1291,-5.1291,-5.1291,-5.1291,-5.1291,-5.1291,-5.1291,-5.1291,-5.1291,-5.1291,-5.1291,-5.1291,-5.1291,-5.1291,-5.1291,-5.1291,-5.1291,-5.1291,-5.1291,-5.1291,-5.2798,-5.3715,-5.3715,-5.5238,-5.6149,-5.6149,-5.4478,-5.3715,-5.3715,-5.3715,-5.3715,-5.3715,-5.539,-5.5238,-4.1541,-4.4401,-4.7253,-4.7212,-4.666,-4.5448,-4.2357,-4.0799,-3.9215,-3.628,-3.5683,-3.5865,-3.6436,-3.7007,-3.8332,-4.1188,-4.2123,-4.3915,-4.8019,-4.8876,-4.981,-5.1758,-5.2797,-5.3005,-5.2122,-5.2407,-5.2407,-5.1836,-5.2174,-5.2563,-5.2979,-5.3213,-5.368,-5.4433,-5.3498,-5.3342,-5.4096,-5.4096,-5.4096,-5.4096,-5.4674,-5.47,-5.4388,-5.47,-5.4674,-5.4388,-5.4727,-5.3763,-5.194,-5.4075,-5.355,-5.1992,-5.4101,-5.4857,-5.4857,-5.4857,-5.4857,-5.4805,-5.4225,-5.4096,-5.4044,-5.3628,-5.3043,-5.24,-5.3338,-5.282,-5.2093,-5.2225,-5.1992,-5.155,-5.155,-5.1421,-5.1291,-5.1291,-5.1291,-5.1291,-5.1291,-5.1291,-5.1291,-5.1291,-5.1291,-5.1291,-5.1291,-5.1291,-5.1291,-5.1291,-5.1291,-5.1291,-5.1291,-5.1291,-5.1291,-5.1291,-5.2365,-5.2951,-5.2951,-5.1905,-5.1752,-5.2951,-5.341,-5.4173,-5.539,-5.6906,-5.736,-5.6149,-5.6755,-5.6604,-5.539,-5.539,-5.539,-5.5542,-5.7058,-5.6906,-4.3445,-4.5537,-4.7473,-4.8097,-4.7772,-4.6668,-4.3889,-4.2279,-4.0669,-3.815,-3.6903,-3.6722,-3.8202,-3.8747,-3.9942,-4.2799,-4.298,-4.4097,-4.8019,-4.8772,-4.9681,-5.1732,-5.2693,-5.2953,-5.2356,-5.22,-5.2278,-5.2615,-5.2979,-5.3316,-5.3815,-5.3784,-5.4225,-5.503,-5.394,-5.3602,-5.4173,-5.3966,-5.3732,-5.3498,-5.4023,-5.4179,-5.4179,-5.4179,-5.4179,-5.4179,-5.4179,-5.2979,-5.1447,-5.3265,-5.2953,-5.1473,-5.3316,-5.4179,-5.4179,-5.4179,-5.4179,-5.3966,-5.3628,-5.3498,-5.3446,-5.3109,-5.2377,-5.1702,-5.2173,-5.207,-5.181,-5.181,-5.155,-5.1291,-5.1291,-5.1291,-5.1291,-5.1291,-5.1291,-5.1291,-5.1291,-5.1291,-5.1291,-5.1291,-5.1291,-5.1291,-5.1291,-5.1291,-5.1291,-5.1291,-5.1291,-5.1598,-5.2212,-5.2212,-5.2519,-5.3131,-5.402,-5.463,-5.463,-5.3715,-5.3562,-5.463,-5.5238,-5.5998,-5.7058,-5.8479,-5.8778,-5.8114,-5.8179,-5.7849,-5.7058,-5.7058,-5.7058,-5.7209,-5.8746,-5.8447,-4.5737,-4.7122,-4.811,-4.8828,-4.8541,-4.7473,-4.5603,-4.3526,-4.1729,-4.0228,-3.8358,-3.7734,-4.0331,-4.0877,-4.1916,-4.4876,-4.4097,-4.4123,-4.6954,-4.7837,-4.8798,-5.0408,-5.1525,-5.2537,-5.3576,-5.2745,-5.2797,-5.4518,-5.4622,-5.47,-5.4857,-5.4199,-5.4407,-5.5498,-5.4485,-5.4173,-5.4857,-5.4122,-5.3576,-5.3083,-5.3031,-5.3005,-5.3005,-5.3005,-5.3005,-5.3005,-5.3005,-5.2356,-5.1395,-5.2537,-5.233,-5.1421,-5.2563,-5.3005,-5.3005,-5.3005,-5.3005,-5.3005,-5.2953,-5.2927,-5.2927,-5.2849,-5.2148,-5.1291,-5.1291,-5.1291,-5.1291,-5.1291,-5.1291,-5.1291,-5.1291,-5.1291,-5.1291,-5.1291,-5.1291,-5.1291,-5.1291,-5.1291,-5.1291,-5.1291,-5.1291,-5.1291,-5.1291,-5.1291,-5.1444,-5.1444,-5.1598,-5.2059,-5.3715,-5.3868,-5.463,-5.6452,-5.6452,-5.6452,-5.6452,-5.6301,-5.6301,-5.6452,-5.7603,-5.8477,-5.8627,-5.9577,-6.0286,-6.0903,-5.8805,-5.8032,-5.8627,-5.8568,-5.8538,-5.8538,-6.0065,-5.9729,-4.5604,-4.7122,-4.8709,-4.9608,-4.9146,-4.7759,-4.4668,-4.324,-4.1734,-3.8915,-3.815,-3.8306,-3.8929,-3.976,-4.1474,-4.4798,-4.5785,-4.6954,-4.9395,-5.02,-5.0875,-5.168,-5.1992,-5.2226,-5.2485,-5.2278,-5.2278,-5.2667,-5.2693,-5.329,-5.4805,-5.4753,-5.4805,-5.4901,-5.4805,-5.4753,-5.4857,-5.4122,-5.3784,-5.3654,-5.3213,-5.3005,-5.3005,-5.3005,-5.3005,-5.3005,-5.3005,-5.2356,-5.1395,-5.2537,-5.233,-5.1421,-5.2563,-5.3005,-5.3005,-5.3005,-5.3005,-5.2927,-5.2485,-5.233,-5.2252,-5.181,-5.1499,-5.1291,-5.1291,-5.1291,-5.1291,-5.1291,-5.1291,-5.1291,-5.1291,-5.1291,-5.1291,-5.1291,-5.1291,-5.1291,-5.1291,-5.1291,-5.1291,-5.1291,-5.1291,-5.1291,-5.1291,-5.1291,-5.1752,-5.2951,-5.3104,-5.3715,-5.539,-5.5694,-5.6755,-5.9648,-5.8746,-5.7963,-5.7963,-5.6906,-5.6755,-5.7963,-5.7793,-5.8388,-5.9602,-5.9922,-6.0069,-6.0193,-5.9775,-5.9597,-5.975,-5.9052,-5.8777,-5.8777,-5.9244,-5.9152,-4.5896,-4.7332,-4.9116,-5.0138,-4.954,-4.8434,-4.7162,-4.5603,-4.3811,-4.176,-4.0695,-4.0202,-4.0487,-4.1007,-4.2357,-4.5292,-4.6486,-4.7265,-4.7915,-4.9914,-5.1213,-5.0953,-5.1395,-5.2174,-5.3265,-5.2382,-5.2174,-5.329,-5.3368,-5.3758,-5.4831,-5.4857,-5.5013,-5.5134,-5.5013,-5.4857,-5.4857,-5.4122,-5.3576,-5.3031,-5.2719,-5.2433,-5.2174,-5.2174,-5.2174,-5.2174,-5.2174,-5.1836,-5.1343,-5.194,-5.1836,-5.1343,-5.194,-5.2174,-5.2174,-5.2174,-5.2174,-5.2148,-5.1836,-5.1732,-5.168,-5.1395,-5.1291,-5.1291,-5.1291,-5.1291,-5.1291,-5.1291,-5.1291,-5.1291,-5.1291,-5.1291,-5.1291,-5.1291,-5.1291,-5.1291,-5.1291,-5.1291,-5.1291,-5.1291,-5.1905,-5.2519,-5.2519,-5.3131,-5.3868,-5.4782,-5.4782,-5.539,-5.7058,-5.7963,-5.9197,-6.0877,-6.0248,-5.9648,-5.9648,-5.8748,-5.842,-5.9165,-5.8531,-5.8577,-5.9483,-5.9174,-5.9174,-5.9483,-5.9174,-5.9174,-5.9483,-5.8803,-5.8463,-5.8463,-5.8124,-5.7969,-4.6479,-4.7779,-4.9152,-5.0388,-4.9908,-4.9213,-4.9862,-4.8122,-4.6123,-4.5344,-4.3759,-4.2666,-4.2721,-4.2825,-4.3604,-4.5837,-4.6694,-4.685,-4.6305,-4.9161,-5.0979,-5.0148,-5.0875,-5.2304,-5.4648,-5.3005,-5.2667,-5.4727,-5.4596,-5.4414,-5.4414,-5.4414,-5.4615,-5.542,-5.4979,-5.4857,-5.4857,-5.4329,-5.3576,-5.2433,-5.2433,-5.2096,-5.1447,-5.1447,-5.1343,-5.1161,-5.1265,-5.1239,-5.1161,-5.1265,-5.1291,-5.1291,-5.1291,-5.1291,-5.1291,-5.1291,-5.1291,-5.1291,-5.1291,-5.1291,-5.1291,-5.1291,-5.1291,-5.1291,-5.1291,-5.1291,-5.1291,-5.1291,-5.1291,-5.1291,-5.1291,-5.1291,-5.1291,-5.1291,-5.1291,-5.1444,-5.1598,-5.1752,-5.1752,-5.2059,-5.3257,-5.4173,-5.4173,-5.5238,-5.6301,-5.6604,-5.6604,-5.7209,-5.8716,-6.0098,-6.1027,-6.1027,-6.0903,-6.0842,-6.0842,-6.0193,-5.9791,-5.9791,-5.9143,-5.8772,-5.8772,-5.8247,-5.8216,-5.8772,-5.8124,-5.8062,-5.8587,-5.7815,-5.7444,-5.7413,-5.6857,-5.658,-4.7354,-4.8673,-4.9647,-5.0467,-5.0512,-4.9888,-4.8538,-4.7551,-4.6486,-4.4902,-4.4746,-4.4435,-4.3006,-4.3136,-4.4071,-4.5915,-4.6694,-4.7681,-4.9525,-5.0668,-5.1421,-5.1758,-5.194,-5.2719,-5.47,-5.4596,-5.4544,-5.4857,-5.3316,-5.2485,-5.2485,-5.2485,-5.3213,-5.4935,-5.4909,-5.4857,-5.4857,-5.516,-5.4771,-5.3602,-5.3602,-5.3057,-5.2018,-5.2018,-5.1499,-5.0741,-5.1083,-5.1005,-5.0616,-5.1083,-5.1291,-5.1291,-5.1291,-5.1291,-5.1291,-5.1291,-5.1291,-5.1291,-5.1291,-5.1291,-5.1291,-5.1291,-5.1291,-5.1291,-5.1291,-5.1291,-5.1291,-5.1291,-5.1291,-5.1291,-5.1291,-5.1291,-5.1291,-5.1291,-5.1291,-5.1752,-5.3104,-5.341,-5.3715,-5.5238,-5.5694,-5.5846,-5.5846,-5.5998,-5.6604,-5.7963,-5.8265,-5.8746,-6.0547,-6.0877,-6.1027,-6.1027,-6.0502,-6.0131,-6.0131,-5.9483,-5.9081,-5.9081,-5.8463,-5.8093,-5.8093,-5.8031,-5.8031,-5.8093,-5.7444,-5.7135,-5.7197,-5.59,-5.5282,-5.5282,-5.519,-5.5128,-4.4886,-4.7148,-4.9449,-5.0085,-5.0471,-5.0524,-4.9686,-4.8988,-4.8278,-4.673,-4.5837,-4.4902,-4.3474,-4.2643,-4.2928,-4.5344,-4.5941,-4.7006,-4.9603,-5.0174,-5.0797,-5.1992,-5.1862,-5.2459,-5.4674,-5.4407,-5.3966,-5.3316,-5.3446,-5.3576,-5.3576,-5.3576,-5.3914,-5.4857,-5.4857,-5.4857,-5.4857,-5.4979,-5.4667,-5.3836,-5.3524,-5.2927,-5.2122,-5.181,-5.1395,-5.0927,-5.1187,-5.1161,-5.0953,-5.1187,-5.1291,-5.1291,-5.1291,-5.1291,-5.1291,-5.1291,-5.1291,-5.1291,-5.1291,-5.1291,-5.1291,-5.1291,-5.1291,-5.1291,-5.1291,-5.1291,-5.1291,-5.1291,-5.1598,-5.2059,-5.2519,-5.2978,-5.3437,-5.3895,-5.402,-5.4173,-5.4934,-5.5086,-5.5238,-5.5998,-5.6906,-5.7511,-5.7511,-5.8265,-5.9197,-5.9798,-5.9948,-6.0248,-6.0877,-6.1027,-6.1027,-6.1027,-6.0749,-6.0564,-6.0564,-5.9575,-5.8927,-5.8927,-5.7969,-5.7228,-5.6827,-5.6827,-5.6641,-5.624,-5.5931,-5.5777,-5.5777,-5.4788,-5.451,-5.485,-5.451,-5.4726,-4.2876,-4.5463,-4.8273,-4.9013,-4.9818,-5.0337,-5.0361,-5.0176,-4.9581,-4.8408,-4.7317,-4.6019,-4.4694,-4.3422,-4.3266,-4.5422,-4.5889,-4.698,-4.9836,-5.0356,-5.0875,-5.1992,-5.1758,-5.2018,-5.345,-5.3394,-5.3057,-5.22,-5.3316,-5.3992,-5.3836,-5.4127,-5.4173,-5.4648,-5.4779,-5.4857,-5.4857,-5.4727,-5.4277,-5.3836,-5.3576,-5.3135,-5.2537,-5.1836,-5.1421,-5.1291,-5.1291,-5.1213,-5.1083,-5.1239,-5.1291,-5.1291,-5.1291,-5.1291,-5.1291,-5.1291,-5.1291,-5.1291,-5.1291,-5.1291,-5.1291,-5.1291,-5.1291,-5.1291,-5.1291,-5.1444,-5.1598,-5.1598,-5.2392,-5.3131,-5.3562,-5.4353,-5.5142,-5.5722,-5.5694,-5.5694,-5.6604,-5.6604,-5.6632,-5.7209,-5.8415,-5.9167,-5.9167,-6.0248,-6.1027,-6.1027,-6.1027,-6.1027,-6.1027,-6.1027,-6.1027,-6.1027,-6.0872,-6.0749,-6.0749,-5.9483,-5.8618,-5.8433,-5.7321,-5.6363,-5.5684,-5.5653,-5.5406,-5.4881,-5.485,-5.4788,-5.4603,-5.4294,-5.4325,-5.4603,-5.4294,-5.4696,-4.2799,-4.4487,-4.5733,-4.685,-4.8084,-4.9048,-4.9473,-4.9577,-4.9551,-4.9499,-4.9447,-4.8876,-4.7188,-4.6798,-4.6798,-4.6928,-4.7421,-4.8746,-5.1602,-5.2485,-5.2667,-5.22,-5.2122,-5.1499,-4.9992,-5.1291,-5.22,-5.2148,-5.2226,-5.2044,-5.1499,-5.1966,-5.2771,-5.3862,-5.4407,-5.4857,-5.4857,-5.4147,-5.3862,-5.3836,-5.4355,-5.4329,-5.3706,-5.2589,-5.181,-5.1291,-5.1291,-5.1005,-5.0689,-5.1083,-5.1291,-5.1291,-5.1291,-5.1291,-5.1291,-5.1291,-5.1291,-5.1291,-5.1291,-5.1291,-5.1291,-5.1291,-5.1291,-5.1291,-5.1291,-5.1905,-5.2392,-5.2392,-5.3617,-5.4658,-5.3868,-5.4353,-5.499,-5.5142,-5.4353,-5.463,-5.7662,-5.7842,-5.7993,-6.0278,-6.0877,-6.0877,-6.0877,-6.1027,-6.1027,-6.1027,-6.1027,-6.1027,-6.1027,-6.1027,-6.1027,-6.1027,-6.044,-6.0186,-6.0186,-5.8803,-5.7753,-5.7105,-5.6363,-5.5653,-5.4943,-5.4912,-5.4881,-5.485,-5.485,-5.4572,-5.3954,-5.4541,-5.451,-5.3954,-5.4541,-5.485,-3.9786,-4.1768,-4.3861,-4.4283,-4.6509,-4.8405,-4.8167,-4.8368,-4.862,-4.8408,-4.7629,-4.6798,-4.6538,-4.5889,-4.5629,-4.6382,-4.6668,-4.7811,-5.0668,-5.059,-5.1005,-5.3005,-5.1628,-5.1135,-5.2719,-5.2433,-5.1525,-5.007,-5.233,-5.3524,-5.2953,-5.3135,-5.342,-5.3836,-5.368,-5.3784,-5.4147,-5.394,-5.4018,-5.4407,-5.4225,-5.4044,-5.381,-5.2667,-5.2018,-5.1784,-5.1083,-5.0642,-5.0585,-5.0278,-5.02,-5.02,-5.02,-5.02,-5.0252,-5.0616,-5.0745,-5.0693,-5.033,-5.02,-5.02,-5.02,-5.02,-5.02,-5.02,-5.035,-5.0801,-5.1851,-5.2898,-5.4175,-5.5737,-5.675,-5.7614,-5.8657,-5.8596,-5.8746,-5.9948,-5.9948,-5.9978,-6.0877,-6.1027,-6.1027,-6.1027,-6.1027,-6.1027,-6.1027,-6.0578,-6.0278,-6.0278,-6.0728,-6.1027,-6.1027,-6.078,-6.0286,-5.939,-5.8865,-5.7938,-5.6394,-5.6054,-5.5406,-5.4294,-5.4232,-5.4047,-5.3584,-5.3584,-5.346,-5.3244,-5.346,-5.3707,-5.3893,-5.3676,-5.3831,-3.841,-3.9672,-4.1373,-4.214,-4.4484,-4.6513,-4.6555,-4.7136,-4.7551,-4.7381,-4.6434,-4.5811,-4.6382,-4.5837,-4.5629,-4.6616,-4.6928,-4.7863,-5.0148,-4.9966,-5.046,-5.2719,-5.1317,-5.0668,-5.1992,-5.1966,-5.155,-5.0823,-5.3372,-5.4459,-5.3862,-5.3836,-5.3758,-5.355,-5.3187,-5.3187,-5.355,-5.355,-5.3758,-5.4284,-5.3732,-5.3446,-5.3239,-5.2278,-5.1966,-5.2096,-5.1135,-5.0642,-5.0434,-5.0044,-4.9759,-4.9603,-4.9603,-4.9603,-4.9629,-5.0018,-5.0044,-4.9862,-4.9655,-4.9603,-4.9603,-4.9603,-4.9874,-5.0319,-5.0319,-5.0912,-5.1799,-5.2831,-5.386,-5.4972,-5.6731,-5.7881,-5.892,-5.9969,-6.0245,-6.0398,-6.0877,-6.0877,-6.0728,-6.1027,-6.1027,-6.1027,-6.1027,-6.1027,-6.0877,-6.0728,-6.0128,-5.9678,-5.9378,-5.9798,-6.0156,-5.9943,-5.9912,-5.9455,-5.8295,-5.8135,-5.742,-5.5612,-5.5547,-5.4974,-5.3615,-5.3553,-5.3244,-5.2534,-5.275,-5.2657,-5.2194,-5.2657,-5.2997,-5.3213,-5.2966,-5.3121,-3.9033,-3.8565,-3.828,-4.0487,-4.1916,-4.324,-4.4928,-4.5759,-4.6175,-4.6175,-4.6175,-4.6356,-4.6902,-4.7006,-4.7188,-4.7759,-4.833,-4.9109,-5.0403,-5.0927,-5.1291,-5.1291,-5.1291,-5.0174,-4.7421,-4.9707,-5.2252,-5.457,-5.4805,-5.4433,-5.3862,-5.3836,-5.3576,-5.3031,-5.2979,-5.2979,-5.2979,-5.2979,-5.2979,-5.3005,-5.3005,-5.2693,-5.2148,-5.1602,-5.1628,-5.2096,-5.1525,-5.0953,-5.0611,-5.0585,-5.0096,-4.9577,-4.9577,-4.9551,-4.9551,-4.9551,-4.9361,-4.8944,-4.9491,-4.9699,-4.9699,-4.9699,-5.0562,-5.1865,-5.1865,-5.3482,-5.5267,-5.5267,-5.6433,-5.748,-5.6813,-5.7582,-5.8651,-5.8682,-5.8718,-5.9047,-6.0697,-6.0428,-6.0128,-6.0877,-6.1027,-6.1027,-6.1027,-6.1027,-6.0728,-5.9978,-5.9828,-5.9528,-5.8566,-5.8386,-5.8299,-5.7794,-5.7735,-5.7467,-5.6783,-5.6703,-5.6195,-5.4863,-5.4784,-5.4201,-5.2904,-5.2843,-5.2534,-5.1854,-5.2534,-5.2225,-5.1022,-5.2194,-5.2503,-5.1854,-5.2503,-5.2781,-3.9711,-3.9708,-4.0254,-4.0877,-4.2513,-4.4097,-4.4591,-4.5162,-4.5577,-4.5577,-4.5577,-4.5629,-4.5785,-4.5811,-4.6149,-4.7136,-4.7421,-4.7915,-4.9057,-5.0434,-5.1291,-5.1291,-5.0927,-5.0382,-4.9577,-5.1343,-5.2278,-5.1835,-5.3161,-5.4018,-5.3836,-5.3836,-5.3576,-5.3031,-5.2589,-5.2382,-5.2382,-5.2382,-5.2589,-5.3005,-5.3005,-5.2927,-5.2745,-5.2615,-5.2382,-5.207,-5.1109,-5.0616,-5.0559,-4.9992,-4.9499,-4.8979,-4.8979,-4.872,-4.8553,-4.9966,-5.0912,-5.1539,-5.1563,-5.1359,-5.0811,-5.0811,-5.0784,-5.064,-5.064,-5.1072,-5.179,-5.2963,-5.388,-5.4919,-5.6258,-5.7582,-5.8772,-5.9435,-5.9976,-6.0398,-6.0877,-6.0877,-6.0578,-6.0278,-6.0128,-5.9978,-5.9348,-5.9197,-5.9197,-5.8897,-5.8445,-5.7817,-5.7048,-5.699,-5.7024,-5.6964,-5.7051,-5.6575,-5.5332,-5.5348,-5.4761,-5.3366,-5.2876,-5.2508,-5.2163,-5.2132,-5.204,-5.1854,-5.2534,-5.2688,-5.2318,-5.2194,-5.204,-5.1823,-5.1051,-5.0681,-4.1329,-4.0001,-3.968,-4.0433,-4.132,-4.2019,-4.2253,-4.35,-4.4461,-4.3993,-4.4279,-4.4746,-4.524,-4.5136,-4.5344,-4.6512,-4.6902,-4.7369,-4.8278,-4.9655,-5.0771,-5.1239,-5.0797,-5.0793,-5.1109,-5.2044,-5.233,-5.1576,-5.2745,-5.3602,-5.3836,-5.3628,-5.3342,-5.3005,-5.2433,-5.2018,-5.1784,-5.1784,-5.194,-5.2278,-5.2278,-5.2278,-5.2278,-5.2278,-5.2096,-5.1758,-5.1083,-5.0668,-5.0434,-5.0096,-4.9629,-4.9109,-4.9109,-4.9184,-4.9092,-4.9487,-5.0163,-5.1004,-5.1004,-5.0862,-5.0862,-5.0862,-5.1004,-5.1147,-5.1147,-5.1573,-5.2281,-5.3159,-5.3905,-5.4628,-5.5874,-5.7018,-5.7909,-5.8298,-5.8833,-5.9337,-5.9611,-5.9702,-5.9614,-5.9318,-5.9348,-5.9197,-5.8566,-5.8566,-5.8088,-5.6961,-5.6306,-5.5864,-5.549,-5.5461,-5.5612,-5.5646,-5.5529,-5.4858,-5.3432,-5.3471,-5.3011,-5.1994,-5.1674,-5.1524,-5.1388,-5.1774,-5.1626,-5.1074,-5.1696,-5.1731,-5.1175,-5.0773,-5.0588,-5.0557,-4.9785,-4.9106,-4.2971,-4.0065,-3.8304,-4.0072,-3.982,-3.9196,0.0,-4.1663,-4.3081,-4.1937,-4.2409,-4.3422,-4.4461,-4.4331,-4.4568,-4.5629,-4.6356,-4.7006,-4.7707,-4.872,-4.981,-5.0875,-5.0693,-5.0875,-5.194,-5.2044,-5.2278,-5.2875,-5.2901,-5.3161,-5.3706,-5.3265,-5.2875,-5.2615,-5.2304,-5.1784,-5.1031,-5.1213,-5.1291,-5.1291,-5.1291,-5.1291,-5.1291,-5.1291,-5.1291,-5.1291,-5.1291,-5.1005,-5.0538,-5.0538,-5.0174,-4.9603,-4.9603,-5.0191,-5.0776,-4.8828,-4.8759,-4.9419,-4.9419,-4.9818,-5.0386,-5.0441,-5.1375,-5.248,-5.2537,-5.3499,-5.4428,-5.4428,-5.4782,-5.5225,-5.5372,-5.5874,-5.6551,-5.6553,-5.6875,-5.714,-5.7735,-5.7854,-5.7884,-5.8327,-5.8356,-5.8176,-5.8176,-5.8117,-5.7227,-5.4646,-5.4182,-5.4154,-5.4097,-5.4097,-5.404,-5.3983,-5.3646,-5.2821,-5.1626,-5.1544,-5.1258,-5.0647,-5.0578,-5.0526,-5.0366,-5.1114,-5.0799,-4.9496,-5.0339,-5.0002,-4.88,-4.8766,-4.8704,-4.8673,-4.8611,-4.7932,0.0,0.0,0.0,0.0,0.0,0.0,0.0,-4.2342,-4.2226,-4.0222,-3.9994,-4.0107,-4.034,-4.1162,-4.2071,-4.3214,-4.4279,-4.5473,-4.7006,-4.7785,-4.8486,-4.9161,-4.9966,-5.0719,-5.1395,-5.1447,-5.1706,-5.2252,-5.2304,-5.2563,-5.3135,-5.3057,-5.2148,-5.0304,-5.1473,-5.1213,-4.9265,-5.0616,-5.1291,-5.1291,-5.1291,-5.1291,-5.1291,-5.1291,-5.1291,-5.1291,-5.1291,-5.1239,-5.1135,-5.1135,-5.0512,-4.9603,-4.9603,-5.0269,-5.1125,-5.0733,-5.1203,-5.2179,-5.2179,-5.1739,-5.1522,-5.204,-5.2306,-5.2565,-5.3077,-5.3163,-5.2876,-5.2876,-5.2589,-5.2532,-5.3564,-5.489,-5.6055,-5.6928,-5.7761,-5.824,-5.8358,-5.8388,-5.8117,-5.7662,-5.7132,-5.6633,-5.5887,-5.5457,-5.4908,-5.4357,-5.4182,-5.4012,-5.3646,-5.3589,-5.339,-5.2878,-5.2736,-5.2338,-5.157,-5.0596,-4.9951,-4.9979,-4.8974,-4.8479,-4.8324,-4.8544,-4.8425,-4.8187,-4.8896,-4.9021,-4.8778,-4.8281,-4.7994,-4.7963,-4.7407,-4.7121,0.0,0.0,0.0,0.0,0.0,0.0,0.0,0.0,0.0,0.0,0.0,-4.1484,-3.962,0.0,-4.2099,-4.1859,-4.3318,-4.4746,-4.5629,-4.698,-4.7889,-4.7889,-4.8902,-4.9836,-5.0382,-5.0953,-5.1291,-5.1291,-5.1291,-5.155,-5.2122,-5.1343,-5.0486,-4.9629,-5.0408,-5.02,-4.8772,-5.0434,-5.1291,-5.1291,-5.1291,-5.1291,-5.1291,-5.1291,-5.1291,-5.1291,-5.1005,-5.0875,-5.0849,-5.0564,-5.009,-4.9698,-4.941,-4.9595,-4.9731,-4.9454,-5.0164,-5.1062,-5.0746,-5.0832,-5.1206,-5.1839,-5.1991,-5.211,-5.2736,-5.2707,-5.2451,-5.2451,-5.2451,-5.2537,-5.285,-5.3449,-5.4052,-5.4369,-5.4485,-5.4686,-5.5355,-5.5471,-5.5528,-5.572,-5.5605,-5.5227,-5.4812,-5.4016,-5.339,-5.339,-5.4251,-5.4752,-5.4568,-5.5468,-5.6318,-5.6827,-5.5349,-5.4302,-5.4364,-5.1639,-4.9642,-4.8892,-4.7555,-4.6961,-4.7335,-4.7292,-4.7187,-4.6864,-4.7296,-4.7328,-4.6997,-4.6892,-4.6789,-4.6758,-4.5893,-4.5515,0.0,0.0,0.0,0.0,0.0,0.0,0.0,0.0,0.0,0.0,0.0,0.0,0.0,0.0,0.0,-4.093,-4.2435,-4.3941,-4.4516,-4.5941,-4.698,-4.6746,-4.7629,-4.8512,-4.9187,-5.0096,-5.0538,-5.0304,-5.0324,-5.0408,-5.1109,-4.9707,-4.8979,-4.9109,-4.9421,-4.9213,-4.8434,-5.0122,-5.0979,-5.0979,-5.0979,0.0,-5.1135,-5.1135,-5.1005,-5.0797,-5.0564,-5.035,-4.9785,-4.9673,-4.9671,-4.962,-4.9162,-4.8683,-4.8219,-4.789,-4.8461,-4.9338,-4.8835,-4.9408,-5.046,-5.0972,-5.1228,-5.1456,-5.2082,-5.2195,0.0,-5.2252,-5.248,-5.265,-5.2508,-5.2451,-5.2394,-5.2138,-5.1683,-5.157,-5.2594,-5.2622,-5.285,-5.3955,-5.3898,-5.3728,-5.4101,-5.3647,-5.3156,-5.2754,-5.4136,-5.5253,-5.5253,-5.6968,-5.8785,-6.0113,-5.8124,-5.6847,-5.7151,-5.3775,-5.0955,-4.9469,-4.7899,-4.7285,-4.7457,-4.6864,-4.6277,-4.5839,-4.5803,-4.5294,-4.4533,-4.4984,-4.5212,-4.553,-4.4877,-4.4718,0.0,0.0,0.0,0.0,0.0,0.0,0.0,0.0,0.0,0.0,0.0,0.0,0.0,0.0,0.0,0.0,-4.0591,-4.2123,-4.4149,-4.4227,-4.4435,-4.5422,-4.6097,-4.6902,-4.7967,-4.82,-4.8668,-4.9629,-4.9213,-4.9421,-5.0486,-4.9888,0.0,0.0,0.0,-4.8824,-4.7265,-4.8928,-4.9785,-4.9785,-4.9785,-5.0044,-5.0715,-5.0715,-4.9992,-4.9083,-5.0044,-4.9317,-4.7499,-4.9041,-4.9528,-4.8982,-4.8629,-4.8501,-4.8821,-4.9169,-4.9396,-4.9586,-4.9501,0.0,0.0,-4.9806,-5.0204,-5.0802,-5.1427,-5.1228,-5.0915,-5.1456,-5.0858,-5.0432,-5.2053,-5.2451,-5.2736,-5.3615,-5.3813,-5.3813,-5.3955,-5.3248,-5.285,-5.3955,-5.2992,-5.2195,-5.3333,-5.4801,-5.5226,-5.3716,-5.3707,-5.3924,-5.3924,-5.531,-5.6479,-5.6677,-5.7793,0.0,-5.7697,-5.6746,-5.5745,-5.4722,-5.2854,-5.1108,-4.9874,-4.7043,-4.5576,-4.5831,-4.4986,-4.3867,-4.256,-4.2415,-4.3072,-4.4244,-4.6281,-4.6403,0.0,0.0,0.0,0.0,0.0,0.0,0.0,0.0,0.0,0.0,0.0,0.0,0.0,0.0,0.0,0.0,-4.098,-4.2682,-4.3686,-4.2483,-4.2149,-4.3656,-4.4616,-4.537,-4.5837,-4.6798,-4.7473,-4.7603,-4.8019,-4.846,-4.8928,-4.8122,-4.7447,-4.7058,-4.7733,-4.7603,-4.6564,-4.8564,-4.9421,-4.9109,-4.9109,-4.9239,-4.9447,-4.9577,-4.9449,-4.8975,-4.9567,-4.9231,-4.8325,-4.874,-4.8697,-4.8628,0.0,0.0,0.0,0.0,-4.8867,-4.8498,-4.8128,-4.7986,-4.8042,-4.8412,-4.8981,-4.9607,-5.0233,-5.0489,-5.0631,-5.0887,-5.0602,-5.0261,-5.0716,-5.083,-5.0858,-5.1029,-5.1058,-5.1171,-5.1513,-5.1171,-5.1471,-5.4036,-5.3809,0.0,-5.613,-5.7125,-5.7366,-5.6772,-5.7581,-5.8443,-5.8443,-5.9994,-6.1619,-6.2679,-6.2334,-6.1976,-6.2083,-6.0019,0.0,0.0,0.0,-5.22,-5.0879,-4.902,0.0,0.0,0.0,-4.483,-4.3028,-4.4066,0.0,0.0,-4.6459,-4.585,0.0,0.0,0.0,0.0,0.0,0.0,0.0,0.0,0.0,0.0,0.0,0.0,0.0,0.0,0.0,0.0,-4.1017,-4.2067,-4.2525,-4.2216,-4.2368,-4.3837,-4.4549,-4.4964,-4.5124,-4.5515,-4.5811,-4.5733,-4.6331,-4.6928,-4.7395,-4.6486,-4.6227,-4.6798,-4.6964,-4.6895,-4.6477,-4.824,-4.8869,-4.8332,-4.8332,-4.8411,-4.8541,-4.8722,-4.8636,-4.8599,-4.9054,-4.8787,-4.8163,-4.8274,-4.8271,-4.8333,-5.0136,-5.0814,-5.0814,-5.0814,-5.0633,-5.0303,-4.9822,-4.9642,-4.9576,-4.9017,-4.9173,-4.9411,-4.896,-4.918,-4.9578,-4.9749,-4.9806,-4.9855,-5.0473,-5.0548,-5.0431,-5.0983,-5.0994,-5.0882,-5.1327,-5.1297,-5.2046,-5.4888,-5.5531,-5.6424,-5.869,-5.9131,-5.8866,-5.842,-5.9679,-6.0796,-6.104,-6.2787,-6.4652,-6.6247,-6.5425,-6.4953,-6.5546,-6.3008,-6.0593,-5.8948,-5.6847,-5.4872,-5.3072,-5.2802,-5.1019,-4.7508,-4.7502,-4.7061,0.0,0.0,0.0,0.0,0.0,0.0,0.0,0.0,0.0,0.0,0.0,0.0,0.0,0.0,0.0,0.0,0.0,0.0,0.0,0.0,0.0,0.0,0.0,0.0,-4.0348,-4.3721,-4.6253,-4.6983,-4.6178,-4.5859,-4.6538,-4.4361,-4.3318,-4.4409,-4.4019,-4.4461,-4.6175,-4.5707,-4.5629,-4.6201,-4.6919,-4.7195,-4.7169,-4.7885,-4.7912,-4.7248,-4.7248,-4.754,-4.807,-4.807,-4.7823,-4.7593,-4.8651,-4.7974,-4.5878,-4.7689,-4.8066,-4.8161,-5.3767,-5.5909,-5.5909,-5.5909,-5.6351,-5.684,-5.6806,-5.6806,-5.6175,-5.2545,-5.1363,-5.0898,-4.7887,-4.6905,-4.7047,-4.7673,-4.7843,-4.8733,-5.2239,-5.2812,-5.32,-5.6183,-5.6438,-5.5928,-5.5961,-5.5656,-5.5843,-5.7168,-5.8008,-5.8726,-5.983,-6.0024,-5.9494,-5.783,-5.7674,0.0,-5.9197,-6.0819,-6.2396,-6.3554,-6.5111,-6.6115,-6.608,-6.5409,-6.4787,-6.4443,-6.3128,-6.0773,-5.7474,-5.8735,-5.7113,-5.1811,-5.0234,-5.0227,-5.1648,0.0,0.0,0.0,0.0,0.0,0.0,0.0,0.0,0.0,0.0,0.0,0.0,0.0,0.0,0.0,0.0,0.0,0.0,0.0,0.0,0.0,0.0,0.0,0.0,-4.3966,-4.469,-4.6789,-4.6476,-4.6133,-4.6372,-4.5951,-4.5906,-4.6312,-4.7858,-4.8991,-4.9659,-4.9732,-4.9963,-5.0166,-5.0299,-5.0227,-4.995,-5.1902,-5.2611,-5.2057,-5.2813,-5.3329,-5.3352,-5.2879,-5.2611,-5.2554,-5.3438,-5.3374,-5.2672,-5.3275,-5.3433,-5.3426,-5.5401,-5.6205,-5.6205,-5.6205,-5.6342,-5.6513,-5.6,-5.5828,-5.5639,-5.4559,-5.4465,-5.4622,-5.3643,-5.3599,-5.38,-5.3449,-5.3045,-5.2985,-5.4205,-5.4146,-5.4021,-5.514,-5.514,-5.5016,-5.5016,-5.4941,-5.5525,-5.7795,-5.9357,-6.0593,-6.0893,-6.2082,-6.2581,-6.1458,-6.2429,-6.3365,-6.3704,-6.4375,-6.4849,-6.5151,-6.6517,-6.7342,-6.7342,-6.7362,-6.7001,-6.6063,-6.4571,-6.2446,-5.988,-5.9712,-5.8564,-5.6158,-5.4077,-5.2918,-5.2532,0.0,0.0,0.0,0.0,0.0,0.0,0.0,0.0,0.0,0.0,0.0,0.0,0.0,0.0,0.0,0.0,0.0,0.0,0.0,0.0,0.0,0.0,0.0,0.0,0.0,0.0,-4.9596,-4.9087,0.0,-4.8601,-4.7956,-4.7213,-4.6604,-4.821,-4.9507,-5.0125,-5.0805,-5.1488,-5.2105,-5.2741,-5.3027,-5.2584,-5.458,-5.5282,-5.4699,-5.542,-5.5795,-5.5762,-5.5201,-5.5165,-5.5408,-5.5928,-5.6205,-5.6258,-5.8129,-5.8858,-5.8785,-5.8123,-5.7723,-5.7397,-5.6702,-5.6666,-5.6847,-5.6453,-5.6748,-5.7335,-5.7449,-5.6612,-5.5171,-5.3271,-5.3098,-5.3405,-5.2697,-5.2704,-5.3226,-5.4156,-5.4659,-5.5125,-5.6107,-5.6351,-5.6407,-5.6407,-5.6435,-5.6862,-5.7898,-5.9302,-6.0061,-5.9407,-6.078,-6.1568,-6.0758,-6.2252,-6.3826,-6.4707,-6.5428,-6.5947,-6.6401,-6.7191,-6.764,-6.764,-6.7876,-6.7606,-6.6875,-6.5455,-6.3948,-6.219,-6.1287,-6.0178,-5.8913,-5.6818,-5.4973,0.0,0.0,0.0,0.0,0.0,0.0,0.0,0.0,0.0,0.0,0.0,0.0,0.0,0.0,0.0,0.0,0.0,0.0,0.0,0.0,0.0,0.0,0.0,0.0,0.0,0.0,0.0,-5.4709,-5.3386,0.0,0.0,0.0,0.0,-4.5777,-4.5745,-4.6446,-4.8124,-4.9194,-5.0561,-5.23,-5.4102,-5.5017,-5.5172,-5.6068,-5.6102,-5.5341,-5.5462,-5.5462,-5.5462,-5.5428,-5.5792,-5.6552,-5.6552,-5.6552,-5.6929,-6.1427,-6.3223,-6.3062,-6.1523,-6.0276,-5.923,-5.754,-5.7419,-5.8183,-5.8183,-5.935,-6.0839,-6.0839,-5.7747,-5.304,-4.7951,-4.6515,0.0,0.0,-4.7599,-4.9781,-5.239,-5.4419,-5.6504,-5.9104,-5.9865,-6.0099,-6.0099,-6.0119,-5.9632,-5.7844,-5.7684,-5.7391,-5.5842,0.0,-5.7113,-5.6398,-5.7794,-5.9793,-6.2364,-6.41,-6.5655,-6.6743,-6.6851,-6.6851,-6.696,-6.696,-6.7002,-6.7045,-6.6153,-6.5219,-6.4431,-6.3436,-6.2012,-5.9776,-5.8205,0.0,0.0,0.0,0.0,0.0,0.0,0.0,0.0,0.0,0.0,0.0,0.0,0.0,0.0,0.0,0.0,0.0,0.0,0.0,0.0,0.0,0.0,0.0,0.0,0.0,0.0,-4.8982,-4.9816,-5.1437,-5.1387,-5.0742,0.0,0.0,0.0,0.0,0.0,0.0,-4.9961,-5.031,-5.112,-5.2545,-5.4382,-5.5731,-5.6726,-5.9407,-6.0572,-6.0418,-6.1196,-6.166,-6.1622,-6.1509,-6.1468,-6.1696,-6.1696,-6.1696,-6.1577,-5.9813,-5.911,-5.8966,-5.8217,-5.6904,-5.5583,-5.5542,-5.564,-5.5939,-5.6234,-5.7499,-5.8988,-5.8988,-5.8592,-5.7905,-5.65,0.0,0.0,0.0,0.0,-5.2987,-5.5772,-5.666,-5.7398,-6.0008,-6.0497,-6.0298,-5.9893,-5.8847,-5.7879,-5.7475,-5.7036,-5.6571,-5.6006,-5.7013,0.0,-5.9443,-6.0714,-6.2007,-6.2878,-6.3301,-6.3675,-6.4374,-6.448,-6.4585,-6.5007,-6.5007,-6.5304,-6.6026,-6.5176,-6.4644,-6.4389,-6.3436,-6.1383,-5.8047,0.0,0.0,0.0,0.0,0.0,0.0,0.0,0.0,0.0,0.0,0.0,0.0,0.0,0.0,0.0,0.0,0.0,0.0,0.0,0.0,0.0,0.0,0.0,0.0,0.0,0.0,0.0,-4.9418,-5.0616,-5.2727,-5.2873,-5.2585,0.0,0.0,0.0,0.0,0.0,0.0,0.0,0.0,0.0,-5.3074,-5.4291,-5.5389,-5.6546,-5.8679,-5.9865,-5.9865,-6.1268,-6.1955,-6.1916,-6.1992,-6.1972,-6.2041,-6.1536,-6.1602,-6.1784,-5.8933,-5.8567,-5.9575,0.0,0.0,0.0,0.0,-5.3782,-5.346,-5.3739,-5.4441,-5.5383,-5.5383,0.0,0.0,0.0,0.0,0.0,0.0,0.0,-5.3013,-5.4513,-5.5958,-5.746,-5.8559,-5.8578,-5.8584,-5.9252,-5.8285,-5.7258,-5.7386,-5.7127,-5.6645,-5.5965,-5.6792,0.0,0.0,0.0,-6.3243,-6.3622,-6.5502,-6.6743,-6.6611,-6.6567,-6.6159,-6.5337,-6.5234,-6.5079,-6.4416,-6.3576,-6.2958,-6.2963,-6.2935,-6.0974,0.0,0.0,0.0,0.0,0.0,0.0,0.0,0.0,0.0,0.0,0.0,0.0,0.0,0.0,0.0,0.0,0.0,0.0,0.0,0.0,0.0,0.0,0.0,0.0,0.0,0.0,0.0,0.0,0.0,-5.1929,-5.5047,0.0,0.0,0.0,0.0,0.0,0.0,0.0,0.0,0.0,0.0,0.0,0.0,0.0,-5.4927,-5.5781,-5.6734,-5.7148,-5.7029,-5.8469,-5.918,-5.918,-5.9774,-5.988,-5.9589,-5.8892,0.0,-5.9419,-5.8367,0.0,0.0,0.0,0.0,0.0,0.0,0.0,0.0,0.0,0.0,0.0,0.0,0.0,0.0,0.0,0.0,0.0,0.0,0.0,0.0,0.0,0.0,-5.6708,-5.6772,-5.6294,-5.6291,-5.8152,-5.7692,-5.6918,-5.7184,-5.7095,-5.6746,0.0,0.0,0.0,0.0,0.0,0.0,-6.4189,-6.8388,-7.0992,-7.02,-7.0014,-6.9033,-6.6835,-6.6532,-6.5707,-6.3804,-6.2254,-6.1468,-6.1452,-6.2193,0.0,0.0,0.0,0.0,0.0,0.0,0.0,0.0,0.0,0.0,0.0,0.0,0.0,0.0,0.0,0.0,0.0,0.0,0.0,0.0,0.0,0.0,0.0,0.0,0.0,0.0,0.0,0.0,0.0,0.0,0.0,0.0,0.0,0.0,0.0,0.0,0.0,0.0,0.0,0.0,0.0,0.0,0.0,0.0,0.0,0.0,0.0,0.0,0.0,0.0,-5.8534,-5.8605,-5.8702,-5.9282,-5.8841,-5.7574,-5.9232,-5.8585,-5.6355,-5.662,0.0,0.0,0.0,0.0,0.0,0.0,0.0,0.0,0.0,0.0,0.0,0.0,0.0,0.0,0.0,0.0,0.0,0.0,0.0,0.0,0.0,0.0,-5.5053,-5.887,-5.8458,-5.6992,-5.6217,0.0,0.0,0.0,0.0,0.0,0.0,0.0,0.0,0.0,0.0,0.0,-6.4423,-6.5963,-6.7475,-6.8652,-6.7907,-6.7302,-6.7444,-6.7061,-6.7139,-6.7912,-6.4632,-6.2727,0.0,0.0,0.0,0.0,0.0,0.0,0.0,0.0,0.0,0.0,0.0,0.0,0.0,0.0,0.0,0.0,0.0,0.0,0.0,0.0,0.0,0.0,0.0,0.0,0.0,0.0,0.0,0.0,0.0,0.0,0.0,0.0,0.0,0.0,0.0,0.0,0.0,0.0,0.0,0.0,0.0,0.0,0.0,0.0,0.0,0.0,0.0,0.0,0.0,0.0,0.0,0.0,0.0,0.0,0.0,0.0,0.0,0.0,-5.6919,-5.6641,0.0,0.0,0.0,0.0,0.0,0.0,0.0,0.0,0.0,0.0,0.0,0.0,0.0,0.0,0.0,0.0,0.0,0.0,0.0,0.0,0.0,0.0,0.0,0.0,0.0,0.0,0.0,0.0,0.0,0.0,0.0,0.0,0.0,0.0,0.0,0.0,0.0,0.0,0.0,0.0,-6.5468,-6.8583,-7.0843,-7.1171,-7.0407,-6.9469,-6.8444,-6.7974,-6.7081,-6.568,-6.3152,0.0,0.0,0.0,0.0,0.0,0.0,0.0,0.0,0.0,0.0,0.0,0.0,0.0,0.0,0.0,0.0,0.0,0.0,0.0,0.0,0.0,0.0,0.0,0.0,0.0,0.0,0.0,0.0,0.0,0.0,0.0,0.0,0.0,0.0,0.0,0.0,0.0,0.0,0.0,0.0,0.0,0.0,0.0,0.0,0.0,0.0,0.0,0.0,0.0,0.0,0.0,0.0,0.0,0.0,0.0,0.0,0.0,0.0,0.0,-5.5566,-5.5537,0.0,0.0,0.0,0.0,0.0,0.0,0.0,0.0,0.0,0.0,0.0,0.0,0.0,0.0,0.0,0.0,0.0,0.0,0.0,0.0,0.0,0.0,0.0,0.0,0.0,0.0,0.0,0.0,0.0,0.0,0.0,0.0,0.0,0.0,0.0,0.0,0.0,0.0,0.0,0.0,-6.7075,-7.1741,-7.4818,-7.4347,-7.3773,-7.2494,-7.0484,-6.9932,-6.8046,-6.4232,-6.2524,0.0,0.0,0.0,0.0,0.0,0.0,0.0,0.0,0.0,0.0,0.0,0.0,0.0,0.0,0.0,0.0,0.0,0.0,0.0,0.0,0.0,0.0,0.0,0.0,0.0,0.0,0.0,0.0,0.0,0.0,0.0,0.0,0.0,0.0,0.0,0.0,0.0,0.0,0.0,0.0,0.0,0.0,0.0,0.0,0.0,0.0,0.0,0.0,0.0,0.0,0.0,0.0,0.0,0.0,0.0,0.0,0.0,0.0,0.0,0.0,0.0,0.0,0.0,0.0,0.0,0.0,0.0,0.0,0.0,0.0,0.0,0.0,0.0,0.0,0.0,0.0,0.0,0.0,0.0,0.0,0.0,0.0,0.0,0.0,0.0,0.0,0.0,0.0,0.0,0.0,0.0,0.0,0.0,0.0,0.0,0.0,0.0,0.0,0.0,0.0,0.0,-6.9088,-7.2263,-7.4882,-7.6204,-7.5429,-7.4773,-7.4457,-7.4014,-7.2409,-6.9312,0.0,0.0,0.0,0.0,0.0,0.0,0.0,0.0,0.0,0.0,0.0,0.0,0.0,0.0,0.0,0.0,0.0,0.0,0.0,0.0,0.0,0.0,0.0,0.0,0.0,0.0,0.0,0.0,0.0,0.0,0.0,0.0,0.0,0.0,0.0,0.0,0.0,0.0,0.0,0.0,0.0,0.0,0.0,0.0,0.0,0.0,0.0,0.0,0.0,0.0,0.0,0.0,0.0,0.0,0.0,0.0,0.0,0.0,0.0,0.0,0.0,0.0,0.0,0.0,0.0,0.0,0.0,0.0,0.0,0.0,0.0,0.0,0.0,0.0,0.0,0.0,0.0,0.0,0.0,0.0,0.0,0.0,0.0,0.0,0.0,0.0,0.0,0.0,0.0,0.0,0.0,0.0,0.0,0.0,0.0,0.0,0.0,0.0,0.0,0.0,0.0,0.0,-6.952,-7.3273,-7.6183,-7.7044,-7.6256,-7.5798,-7.6012,-7.4618,-7.2349,-6.9073,0.0,0.0,0.0,0.0,0.0,0.0,0.0,0.0,0.0,0.0,0.0,0.0,0.0,0.0,0.0,0.0,0.0,0.0,0.0,0.0,0.0,0.0,0.0,0.0,0.0,0.0,0.0,0.0,0.0,0.0,0.0,0.0,0.0,0.0,0.0,0.0,0.0,0.0,0.0,0.0,0.0,0.0,0.0,0.0,0.0,0.0,0.0,0.0,0.0,0.0,0.0,0.0,0.0,0.0,0.0,0.0,0.0,0.0,0.0,0.0,0.0,0.0,0.0,0.0,0.0,0.0,0.0,0.0,0.0,0.0,0.0,0.0,0.0,0.0,0.0,0.0,0.0,0.0,0.0,0.0,0.0,0.0,0.0,0.0,0.0,0.0,0.0,0.0,0.0,0.0,0.0,0.0,0.0,0.0,0.0,0.0,0.0,0.0,0.0,0.0,0.0,0.0,-7.0308,-7.4893,-7.8207,-7.8648,-7.8079,-7.7809,-7.8174,-7.6766,-7.3913,-6.914,0.0,0.0,0.0,0.0,0.0,0.0,0.0,0.0,0.0,0.0,0.0,0.0,0.0,0.0,0.0,0.0,0.0,0.0,0.0,0.0,0.0,0.0,0.0,0.0,0.0,0.0,0.0,0.0,0.0,0.0,0.0,0.0,0.0,0.0,0.0,0.0,0.0,0.0,0.0,0.0,0.0,0.0,0.0,0.0,0.0,0.0,0.0,0.0,0.0,0.0,0.0,0.0,0.0,0.0,0.0,0.0,0.0,0.0,0.0,0.0,0.0,0.0,0.0,0.0,0.0,0.0,0.0,0.0,0.0,0.0,0.0,0.0,0.0,0.0,0.0,0.0,0.0,0.0,0.0,0.0,0.0,0.0,0.0,0.0,0.0,0.0,0.0,0.0,0.0,0.0,0.0,0.0,0.0,0.0,0.0,0.0,0.0,0.0,0.0,0.0,0.0,0.0,-7.1846,-7.7186,-8.1056,-8.1515,-8.1571,-8.1571,-8.1595,-8.1515,-7.8358,0.0,0.0,0.0,0.0,0.0,0.0,0.0,0.0,0.0,0.0,0.0,0.0,0.0,0.0,0.0,0.0,0.0,0.0,0.0,0.0,0.0,0.0,0.0,0.0,0.0,0.0,0.0,0.0,0.0,0.0,0.0,0.0,0.0,0.0,0.0,0.0,0.0,0.0,0.0,0.0,0.0,0.0,0.0,0.0,0.0,0.0,0.0,0.0,0.0,0.0,0.0,0.0,0.0,0.0,0.0,0.0,0.0,0.0,0.0,0.0,0.0,0.0,0.0,0.0,0.0,0.0,0.0,0.0,0.0,0.0,0.0,0.0,0.0,0.0,0.0,0.0,0.0,0.0,0.0,0.0,0.0,0.0,0.0,0.0,0.0,0.0,0.0,0.0,0.0,0.0,0.0,0.0,0.0,0.0,0.0,0.0,0.0,0.0,0.0,0.0,0.0,0.0,0.0,-7.3503,-7.9633,-8.3784,-8.3351,-8.2972,-8.2505,-8.2028,-8.0925,-7.7307,-7.0773,0.0,0.0,0.0,0.0,0.0,0.0,0.0,0.0,0.0,0.0,0.0,0.0,0.0,0.0,0.0,0.0,0.0,0.0,0.0,0.0,0.0,0.0,0.0,0.0,0.0,0.0,0.0,0.0,0.0,0.0,0.0,0.0,0.0,0.0,0.0,0.0,0.0,0.0,0.0,0.0,0.0,0.0,0.0,0.0,0.0,0.0,0.0,0.0,0.0,0.0,0.0,0.0,0.0,0.0,0.0,0.0,0.0,0.0,0.0,0.0,0.0,0.0,0.0,0.0,0.0,0.0,0.0,0.0,0.0,0.0,0.0,0.0,0.0,0.0,0.0,0.0,0.0,0.0,0.0,0.0,0.0,0.0,0.0,0.0,0.0,0.0,0.0,0.0,0.0,0.0,0.0,0.0,0.0,0.0,0.0,0.0,0.0,0.0,0.0,0.0,0.0,0.0,0.0,-7.9151,-8.3105,-8.3748,-8.3353,-8.2931,-8.2467,-8.1417,-7.7976,-7.1579,0.0,0.0,0.0,0.0,0.0,0.0,0.0,0.0,0.0,0.0,0.0,0.0,0.0,0.0,0.0,0.0,0.0,0.0,0.0,0.0,0.0,0.0,0.0,0.0,0.0,0.0,0.0,0.0,0.0,0.0,0.0,0.0,0.0,0.0,0.0,0.0,0.0,0.0,0.0,0.0,0.0,0.0,0.0,0.0,0.0,0.0,0.0,0.0,0.0,0.0,0.0,0.0,0.0,0.0,0.0,0.0,0.0,0.0,0.0,0.0,0.0,0.0,0.0,0.0,0.0,0.0,0.0,0.0,0.0,0.0,0.0,0.0,0.0,0.0,0.0,0.0,0.0,0.0,0.0,0.0,0.0,0.0,0.0,0.0,0.0,0.0,0.0,0.0,0.0,0.0,0.0,0.0,0.0,0.0,0.0,0.0,0.0,0.0,0.0,0.0,0.0,0.0,0.0,-7.6849,-8.0195,-8.2942,-8.2962,-8.2751,-8.2691,-8.2691,-7.9743,-7.2799,-7.1133,0.0,0.0,0.0,0.0,0.0,0.0,0.0,0.0,0.0,0.0,0.0,0.0,0.0,0.0,0.0,0.0,0.0,0.0,0.0,0.0,0.0,0.0,0.0,0.0,0.0,0.0,0.0,0.0,0.0,0.0,0.0,0.0,0.0,0.0,0.0,0.0,0.0,0.0,0.0,0.0,0.0,0.0,0.0,0.0,0.0,0.0,0.0,0.0,0.0,0.0,0.0,0.0,0.0,0.0,0.0,0.0,0.0,0.0,0.0,0.0,0.0,0.0,0.0,0.0,0.0,0.0,0.0,0.0,0.0,0.0,0.0,0.0,0.0,0.0,0.0,0.0,0.0,0.0,0.0,0.0,0.0,0.0,0.0,0.0,0.0,0.0,0.0,0.0,0.0,0.0,0.0,0.0,0.0,0.0,0.0,0.0,0.0,0.0,0.0,0.0,0.0,0.0,-7.9451,-8.3534,-8.3243,-8.2962,-8.2392,-8.1435,-8.1315,-7.8369,-7.1431,-6.9765,0.0,0.0,0.0,0.0,0.0,0.0,0.0,0.0,0.0,0.0,0.0,0.0,0.0,0.0,0.0,0.0,0.0,0.0,0.0,0.0,0.0,0.0,0.0,0.0,0.0,0.0,0.0,0.0,0.0,0.0,0.0,0.0,0.0,0.0,0.0,0.0,0.0,0.0,0.0,0.0,0.0,0.0,0.0,0.0,0.0,0.0,0.0,0.0,0.0,0.0,0.0,0.0,0.0,0.0,0.0,0.0,0.0,0.0,0.0,0.0,0.0,0.0,0.0,0.0,0.0,0.0,0.0,0.0,0.0,0.0,0.0,0.0,0.0,0.0,0.0,0.0,0.0,0.0,0.0,0.0,0.0,0.0,0.0,0.0,0.0,0.0,0.0,0.0,0.0,0.0,0.0,0.0,0.0,0.0,0.0,0.0,0.0,0.0,0.0,0.0,0.0,0.0,-7.4763,-7.9317,-8.1196,-8.1163,-8.0657,-7.9999,-7.9939,-7.7168,-7.0711,-6.8575,0.0,0.0,0.0,0.0,0.0,0.0,0.0,0.0,0.0,0.0,0.0,0.0,0.0,0.0,0.0,0.0,0.0,0.0,0.0,0.0,0.0,0.0,0.0,0.0,0.0,0.0,0.0,0.0,0.0,0.0,0.0,0.0,0.0,0.0,0.0,0.0,0.0,0.0,0.0,0.0,0.0,0.0,0.0,0.0,0.0,0.0,0.0,0.0,0.0,0.0,0.0,0.0,0.0,0.0,0.0,0.0,0.0,0.0,0.0,0.0,0.0,0.0,0.0,0.0,0.0,0.0,0.0,0.0,0.0,0.0,0.0,0.0,0.0,0.0,0.0,0.0,0.0,0.0,0.0,0.0,0.0,0.0,0.0,0.0,0.0,0.0,0.0,0.0,0.0,0.0,0.0,0.0,0.0,0.0,0.0,0.0,0.0,0.0,0.0,0.0,0.0,0.0,0.0,-7.2892,-7.8591,-7.9299,-7.9276,-7.901,-7.901,-7.6344,-7.0109,0.0,0.0,0.0,0.0,0.0,0.0,0.0,0.0,0.0,0.0,0.0,0.0,0.0,0.0,0.0,0.0,0.0,0.0,0.0,0.0,0.0,0.0,0.0,0.0,0.0,0.0,0.0,0.0,0.0,0.0,0.0,0.0,0.0,0.0,0.0,0.0,0.0,0.0,0.0,0.0,0.0,0.0,0.0,0.0,0.0,0.0,0.0,0.0,0.0,0.0,0.0,0.0,0.0,0.0,0.0,0.0,0.0,0.0,0.0,0.0,0.0,0.0,0.0,0.0,0.0,0.0,0.0,0.0,0.0,0.0,0.0,0.0,0.0,0.0,0.0,0.0,0.0,0.0,0.0,0.0,0.0,0.0,0.0,0.0,0.0,0.0,0.0,0.0,0.0,0.0,0.0,0.0,0.0,0.0,0.0,0.0,0.0,0.0,0.0,0.0,0.0,0.0,0.0,0.0,-7.1769,-7.828,-8.0849,-8.1543,-8.0462,-8.0333,-7.6954,-6.887,0.0,0.0,0.0,0.0,0.0,0.0,0.0,0.0,0.0,0.0,0.0,0.0,0.0,0.0]}],[{"header":{"parameterUnit":"kt","parameterCategory":2,"dx":1,"dy":1,"la1":29.285339999999998,"la2":30.599998999999997,"lo1":-89.70041500000002,"lo2":-87.6738589999976,"nx":112,"ny":82,"refTime":"2022-10-30T12:00:00:Z","depth":0,"parameterNumber":2,"parameterNumberName":"V-component_of_WINDS"},"data":[11.3221,11.3168,11.1957,11.1046,10.8815,10.6384,10.4398,9.8678,9.3724,9.3572,9.1959,9.0,8.8339,8.7518,8.6696,8.5463,8.6014,8.6729,0.0,8.8181,0.0,0.0,0.0,0.0,0.0,0.0,0.0,0.0,0.0,0.0,0.0,12.665,13.3357,13.5355,14.1634,14.4631,14.4131,14.4131,14.563,14.8769,14.6628,14.7212,15.035,15.305,15.3407,15.198,15.355,15.3336,15.1837,15.0707,15.0208,15.0208,15.0208,15.0208,15.0208,15.0208,15.0208,15.0208,15.0208,15.0981,15.1694,15.0862,15.1571,15.262,15.1712,15.4158,15.7163,15.6958,15.9836,16.2811,16.2592,16.3059,16.3497,16.3497,16.3497,16.3497,16.3497,16.3497,16.3497,16.3497,16.3497,16.3497,16.3497,16.3497,16.3497,16.3497,16.3497,16.3497,16.3497,16.3704,16.4118,16.462,16.49,16.5374,16.6224,16.5526,16.4871,16.4345,16.219,16.046,15.9408,15.8731,15.8406,15.8356,15.8125,15.799,15.7935,15.7751,15.7631,15.7631,15.7631,15.7631,10.6828,10.7133,10.6269,10.4819,10.2462,9.9851,9.7392,9.1416,8.6301,8.5965,8.5126,8.4511,8.4747,8.4694,8.4614,8.4513,8.6068,8.7094,0.0,0.0,0.0,0.0,0.0,0.0,0.0,0.0,0.0,0.0,11.9586,0.0,12.2226,13.0646,13.6496,13.8566,14.1634,14.3489,14.406,14.406,14.5344,14.7913,14.6914,14.777,15.035,15.3621,15.4263,15.2836,15.4406,15.4192,15.2622,15.0981,15.0208,15.0208,15.0208,15.0208,15.0208,15.0208,15.0208,15.0208,15.0208,15.1409,15.2622,15.148,15.2136,15.2991,15.1356,15.371,15.6962,15.7416,16.004,16.2956,16.3322,16.3497,16.3497,16.3497,16.3497,16.3497,16.3497,16.3497,16.3497,16.3497,16.3497,16.3497,16.3497,16.3497,16.3497,16.3497,16.3497,16.3497,16.3497,16.3497,16.3727,16.4187,16.4234,16.4575,16.5374,16.4662,16.3795,16.2666,16.1062,15.9558,15.8505,15.8406,15.8406,15.8356,15.8125,15.799,15.801,15.7751,15.7631,15.7631,15.7631,15.7631,10.2777,10.1578,9.928,9.4791,9.2503,9.0267,8.5997,8.4845,8.458,8.3923,8.3793,8.359,8.2833,8.2811,8.2315,8.052,8.3512,0.0,0.0,0.0,0.0,0.0,0.0,0.0,0.0,11.9586,12.4866,0.0,13.2857,13.7995,13.2001,13.8994,14.3204,14.3346,14.3275,14.3988,14.563,14.563,14.6414,14.7913,14.7913,14.8769,15.035,15.355,15.4192,15.2907,15.4406,15.4192,15.2693,15.0981,15.0208,15.0208,15.0208,15.0208,15.0208,15.0208,15.0208,15.0208,15.0208,15.1409,15.2765,15.2836,15.2836,15.2551,15.091,15.3367,15.6706,15.6834,15.9914,16.33,16.3373,16.3424,16.3497,16.3497,16.3497,16.3497,16.3497,16.3497,16.3497,16.3497,16.3497,16.3497,16.3497,16.3497,16.3497,16.3497,16.3497,16.3497,16.3497,16.3497,16.3497,16.3497,16.3497,16.3803,16.4457,16.3885,16.2747,16.1037,15.9308,15.8406,15.8406,15.8406,15.8356,15.823,15.8072,15.7935,15.7868,15.7721,15.7631,15.7631,15.7631,15.7631,9.5386,9.4973,9.3395,9.2265,9.1991,9.1606,9.0495,8.7288,8.4503,8.4171,8.4116,0.0,0.0,0.0,8.8253,8.8357,0.0,9.1464,9.1108,9.3003,0.0,0.0,0.0,0.0,0.0,12.1727,12.3082,12.6436,13.1288,13.3928,13.3357,13.8566,14.2633,14.4916,14.3846,14.3988,14.563,14.563,14.6414,14.7913,14.7913,14.8769,15.035,15.2479,15.3835,15.4406,15.3692,15.3835,15.4263,15.148,15.0208,15.0208,15.0208,15.0208,15.0208,15.0208,15.0208,15.0208,15.0208,15.1409,15.2979,15.412,15.4477,15.4192,15.2551,15.2934,15.4209,15.5753,15.7826,16.0157,16.2218,16.2797,16.2903,16.3322,16.3497,16.3322,16.2903,16.3114,16.3322,16.2903,16.3166,16.3497,16.3497,16.3062,16.2956,16.3373,16.3497,16.3497,16.3497,16.3497,16.3497,16.3497,16.3497,16.3015,16.2071,16.2887,16.2285,15.9433,15.8712,15.8406,15.8406,15.8331,15.8256,15.823,15.799,15.7897,15.7868,15.7721,15.7631,15.7631,15.7631,15.7631,8.9679,8.9039,8.7884,8.829,8.8113,8.811,8.8819,8.6635,8.4733,8.5602,0.0,0.0,0.0,0.0,0.0,0.0,9.3043,9.5398,9.6753,9.8894,10.3246,11.1166,0.0,0.0,12.2511,12.5223,12.822,13.193,13.6711,13.8423,13.5997,13.9707,14.3061,14.5558,14.406,14.3988,14.563,14.6272,14.67,14.6985,14.827,14.9411,15.035,15.2693,15.4263,15.5048,15.412,15.4263,15.4834,15.1623,15.0208,15.0208,15.0208,15.0208,15.035,15.1052,15.1338,15.1338,15.1338,15.2836,15.4763,15.5048,15.5119,15.4834,15.3264,15.2946,15.3459,15.5318,15.719,15.918,16.1523,16.229,16.2563,16.3009,16.3062,16.2956,16.2563,16.2563,16.2563,16.218,16.24,16.2671,16.2671,16.2345,16.2345,16.3009,16.3062,16.3166,16.3424,16.3497,16.3497,16.3497,16.284,16.2037,16.1038,16.1241,16.0613,15.8682,15.8542,15.8406,15.8406,15.8281,15.8152,15.8045,15.7954,15.7839,15.7781,15.7662,15.7631,15.7631,15.7631,15.7631,8.5602,8.4273,8.3347,8.3867,8.3211,8.2845,8.4206,0.0,8.635,8.8573,0.0,9.0545,9.2111,0.0,0.0,9.1331,9.4684,9.8505,10.1463,10.5458,10.8955,11.1024,11.6018,11.9301,11.9301,12.9433,13.6068,13.6211,14.4131,14.5928,13.9279,14.1491,14.3774,14.5558,14.4417,14.4488,14.5844,14.7413,14.7413,14.5915,14.8852,15.0208,15.035,15.3264,15.4763,15.5048,15.4691,15.4763,15.4834,15.1623,15.0208,15.0208,15.0208,15.0208,15.0422,15.2194,15.2765,15.2765,15.2979,15.4977,15.726,15.5833,15.5476,15.5333,15.3764,15.3399,15.3798,15.5318,15.7235,15.9208,16.0997,16.1901,16.229,16.24,16.24,16.2345,16.229,16.1885,16.1545,16.143,16.1487,16.1545,16.143,16.143,16.1659,16.229,16.2455,16.2743,16.327,16.3446,16.3497,16.3497,16.1964,16.0819,16.0673,15.9396,15.8534,15.8311,15.8392,15.8406,15.8406,15.8281,15.8098,15.7868,15.7839,15.7781,15.7631,15.7631,15.7631,15.7631,15.7631,15.7631,8.4334,8.3411,8.2316,8.2437,8.3757,8.51,0.0,0.0,0.0,9.467,9.8839,10.13,9.7999,9.9425,10.1422,10.239,10.3318,10.4602,10.6499,11.6018,12.4866,13.0217,13.0788,13.0788,13.0788,13.3,13.4927,13.614,13.9136,14.0778,14.0492,14.1063,14.2704,14.5487,14.6557,14.7199,14.7485,14.9054,14.9054,14.7485,14.9352,15.0208,15.0279,15.085,15.2622,15.4905,15.2337,15.2693,15.4834,15.1623,15.0208,15.0208,15.0208,15.0208,15.0422,15.2194,15.2765,15.2979,15.4192,15.5904,15.7403,15.7117,15.7831,15.8616,15.7046,15.4824,15.3232,15.4803,15.5568,15.6669,16.0018,16.0988,16.1225,16.1602,16.1716,16.1602,16.1225,16.1328,16.1372,16.0975,16.127,16.1372,16.0916,16.0928,16.1094,16.1602,16.218,16.2509,16.2689,16.3166,16.3497,16.3497,16.1964,16.0432,15.9191,15.8774,15.8014,15.664,15.7718,15.8406,15.8406,15.8281,15.8098,15.7868,15.7751,15.7662,15.7631,15.7631,15.7631,15.7631,15.7631,15.7631,8.3739,8.3245,8.301,8.4197,8.5413,0.0,0.0,9.143,9.4898,9.8077,10.1819,10.4816,10.5601,10.767,10.9482,11.031,11.1737,11.4163,11.8159,12.5508,13.0432,13.0432,13.1787,13.2786,13.2786,13.35,13.4285,13.5069,13.7281,13.8977,13.9928,14.1262,14.3189,14.5716,14.7186,14.7913,14.7913,14.9483,14.9483,14.7913,14.9554,15.0208,15.0279,15.1195,15.2408,15.3835,15.2265,15.2479,15.3764,15.1266,15.0208,15.0208,15.0208,15.0838,15.1766,15.3336,15.4477,15.5262,15.5976,15.7331,15.8473,15.7688,15.8473,15.9472,15.7902,15.5833,15.3906,15.3906,15.4477,15.5742,15.8408,15.9931,16.0808,16.1094,16.1153,16.1035,16.0808,16.0676,16.0555,16.032,16.0433,16.0555,16.032,16.0259,16.0505,16.1035,16.1386,16.1731,16.2013,16.2563,16.2718,16.1917,16.0645,15.9118,15.7585,15.7371,15.7011,15.6194,15.7481,15.8331,15.8331,15.8125,15.7935,15.7868,15.7721,15.7631,15.7631,15.7631,15.7631,15.7631,15.7631,15.7631,8.3638,8.3787,8.4496,8.6377,8.7371,0.0,9.1153,9.3442,9.6665,10.2589,10.6032,10.9476,11.4254,11.6435,11.7493,11.7625,12.0058,12.385,12.9595,13.2463,13.2073,12.7007,12.9718,13.2001,13.2001,13.3214,13.407,13.4356,13.6425,13.8033,13.8929,14.1373,14.3659,14.5514,14.6802,14.7627,14.7913,14.8912,14.8995,14.8412,14.934,14.9922,15.0279,15.1694,15.2479,15.2765,15.2408,15.2479,15.2622,15.0981,15.0208,15.0279,15.0636,15.1623,15.2979,15.4834,15.6332,15.7474,15.7831,15.8758,15.9543,15.833,15.8758,15.9472,15.7902,15.6332,15.4763,15.3193,15.3906,15.5476,15.7046,15.899,16.0566,16.0566,16.0566,16.0566,16.0566,16.0134,15.9757,15.9757,15.9757,15.9757,15.9757,15.9757,15.9947,16.0443,16.0627,16.0928,16.1314,16.1668,16.1402,16.033,15.8859,15.7486,15.6344,15.6024,15.5936,15.6047,15.721,15.7942,15.8098,15.785,15.7706,15.7706,15.7692,15.7631,15.7631,15.7631,15.7631,15.7631,15.7631,15.7631,8.4246,8.5382,8.645,8.6838,8.8905,0.0,9.2169,10.0127,10.8478,11.2628,11.9369,12.4291,12.3752,12.4919,12.617,12.6754,12.828,13.0616,13.4128,13.4216,13.3714,13.3,13.3357,13.3714,13.3714,13.3856,13.4499,13.5926,13.5069,13.5748,13.8857,14.0373,14.2032,14.3868,14.5174,14.6557,14.7913,14.6771,14.7485,14.9994,14.8769,14.8912,15.0208,15.0422,15.1409,15.2693,15.1195,15.1409,15.2622,15.0981,15.0208,15.0422,15.1908,15.2622,15.3121,15.6118,15.7331,15.7688,15.9044,15.9615,15.9757,15.9615,15.9615,15.9472,15.7902,15.6332,15.4763,15.3193,15.3906,15.5476,15.7046,15.8678,15.9884,15.9884,15.9884,15.9884,15.9884,15.9821,15.9757,15.9757,15.9757,15.9757,15.9757,15.9757,15.9821,15.9884,16.0382,16.0748,16.0808,16.0103,15.9731,16.0132,15.7478,15.5846,15.6271,15.5538,15.5312,15.5898,15.6373,15.6956,15.7542,15.739,15.7297,15.7297,15.757,15.7631,15.7631,15.7631,15.7631,15.7631,15.7631,15.7631,8.561,8.6442,8.7267,8.9566,0.0,0.0,9.4044,10.106,10.764,10.9159,11.8901,12.6975,12.6239,13.0514,13.3894,13.3248,13.4513,13.5269,13.4543,13.412,13.3642,13.2643,13.2572,13.2572,13.2572,13.2572,13.2857,13.35,13.3086,13.4139,13.7284,14.0642,14.2842,14.3653,14.5115,14.6517,14.7913,14.6414,14.7199,15.0208,14.8698,14.9268,15.1766,15.1766,15.2123,15.2765,15.2051,15.1623,15.1266,15.0493,15.0838,15.1837,15.2551,15.3906,15.569,15.6974,15.8045,15.8901,15.9543,15.9757,15.9757,15.9757,15.9186,15.833,15.7688,15.569,15.3621,15.2979,15.2551,15.2907,15.5405,15.726,15.8687,15.9543,15.9757,15.9757,15.9757,15.9757,15.9821,16.0009,15.9884,15.9757,15.9757,15.9757,15.9757,15.9757,16.0009,15.991,15.898,15.8737,15.8042,15.6467,15.575,15.506,15.4391,15.4195,15.4537,15.5472,15.5559,15.5973,15.6932,15.6873,15.677,15.677,15.7114,15.7351,15.7351,15.7351,15.7446,15.7631,15.7631,15.7631,8.6695,0.0,0.0,0.0,0.0,0.0,9.6247,10.2591,10.8371,10.969,12.0242,12.9492,13.0221,13.5173,13.8506,13.6566,13.7057,13.6722,13.4083,13.3496,13.2857,13.1716,13.1573,13.1573,13.1573,13.1573,13.1787,13.2215,13.2372,13.3853,13.6711,14.034,14.2579,14.3009,14.4042,14.5216,14.6628,14.513,14.6129,14.9566,14.8055,14.8983,15.2123,15.2551,15.2551,15.2123,15.2622,15.2123,15.0981,15.0981,15.198,15.3478,15.3906,15.5476,15.7545,15.7973,15.883,15.9757,15.9757,15.9757,15.9757,15.9757,15.9044,15.7973,15.7046,15.5252,15.3314,15.2457,15.1386,15.11,15.3814,15.568,15.7189,15.8758,15.9178,15.9312,15.9812,15.9947,16.0134,16.0249,16.0197,16.0009,15.9947,15.9947,15.9804,15.9249,15.9178,15.867,15.6974,15.6762,15.5904,15.3784,15.3925,15.3741,15.2812,15.2936,15.3683,15.494,15.4751,15.5124,15.6417,15.6344,15.6344,15.6344,15.6705,15.6947,15.7048,15.7048,15.7179,15.7509,15.7601,15.7631,0.0,0.0,0.0,9.2107,9.4053,9.6213,9.8709,10.674,11.515,12.0464,12.8414,13.5229,13.8296,13.9096,13.8484,13.5783,13.486,13.4106,13.3114,13.2167,13.1645,13.1573,13.1573,13.1573,13.1573,13.1573,13.2215,13.3785,13.3856,13.5212,13.8423,13.891,13.9859,14.1308,14.123,14.1848,14.3346,14.1848,14.3418,14.7984,14.6414,14.7283,15.035,15.2051,15.1908,15.0422,15.2051,15.2765,15.2693,15.2693,15.3621,15.5191,15.6689,15.7403,15.7617,15.9186,15.9757,15.9757,15.9757,15.9757,15.9757,15.9757,15.9757,15.9115,15.6118,15.5293,15.4759,15.1754,15.0882,15.124,15.2815,15.4221,15.5547,15.7117,15.7723,15.8326,15.9829,16.0505,16.0687,16.0748,16.0687,16.0627,16.0187,16.0505,16.0003,15.7822,15.7723,15.7274,15.5395,15.3896,15.3077,15.351,15.2204,15.1553,15.2012,15.2066,15.2655,15.4079,15.3975,15.4417,15.5887,15.5926,15.5926,15.5926,15.6307,15.6705,15.7048,15.7048,15.7048,15.7081,15.7477,15.7631,9.3163,9.3296,9.3917,10.2908,10.1641,9.9886,10.6565,11.3171,11.8017,11.8798,12.8964,13.6616,13.3214,13.5322,13.7316,13.6299,13.5084,13.4149,13.3681,13.2476,13.1573,13.1573,13.1573,13.1573,13.1573,13.2501,13.3357,13.3928,13.4087,13.5444,13.8423,13.7855,13.8589,14.1236,14.1032,14.2205,14.4773,14.3275,14.4274,14.7913,14.6343,14.7212,15.0279,15.2051,15.2479,15.198,15.2551,15.2765,15.2765,15.2765,15.4334,15.6689,15.726,15.8116,15.9044,15.9615,15.9757,15.9757,15.9757,15.9757,15.9678,15.8794,15.7661,15.6385,15.4664,15.3303,15.217,15.1329,15.0984,15.0954,15.1526,15.2756,15.427,15.6024,15.717,15.8029,15.8784,15.8438,15.7954,15.7954,15.7707,15.7529,15.7339,15.7398,15.7195,15.6344,15.6201,15.5629,15.3825,15.3121,15.2397,15.1493,15.1271,15.1256,15.1481,15.124,15.194,15.3876,15.3206,15.3593,15.5533,15.5526,15.5559,15.5559,15.5887,15.6157,15.6307,15.6307,15.6455,15.6705,15.681,15.6879,9.6018,9.739,9.8859,10.8622,10.7051,10.4985,11.1796,11.6654,11.9921,12.055,13.0058,13.6962,13.2598,13.4209,13.6079,13.5773,13.4615,13.3682,13.3191,13.2215,13.1573,13.1573,13.1573,13.1573,13.1573,13.3,13.4142,13.4713,13.5444,13.6873,13.9279,13.8604,13.907,14.1126,14.0976,14.1975,14.4031,14.32,14.393,14.6272,14.5888,14.703,14.9554,15.1766,15.2479,15.1908,15.1908,15.2551,15.3621,15.3621,15.5476,15.8259,15.8259,15.8901,15.9757,15.9757,15.9757,15.9757,15.9757,15.9821,15.9661,15.8275,15.712,15.5975,15.4098,15.2865,15.1946,15.1357,15.11,15.0927,15.0882,15.1598,15.2659,15.3838,15.5272,15.6275,15.6242,15.64,15.6442,15.5922,15.604,15.6084,15.5336,15.5811,15.5753,15.4209,15.4555,15.4281,15.2482,15.2148,15.166,15.0601,15.0752,15.0855,15.0855,15.0681,15.1297,15.2981,15.2655,15.3206,15.4874,15.5193,15.5309,15.5309,15.56,15.5648,15.5648,15.5808,15.6042,15.6307,15.6418,15.6491,9.6114,10.0753,10.4882,10.9596,11.0497,11.1159,11.4635,11.7908,12.1395,12.5986,13.2121,13.6632,13.6429,13.5748,13.4987,13.4265,13.3556,13.2758,13.1943,13.1768,13.1645,13.1573,13.1573,13.1573,13.1573,13.3072,13.4713,13.614,13.7781,13.9422,14.0849,14.092,14.092,14.092,14.092,14.1103,14.1451,14.1777,14.2457,14.3332,14.5044,14.656,14.7913,15.1124,15.1694,15.0208,15.0208,15.2123,15.5119,15.5119,15.6974,15.9757,15.9757,15.9757,15.9757,15.9757,15.9757,15.9757,15.9757,16.0009,15.9901,15.8254,15.7935,15.7661,15.4488,15.3726,15.3623,15.1815,15.1199,15.1214,15.0927,15.0882,15.0882,15.0882,15.2189,15.3294,15.2482,15.454,15.6056,15.454,15.5406,15.5801,15.408,15.5185,15.5168,15.1528,15.2632,15.3191,15.1343,15.0913,15.0882,15.0824,15.0517,15.0208,15.0208,15.0208,15.0622,15.1592,15.2365,15.318,15.3949,15.4818,15.5351,15.5351,15.5351,15.5309,15.5309,15.5648,15.5847,15.5887,15.627,15.6418,10.1289,10.3817,10.6264,11.7734,11.7074,11.5763,12.3976,12.5476,12.6424,13.1223,13.4491,13.6286,13.5748,13.4874,13.4775,13.6433,13.5571,13.4798,13.5015,13.407,13.2929,13.1716,13.1573,13.1573,13.1573,13.407,13.5854,13.6211,13.878,14.0492,14.092,14.092,14.092,14.092,14.092,14.1547,14.2746,14.3025,14.3295,14.3542,14.4027,14.4916,14.6272,14.827,14.9554,15.0208,15.0208,15.2123,15.5119,15.5119,15.6974,15.9757,15.9757,15.9757,15.9757,15.9757,15.9757,15.9757,15.9757,16.0009,15.9758,15.7207,15.6466,15.6054,15.3415,15.2406,15.2224,15.1957,15.1608,15.1271,15.1157,15.1157,15.11,15.0869,15.1671,15.2733,15.3543,15.2626,15.156,15.1074,15.0351,14.9629,14.9162,14.9432,14.9379,14.8209,14.9433,15.0186,14.9336,15.0153,15.0694,15.0458,15.0339,15.0208,15.0208,15.0208,15.0667,15.1651,15.2552,15.3522,15.4524,15.5161,15.5411,15.5411,15.5411,15.5402,15.5309,15.5434,15.5476,15.5476,15.56,15.5567,10.0485,10.4748,10.9441,11.8943,11.8429,11.8005,12.7375,12.8222,12.8414,13.314,13.4784,13.5222,13.4794,13.4046,13.3964,13.5379,13.451,13.3796,13.4177,13.3428,13.2572,13.1645,13.1573,13.1573,13.1573,13.4427,13.6282,13.6282,13.9136,14.092,14.092,14.092,14.092,14.092,14.092,14.1404,14.2373,14.254,14.2761,14.3104,14.3587,14.4512,14.5802,14.7258,14.8899,15.0517,15.0339,15.2123,15.5119,15.5119,15.6974,15.9757,15.9757,15.9757,15.9757,15.9757,15.9757,15.9821,15.9947,16.0197,15.9931,15.7073,15.6228,15.5752,15.3041,15.2049,15.1868,15.1922,15.1648,15.1369,15.1271,15.1312,15.1369,15.1199,15.1144,15.1579,15.3004,15.1471,14.9899,14.9899,14.8474,14.7102,14.638,14.7463,14.8132,14.7252,14.9127,15.0406,14.9907,15.0526,15.0869,15.0576,15.0398,15.0208,15.0208,15.0208,15.0563,15.1112,15.1994,15.2981,15.3995,15.4656,15.5203,15.5493,15.5493,15.5567,15.5526,15.5444,15.5444,15.5526,15.5526,15.5526,9.7483,10.4462,11.2295,11.6491,11.7526,11.942,12.7085,12.8173,12.8871,13.3339,13.4004,13.3829,13.3829,13.3201,13.283,13.3046,13.2404,13.1859,13.1859,13.1859,13.1787,13.1573,13.1573,13.1573,13.1573,13.4427,13.6282,13.6282,13.9136,14.092,14.092,14.092,14.092,14.092,14.092,14.1032,14.1253,14.1362,14.1633,14.2235,14.3462,14.47,14.6143,14.7432,14.9134,15.0869,15.0576,15.2183,15.5109,15.4895,15.668,15.9472,15.9258,15.9258,15.9472,15.9472,15.9615,15.9821,16.0063,16.0372,16.0305,15.7437,15.6643,15.6273,15.3168,15.2157,15.2103,15.1813,15.1703,15.1592,15.1312,15.1425,15.1648,15.1648,15.0714,15.026,15.1579,15.0838,14.9754,14.9321,14.8402,14.7102,14.5296,14.7463,14.8979,14.7535,14.9918,15.176,15.1288,15.1297,15.1157,15.0752,15.0458,15.0208,15.0208,15.0208,15.0208,15.0208,15.107,15.1994,15.2908,15.3902,15.47,15.5411,15.5493,15.5614,15.5887,15.5688,15.5614,15.5887,15.5887,15.5887,9.9042,10.3484,10.9308,11.5566,11.9987,12.3567,12.6066,12.8339,13.0814,13.4348,13.404,13.3135,13.3135,13.2443,13.2241,13.3548,13.3605,13.35,13.35,13.35,13.3072,13.1716,13.1573,13.1573,13.1573,13.4427,13.6282,13.6282,13.9136,14.092,14.092,14.092,14.092,14.092,14.092,14.092,14.0976,14.1543,14.1866,14.1972,14.2418,14.3965,14.6494,14.8016,14.965,15.1157,15.11,15.2717,15.5342,15.4043,15.5221,15.7759,15.6404,15.6689,15.7902,15.7902,15.8687,15.9821,16.0063,16.0372,16.0305,15.7437,15.6643,15.6273,15.3168,15.2157,15.2157,15.2103,15.1868,15.1648,15.1592,15.1592,15.1648,15.1648,15.0714,14.9971,15.026,15.0116,14.9104,14.6431,14.7752,14.8474,14.5513,14.6524,14.768,14.7391,14.8979,15.0046,14.9444,15.0409,15.097,15.0458,15.0267,15.0208,15.0208,15.0208,15.0208,15.0208,15.1225,15.1868,15.2082,15.3688,15.4744,15.4874,15.5493,15.5847,15.5887,15.5688,15.5614,15.5887,15.5887,15.5887,10.2724,10.3989,10.5033,10.8406,11.175,11.6645,12.5785,12.7654,12.8783,13.3559,13.1364,12.9374,13.1815,13.1863,13.1859,13.2572,13.2715,13.2715,13.2715,13.2715,13.2429,13.1645,13.1573,13.1573,13.1573,13.4427,13.6282,13.6282,13.9136,14.092,14.092,14.092,14.092,14.092,14.092,14.092,14.092,14.1597,14.1866,14.1919,14.2338,14.3563,14.5601,14.7273,14.9251,15.1271,15.11,15.2229,15.4078,15.3292,15.4242,15.619,15.5405,15.5547,15.619,15.619,15.6689,15.7394,15.7743,15.8116,15.7935,15.6025,15.5585,15.519,15.2879,15.1579,15.0929,15.0929,15.0172,14.956,15.0425,15.0714,15.093,15.1723,15.1471,15.1074,15.1074,15.1074,15.0351,14.8021,14.8815,14.9104,14.6596,14.6813,14.7607,14.8474,14.9884,15.0622,15.0178,15.0598,15.0811,15.0339,15.0208,15.0208,15.0208,15.0208,14.9922,14.9126,15.0296,15.0921,15.0587,15.2794,15.4061,15.4061,15.5378,15.6119,15.6195,15.6004,15.6004,15.6195,15.5417,15.4972,10.4893,10.4244,10.2397,10.4278,10.5149,10.9392,12.4078,12.5271,12.5051,13.1437,12.9758,12.8006,13.1002,13.2144,13.2358,13.1768,13.1573,13.1573,13.1573,13.1573,13.1573,13.1573,13.1573,13.1573,13.1573,13.4427,13.6282,13.6282,13.9136,14.092,14.092,14.092,14.092,14.092,14.092,14.092,14.092,14.1597,14.1866,14.1919,14.2442,14.3554,14.5061,14.6656,14.8785,15.1256,15.11,15.1741,15.2874,15.2529,15.3254,15.4549,15.4192,15.4263,15.462,15.462,15.4895,15.5232,15.5761,15.5996,15.5825,15.488,15.454,15.4179,15.2229,15.0785,14.9827,14.9466,14.8329,14.768,14.9466,14.9899,15.0207,15.1796,15.2157,15.2157,15.2157,15.2157,15.1724,15.0188,15.0188,14.9899,14.8185,14.8113,14.8835,15.0188,15.1074,15.1537,15.1214,15.0927,15.0694,15.0267,14.9922,14.9708,14.9708,14.9423,14.8912,14.7984,14.9126,14.975,14.9631,15.1515,15.2502,15.2502,15.4782,15.6042,15.6158,15.5862,15.5676,15.5528,15.4191,15.3449,10.2137,10.2581,10.3845,11.1637,11.0108,10.9239,11.879,11.9467,12.0297,12.8115,13.2606,13.4427,13.2001,13.3928,13.4855,13.2073,13.1573,13.1573,13.1573,13.1573,13.1573,13.1573,13.1573,13.1573,13.1573,13.4427,13.6282,13.6282,13.9136,14.092,14.092,14.092,14.092,14.092,14.092,14.092,14.092,14.1597,14.1866,14.1919,14.2442,14.4028,14.6444,14.7055,14.8892,15.1592,15.1592,15.2231,15.3381,15.1656,15.1791,15.2836,15.1338,15.1623,15.2979,15.2979,15.4089,15.5535,15.582,15.6112,15.6256,15.4935,15.454,15.3962,15.1055,15.0043,14.9485,14.7968,14.7463,14.768,14.9466,14.9899,15.0207,15.1796,15.2157,15.2157,15.2157,15.2157,15.1724,15.0188,15.1001,15.1435,14.9899,15.0785,15.1796,15.194,15.1795,15.1425,15.0927,15.0882,15.0694,15.0267,14.8983,14.8127,14.8127,14.6842,14.6557,14.7841,14.8055,14.8757,15.0101,14.9937,14.986,14.986,15.3144,15.496,15.5066,15.4298,15.348,15.2573,15.208,15.1191,10.1449,10.0507,9.9725,10.7355,10.7026,10.6375,11.2361,11.557,11.8912,12.4723,12.9468,13.0841,12.5465,13.0146,13.35,12.9433,13.036,13.1573,13.1573,13.1573,13.1573,13.1573,13.1573,13.193,13.2929,13.4998,13.6639,13.7638,13.9707,14.092,14.092,14.092,14.092,14.092,14.092,14.092,14.092,14.1308,14.1526,14.1526,14.2182,14.3765,14.6255,14.7631,14.9284,15.1157,15.1157,15.1458,15.1844,15.0849,15.0815,15.1195,15.0493,15.0636,15.1266,15.1266,15.1874,15.2743,15.3022,15.3237,15.3504,15.3258,15.2446,15.1435,15.026,14.8526,14.6813,14.6091,14.5946,14.6307,14.7896,14.9052,15.0207,15.1796,15.2157,15.2157,15.2157,15.2157,15.2012,15.1416,15.1724,15.2012,15.1362,15.1796,15.2103,15.1868,15.1703,15.1065,14.9637,14.9205,14.8673,14.7556,14.6914,14.6557,14.6557,14.6842,14.6486,14.5201,14.6842,14.8198,14.884,14.9196,14.9918,15.0857,15.2891,15.3502,15.2567,15.2292,15.1353,14.9806,14.8638,14.816,9.9485,9.8271,9.6815,10.3442,10.381,10.4108,11.0278,11.3221,11.647,12.269,12.8608,13.044,12.3251,12.8505,13.2429,12.772,12.879,13.0503,13.143,13.1573,13.1573,13.1573,13.2001,13.2715,13.3856,13.5783,13.7424,13.8566,14.0064,14.092,14.092,14.092,14.092,14.092,14.092,14.092,14.092,14.1198,14.1308,14.1362,14.235,14.3948,14.5973,14.8016,14.9594,15.0811,15.0984,15.0984,15.0811,15.0635,15.0386,15.0208,15.0208,15.0208,15.0208,15.0208,15.0576,15.0984,15.1214,15.1481,15.1741,15.1597,15.0766,14.9754,14.8743,14.6813,14.5008,14.5008,14.5008,14.5441,14.7535,14.9268,15.0785,15.194,15.2157,15.2157,15.2157,15.2157,15.2157,15.2157,15.2157,15.2157,15.2157,15.2103,15.1922,15.1703,15.1481,15.0681,14.8721,14.8218,14.7342,14.5772,14.5201,14.513,14.5558,14.5772,14.5273,14.406,14.5558,14.6343,14.5844,14.7426,14.8641,14.9289,15.076,15.0947,14.9904,14.9754,14.881,14.7164,14.5827,14.5604,9.5308,9.5956,9.689,10.2122,10.1853,10.3222,11.4401,11.2687,11.1843,12.2704,13.221,13.614,12.8362,13.0788,13.2429,12.772,12.6935,12.8077,13.1145,13.1573,13.1573,13.1573,13.2929,13.3928,13.3928,13.6782,13.8582,13.8582,14.0064,14.092,14.092,14.092,14.092,14.092,14.092,14.092,14.092,14.1198,14.1308,14.1308,14.3283,14.4695,14.5701,14.7903,14.9594,15.0811,15.1369,15.1312,15.0882,15.1157,15.0797,15.0208,15.0208,15.0208,15.0208,15.0208,15.0622,15.1271,15.1271,15.1664,15.194,15.0405,14.9899,14.9321,14.6019,14.5008,14.5008,14.5008,14.5008,14.573,14.8979,15.1001,15.2157,15.2157,15.2157,15.2157,15.2157,15.2157,15.2157,15.2157,15.2157,15.2157,15.2157,15.1868,15.1648,15.1648,15.1214,15.0309,14.8721,14.8218,14.7342,14.5772,14.4202,14.3917,14.5487,14.2775,14.2347,14.5415,14.4131,14.2633,14.1063,14.3988,14.4916,14.3403,14.5852,14.7154,14.7154,14.6653,14.5783,14.446,14.4038,14.3773,9.5235,9.5727,9.7546,10.6995,10.4389,10.2794,11.5336,11.3554,11.3247,12.7618,12.4239,11.8676,11.8752,12.4509,12.9004,12.8576,12.9433,13.0432,13.143,13.1573,13.1573,13.1573,13.3,13.4356,13.5426,13.7424,13.901,14.0135,14.0635,14.092,14.092,14.092,14.092,14.092,14.092,14.092,14.092,14.0976,14.1032,14.1103,14.3858,14.5874,14.7271,14.9017,15.0076,15.0458,15.0622,15.0563,15.0458,15.0576,15.0446,15.0208,15.0208,15.0208,15.0208,15.0208,15.0622,15.1271,15.1271,15.0944,15.0549,15.0043,14.8382,14.6307,14.5296,14.5008,14.5008,14.5008,14.6648,14.8763,15.0857,15.1796,15.2157,15.2157,15.2157,15.2157,15.2157,15.2157,15.2157,15.2157,15.2157,15.1868,15.0785,15.1219,15.0872,14.8494,14.8805,14.8606,14.6731,14.5473,14.4559,14.406,14.2633,14.1848,14.2347,14.249,14.249,14.2419,14.2918,14.3988,14.563,14.4631,14.4773,14.6414,14.6245,14.5554,14.4464,14.4289,14.3391,14.173,14.1597,14.1895,9.5205,9.5536,9.706,10.6236,10.3485,10.2213,11.6347,11.2783,11.0972,12.6805,12.08,11.4108,11.8681,12.3154,12.6793,12.8933,13.0075,13.0931,13.1502,13.1573,13.1787,13.2429,13.3856,13.5426,13.6996,13.8566,13.9921,14.0849,14.092,14.092,14.092,14.092,14.092,14.092,14.092,14.092,14.092,14.092,14.1206,14.1848,14.4417,14.6414,14.7984,14.9494,15.0208,15.0208,15.0458,15.0398,15.0279,15.0458,15.0398,15.0279,15.0981,15.1623,15.2051,15.148,15.1611,15.1917,15.0768,15.0153,14.9682,14.8454,14.6668,14.4863,14.4285,14.4502,14.508,14.573,14.7804,15.026,15.1796,15.2157,15.2157,15.2157,15.2157,15.2157,15.2157,15.2157,15.2157,15.2157,15.1724,15.1001,14.9884,14.9686,14.8925,14.6781,14.6945,14.6788,14.4916,14.3846,14.2989,14.2419,14.1491,14.1134,14.1776,14.2704,14.3061,14.2704,14.3061,14.3846,14.5201,14.3988,14.3917,14.5273,14.4345,14.3346,14.2347,14.2347,14.1806,14.071,14.071,14.1236,9.5144,9.5406,9.5916,10.1673,10.0193,10.1426,11.7313,11.0913,10.6032,12.1583,12.0601,11.8881,12.513,12.4937,12.5009,12.8362,12.9361,13.0146,13.1216,13.143,13.2001,13.3571,13.5069,13.6568,13.8138,13.9921,14.092,14.092,14.092,14.092,14.092,14.092,14.092,14.092,14.092,14.092,14.092,14.092,14.1634,14.3061,14.4916,14.6486,14.7841,14.9554,15.0208,15.0267,15.042,15.0362,15.0267,15.042,15.0362,15.0422,15.2123,15.3621,15.4549,15.3121,15.2899,15.2779,14.985,14.9145,14.8979,14.5946,14.4935,14.4502,14.313,14.3852,14.5441,14.6885,14.8618,15.0351,15.1796,15.2157,15.2157,15.2157,15.2157,15.2157,15.2157,15.2157,15.2157,15.2012,15.0857,14.9595,14.9038,14.7631,14.6366,14.5928,14.5588,14.4845,14.3275,14.3061,14.2561,14.1063,14.092,14.1491,14.2989,14.3204,14.3846,14.5344,14.406,14.2633,14.1348,14.2419,14.249,14.1134,14.0992,14.092,14.092,14.092,14.092,14.092,14.092,14.1454,9.5144,9.56,9.7022,10.591,10.2509,10.1128,11.6984,11.079,10.5633,11.9799,11.4494,10.9823,11.811,11.8373,11.9158,12.4795,13.0717,13.35,13.0217,12.9789,13.036,13.193,13.2429,13.3286,13.4855,13.8637,14.092,14.092,14.092,14.092,14.092,14.092,14.092,14.092,14.092,14.092,14.092,14.092,14.1134,14.1562,14.5487,14.6914,14.6272,14.8995,15.0208,15.0136,14.7829,14.8114,15.0065,14.7757,14.8186,15.0422,15.2123,15.2194,15.1338,15.0921,15.0362,14.9566,14.8849,14.7377,14.5705,14.4984,14.4059,14.3181,14.2819,14.4574,14.6885,14.7246,14.9413,15.1724,15.2085,15.2157,15.2157,15.2157,15.2157,15.2157,15.2157,15.2157,15.1796,15.0694,14.9902,14.8659,14.6103,14.603,14.5411,14.2866,14.323,14.3204,14.1705,14.1491,14.1348,14.0992,14.092,14.1063,14.1491,14.2561,14.3418,14.3774,14.3418,14.3632,14.4488,14.2561,14.1848,14.2704,14.1562,14.092,14.092,14.092,14.092,14.092,14.092,14.1087,9.5073,9.5406,9.6665,10.464,10.1101,9.8717,11.0287,10.5817,10.2958,11.6136,11.37,11.0785,11.6421,12.087,12.3011,12.0585,12.6222,12.9718,12.6436,12.7221,12.8505,12.9361,13.2001,13.407,13.4927,13.8637,14.092,14.092,14.092,14.092,14.092,14.092,14.092,14.092,14.092,14.092,14.092,14.1634,14.1991,14.2062,14.5986,14.7128,14.5701,14.8781,15.0208,15.0136,14.8425,14.871,15.0136,14.8425,14.871,15.0422,15.2123,15.2194,15.1552,15.2265,15.1672,15.0206,14.8033,14.619,14.4519,14.3799,14.3142,14.2675,14.2675,14.4863,14.7318,14.7318,14.9702,15.2157,15.2157,15.2157,15.2012,15.129,15.1074,15.0857,15.0135,14.9918,14.9702,14.8748,14.7795,14.65,14.4576,14.4089,14.3311,14.1429,14.1746,14.1848,14.1063,14.092,14.092,14.092,14.092,14.092,14.092,14.1705,14.249,14.3204,14.3275,14.3346,14.3418,14.1848,14.1348,14.2133,14.1348,14.092,14.092,14.092,14.092,14.092,14.092,14.092,9.5036,9.5068,9.5844,10.1671,9.8718,9.6169,10.2566,10.0069,9.9647,11.0952,11.369,11.4449,11.5733,12.4081,12.7292,11.6757,11.98,12.3368,12.294,12.5223,12.7078,12.7292,13.2001,13.5426,13.6211,13.9136,14.092,14.092,14.092,14.092,14.092,14.092,14.092,14.092,14.092,14.1063,14.1277,14.2847,14.3489,14.3275,14.67,14.7342,14.5701,14.8781,15.0208,15.0208,14.9708,14.978,15.0208,14.9708,14.978,15.0422,15.2123,15.2622,15.2622,15.4192,15.3764,15.1826,14.7704,14.5561,14.4322,14.2791,14.2493,14.2675,14.2675,14.4863,14.7391,14.7555,14.9846,15.2157,15.2157,15.2157,15.1796,15.026,14.9899,14.9413,14.7627,14.7266,14.7089,14.6679,14.542,14.4325,14.3565,14.2238,14.1198,14.0976,14.092,14.092,14.092,14.092,14.092,14.092,14.092,14.092,14.092,14.1134,14.1776,14.2847,14.2918,14.2276,14.0992,14.092,14.092,14.092,14.092,14.092,14.092,14.092,14.092,14.092,14.092,14.092,9.5036,9.5068,9.6061,10.269,9.9334,9.6169,10.2637,10.014,9.8077,10.396,10.7313,10.924,10.9454,11.3022,11.5804,11.5188,11.7017,12.03,12.5508,12.665,12.7435,12.879,12.9718,13.1859,13.5854,13.9136,14.092,14.092,14.092,14.092,14.092,14.092,14.092,14.092,14.092,14.1562,14.2847,14.4488,14.4559,14.3275,14.777,14.8412,14.5701,14.8781,15.0208,15.0065,14.7426,14.7783,14.9994,14.7355,14.7854,15.0422,15.2123,15.1908,15.0838,15.2551,15.2123,15.041,14.8328,14.6158,14.4127,14.2686,14.2493,14.2675,14.2675,14.4863,14.7555,14.8713,15.0551,15.2157,15.2157,15.2157,15.1796,15.026,14.9899,14.936,14.7434,14.7021,14.6535,14.4972,14.427,14.3477,14.1935,14.1286,14.0976,14.092,14.092,14.092,14.092,14.092,14.092,14.092,14.092,14.092,14.092,14.2133,14.2419,14.1348,14.1277,14.1206,14.092,14.092,14.092,14.092,14.092,14.092,14.092,14.092,14.092,14.092,14.092,14.092,9.4649,9.4622,9.4911,9.829,9.66,9.4981,9.7954,9.6801,9.6611,10.2319,10.4602,10.61,10.7742,11.2023,11.5234,11.5045,11.8587,12.2583,12.6436,12.8362,12.9076,12.8148,13.1716,13.4855,13.614,13.9136,14.092,14.092,14.092,14.092,14.092,14.092,14.092,14.092,14.092,14.2133,14.4488,14.6058,14.6058,14.4559,14.8353,14.7711,14.3275,14.8068,14.928,14.7711,14.7997,14.8924,15.0136,14.871,14.8924,15.035,15.1124,15.0981,15.035,15.1195,15.0921,14.9994,14.8484,14.7159,14.5872,14.4002,14.4,14.4663,14.3955,14.5849,14.8353,14.8908,15.0423,15.1813,15.172,15.1181,15.0227,14.8479,14.7471,14.6338,14.4648,14.4235,14.3912,14.2853,14.2563,14.2166,14.1286,14.0976,14.092,14.092,14.092,14.092,14.092,14.092,14.092,14.092,14.092,14.092,14.092,14.1562,14.1705,14.0992,14.092,14.092,14.092,14.092,14.092,14.092,14.092,14.092,14.092,14.092,14.092,14.092,14.092,14.092,9.6204,0.0,9.844,9.8858,9.7486,9.6111,0.0,9.497,9.5255,10.0138,10.2349,10.3817,10.5102,11.0738,11.4734,11.3119,11.9158,12.4153,12.4652,12.8362,13.0289,12.8291,13.4641,13.8851,13.7995,14.0064,14.1348,14.092,14.092,14.092,14.092,14.092,14.092,14.092,14.1277,14.2989,14.6129,14.7342,14.7556,14.6713,14.9066,14.7355,14.2205,14.7711,14.8496,14.5772,14.8852,15.0208,15.0208,15.0208,15.0208,15.0208,15.0208,15.0208,15.0208,15.0208,15.0208,15.0065,14.8912,14.8328,14.7731,14.5825,14.5903,14.6444,14.542,14.7128,14.9363,14.9363,15.0163,15.0905,15.0753,14.9644,14.8172,14.6444,14.5096,14.3804,14.2171,14.1759,14.1705,14.1308,14.1253,14.1143,14.0976,14.092,14.092,14.092,14.092,14.092,14.092,14.092,14.092,14.092,14.092,14.092,14.092,14.092,14.092,14.092,14.092,14.092,14.092,14.092,14.092,14.092,14.092,14.092,14.092,14.092,14.092,14.092,14.092,14.092,0.0,10.7375,11.1513,11.2071,10.7405,10.2706,10.2706,9.818,0.0,9.447,9.9322,10.2176,9.8005,10.3573,10.8241,10.6671,11.5376,12.1298,11.8516,12.4652,12.9861,13.1074,13.6853,14.1277,14.2633,14.2989,14.249,14.1063,14.092,14.092,14.092,14.092,14.092,14.092,14.2347,14.4559,14.777,14.7841,14.8626,14.9922,15.0136,14.8496,14.5415,14.871,14.8496,14.5772,14.8852,15.0208,15.0208,15.0208,15.0208,15.0208,15.0208,15.0208,15.0208,15.0208,15.0208,15.0208,15.0136,14.9374,14.8463,14.8305,14.7402,14.6587,14.6716,14.867,15.0667,15.0667,14.9895,14.9045,14.9117,14.7896,14.6372,14.4792,14.4307,14.3678,14.1775,14.1362,14.1308,14.0976,14.092,14.092,14.092,14.092,14.092,14.092,14.092,14.092,14.092,14.092,14.092,14.092,14.092,14.092,14.092,14.092,14.092,14.092,14.092,14.092,14.092,14.092,14.092,14.092,14.092,14.092,14.092,14.092,14.092,14.092,14.092,14.092,10.2703,10.7369,11.1567,11.2716,11.037,10.7028,10.4103,10.082,9.7538,9.4541,9.5826,9.761,9.7824,10.1034,10.5458,11.0738,11.5876,12.1156,12.6935,12.9433,13.2358,13.6853,14.0349,14.2989,14.4559,14.2062,14.092,14.2276,14.0564,13.9921,14.0849,14.1848,14.2847,14.3846,14.4417,14.5772,14.7913,14.8912,14.9697,15.0208,15.0208,14.8567,14.5701,14.8781,14.8496,14.5772,14.8852,14.9138,0.0,14.9423,14.9066,14.7497,14.9494,15.0208,15.0208,15.0208,15.0208,15.0208,15.0208,14.997,14.9601,14.9601,14.8878,14.8128,14.8778,14.9164,14.9164,14.7932,14.7389,14.713,14.6889,14.5872,14.4679,14.3812,14.2898,14.1968,14.123,14.1087,14.1032,14.092,14.092,14.092,14.092,14.092,14.092,14.092,14.092,14.092,14.092,14.092,14.092,14.092,14.092,14.092,14.092,14.092,14.092,14.092,14.092,14.092,14.092,14.0582,14.0525,14.092,14.0582,14.0525,14.092,14.092,14.0752,14.0281,14.0752,14.0695,10.7453,11.2513,11.7421,11.8678,11.6513,11.2736,10.7599,10.4031,10.0464,9.5683,9.4684,9.554,9.8252,10.0036,10.396,11.2879,11.5662,12.0228,13.0289,13.1645,13.3571,13.8851,14.1705,14.406,14.6129,14.3489,14.2276,14.3917,14.2062,14.1277,14.2347,14.2918,14.4202,14.6272,14.5844,14.6628,14.8626,14.9708,15.0208,15.0208,15.0208,14.8567,14.5701,14.8781,14.8496,14.5772,14.8852,14.8496,14.5844,14.8924,14.8353,14.5915,14.8995,15.0208,15.0208,15.0208,15.0208,15.0208,15.0208,15.0208,15.0208,15.0208,14.9978,14.9551,15.0101,14.9147,14.7461,14.5973,14.5445,14.5202,14.4973,14.3945,14.2842,14.2618,14.1705,14.092,14.092,14.092,14.092,14.092,14.092,14.092,14.092,14.092,14.092,14.092,14.092,14.092,14.092,14.092,14.092,14.092,14.092,14.092,14.092,14.092,14.092,14.092,14.0752,14.0638,14.0638,13.9991,13.9874,14.0352,14.005,14.0166,14.0638,14.0638,14.0339,13.9991,14.0237,14.0166,11.7196,12.4733,13.1729,13.2217,12.719,12.0514,11.4163,10.7956,10.2176,9.7434,9.6435,9.6934,9.8466,10.0036,10.3675,11.1523,11.4092,11.7898,12.5936,12.9718,13.2786,13.5997,14.0492,14.4488,14.7556,14.7841,14.7199,14.5701,14.5558,14.563,14.563,14.4131,14.4702,14.7841,14.6414,14.7069,15.0208,15.0208,15.0208,15.0208,15.0208,14.8639,14.5772,14.8852,14.8567,14.5844,14.8924,14.8425,14.5844,14.8924,14.8353,14.5915,14.8995,15.0208,15.0208,15.0208,15.0208,15.0208,15.0208,15.0208,15.0208,15.0208,15.0446,15.0752,15.0327,14.8302,14.603,14.5687,14.4417,14.3204,14.3204,14.2062,14.092,14.092,14.092,14.092,14.092,14.092,14.092,14.092,14.092,14.092,14.092,14.092,14.092,14.092,14.092,14.092,14.092,14.092,14.092,14.092,14.092,14.092,14.092,14.092,14.092,14.092,14.0281,13.9933,13.9933,13.9339,13.8974,13.8974,13.9638,13.9933,13.9933,13.9933,13.9933,13.9933,13.9278,13.9339,11.5701,12.2823,13.0269,13.1495,12.9515,12.4866,11.6375,11.2094,10.7742,9.9679,9.8038,9.8537,10.0107,10.1677,10.5316,11.3164,11.5733,12.0656,13.193,13.4285,13.6853,14.2205,14.5059,14.563,14.3204,14.3988,14.3988,14.2419,14.3346,14.4417,14.5558,14.62,14.7485,14.9554,14.6985,14.6557,14.8626,14.8626,14.8626,14.8626,14.9708,14.978,14.8924,14.978,14.9708,14.8924,14.9851,14.7212,14.2704,14.8068,14.7128,14.2847,14.8139,15.0208,15.0208,15.0208,15.0208,15.0065,14.8983,14.8626,14.8484,14.7342,14.7231,14.7461,14.7043,14.5616,14.4102,14.3974,14.2847,14.1634,14.1634,14.1277,14.092,14.092,14.092,14.092,14.092,14.092,14.092,14.092,14.092,14.092,14.092,14.092,14.092,14.092,14.092,14.092,14.092,14.092,14.092,14.092,14.0525,14.0224,14.0224,14.0695,14.0752,14.0224,14.005,13.9756,13.9278,13.8666,13.8479,13.8974,13.8728,13.879,13.9278,13.9278,13.9278,13.9218,13.8604,13.8666,11.816,12.4268,13.0432,13.1254,13.0808,12.822,12.0585,11.6161,11.1737,10.4816,10.1391,10.0892,10.4959,10.6457,10.9739,11.7588,11.8088,12.1156,13.193,13.3999,13.6496,14.2133,14.4773,14.5487,14.3846,14.3418,14.3632,14.4559,14.5558,14.6486,14.7355,14.777,14.8983,15.1195,14.8198,14.7271,14.884,14.827,14.7627,14.6985,14.7925,14.8353,14.8353,14.8353,14.8353,14.8353,14.8353,14.5558,14.1348,14.6343,14.5487,14.142,14.6486,14.8353,14.8353,14.8353,14.8353,14.827,14.7342,14.6985,14.6842,14.5915,14.4888,14.4001,14.3831,14.3061,14.2347,14.2347,14.1634,14.092,14.092,14.092,14.092,14.092,14.092,14.092,14.092,14.092,14.092,14.092,14.092,14.092,14.092,14.092,14.092,14.092,14.092,14.0808,14.0582,14.0582,14.0467,14.0237,13.9815,13.9578,13.9578,13.9933,13.9991,13.9578,13.9339,13.9035,13.8604,13.735,13.7222,13.8164,13.7477,13.7534,13.8604,13.8604,13.8604,13.8541,13.7979,13.7693,12.2737,12.773,13.1735,13.147,13.1577,13.0432,12.5294,11.9586,11.4261,11.0524,10.5387,10.3675,11.081,11.2308,11.5162,12.3296,12.1156,12.1227,12.9004,13.143,13.407,13.8494,14.1562,14.4345,14.7199,14.4916,14.5059,14.928,14.9566,14.978,15.0208,14.8912,14.9483,15.2479,14.9697,14.884,15.0208,14.8698,14.7199,14.5844,14.5701,14.563,14.563,14.563,14.563,14.563,14.563,14.3846,14.1206,14.4345,14.3774,14.1277,14.4417,14.563,14.563,14.563,14.563,14.563,14.5487,14.5415,14.5415,14.5201,14.3275,14.092,14.092,14.092,14.092,14.092,14.092,14.092,14.092,14.092,14.092,14.092,14.092,14.092,14.092,14.092,14.092,14.092,14.092,14.092,14.092,14.092,14.0864,14.0864,14.0808,14.0638,13.9933,13.9874,13.9578,13.8851,13.8851,13.8851,13.8851,13.8913,13.8913,13.8851,13.8213,13.7763,13.7699,13.58,13.5404,13.6791,13.6053,13.6302,13.7699,13.756,13.749,13.749,13.6913,13.6148,12.2381,12.773,13.3375,13.3125,13.3215,13.1216,12.2725,11.8801,11.4663,10.6558,10.4816,10.5244,10.6957,10.924,11.3949,12.3082,12.5794,12.9004,13.5712,13.7923,13.9779,14.1991,14.2847,14.3489,14.4202,14.3632,14.3632,14.4702,14.4773,14.6414,15.0065,14.9922,15.0065,15.0838,15.0065,14.9922,15.0208,14.8698,14.777,14.7413,14.62,14.563,14.563,14.563,14.563,14.563,14.563,14.3846,14.1206,14.4345,14.3774,14.1277,14.4417,14.563,14.563,14.563,14.563,14.5415,14.4202,14.3774,14.356,14.2347,14.1491,14.092,14.092,14.092,14.092,14.092,14.092,14.092,14.092,14.092,14.092,14.092,14.092,14.092,14.092,14.092,14.092,14.092,14.092,14.092,14.092,14.092,14.0752,14.0224,14.0166,13.9933,13.9278,13.9157,13.8728,13.7591,13.7979,13.8227,13.8227,13.8666,13.8728,13.8227,13.6981,13.5902,13.5457,13.4984,13.4918,13.5196,13.5049,13.5045,13.5392,13.4206,13.358,13.358,13.3457,13.3249,12.3164,12.83,13.4035,13.4548,13.4284,13.3072,12.9575,12.5294,12.0371,11.4734,11.1809,11.0453,11.1238,11.2665,11.6375,12.4438,12.772,12.9861,13.1645,13.7139,14.0706,13.9993,14.1206,14.3346,14.6343,14.3917,14.3346,14.6414,14.6628,14.7699,15.0136,15.0208,15.0636,15.148,15.0636,15.0208,15.0208,14.8698,14.7199,14.5701,14.4845,14.406,14.3346,14.3346,14.3346,14.3346,14.3346,14.2419,14.1063,14.2704,14.2419,14.1063,14.2704,14.3346,14.3346,14.3346,14.3346,14.3275,14.2419,14.2133,14.1991,14.1206,14.092,14.092,14.092,14.092,14.092,14.092,14.092,14.092,14.092,14.092,14.092,14.092,14.092,14.092,14.092,14.092,14.092,14.092,14.0695,14.0467,14.0467,14.0237,13.9874,13.9519,13.9519,13.9278,13.8604,13.8227,13.7786,13.7135,13.733,13.7591,13.7591,13.7152,13.6797,13.6477,13.5014,13.3917,13.36,13.2906,13.2906,13.36,13.2906,13.2906,13.36,13.2074,13.1311,13.1311,13.0548,13.0201,12.4729,12.9511,13.4588,13.567,13.5281,13.5212,13.6996,13.2215,12.6721,12.4581,12.0228,11.6828,11.7374,11.766,11.98,12.5936,12.8291,12.8719,12.7221,13.5069,14.0064,13.7781,13.9779,14.3703,14.9637,14.563,14.4702,14.9851,14.9494,14.8995,14.8995,14.8995,15.0053,15.2265,15.1052,15.0208,15.0208,14.9268,14.7199,14.406,14.406,14.3132,14.1348,14.1348,14.1063,14.0564,14.0849,14.0778,14.0564,14.0849,14.092,14.092,14.092,14.092,14.092,14.092,14.092,14.092,14.092,14.092,14.092,14.092,14.092,14.092,14.092,14.092,14.092,14.092,14.092,14.092,14.092,14.092,14.092,14.092,14.092,14.0864,14.0808,14.0752,14.0752,14.0638,14.0108,13.9756,13.9756,13.9339,13.8913,13.879,13.879,13.8541,13.7909,13.7395,13.7068,13.7068,13.6791,13.6652,13.6652,13.5196,13.4294,13.4294,13.2837,13.2005,13.2005,13.0826,13.0756,13.2005,13.0548,13.0409,13.1589,12.9854,12.9022,12.8953,12.7704,12.708,12.7077,13.1933,13.5943,13.5884,13.692,13.7067,13.3357,13.0646,12.772,12.3368,12.294,12.2083,11.8159,11.8516,12.1084,12.615,12.8291,13.1002,13.6068,13.9208,14.1277,14.2205,14.2704,14.4845,14.978,14.9494,14.9352,15.0208,14.6486,14.4202,14.4202,14.4202,14.62,15.0422,15.035,15.0208,15.0208,15.1552,15.0481,14.7271,14.7271,14.5772,14.2918,14.2918,14.1491,13.8938,14.0349,14.0135,13.9065,14.0349,14.092,14.092,14.092,14.092,14.092,14.092,14.092,14.092,14.092,14.092,14.092,14.092,14.092,14.092,14.092,14.092,14.092,14.092,14.092,14.092,14.092,14.092,14.092,14.092,14.092,14.0752,14.0166,14.005,13.9933,13.9339,13.9157,13.9096,13.9096,13.9035,13.879,13.8227,13.81,13.7979,13.7198,13.7135,13.7068,13.7068,13.5889,13.5057,13.5057,13.36,13.2698,13.2698,13.1311,13.0479,13.0479,13.034,13.034,13.0479,12.9022,12.8328,12.8467,12.5554,12.4166,12.4166,12.3958,12.3819,12.208,12.7801,13.3589,13.4405,13.4991,13.5133,13.423,13.2788,13.0864,12.7955,12.5936,12.3368,11.9443,11.716,11.7945,12.4581,12.6222,12.9147,13.6282,13.7852,13.9565,14.2847,14.249,14.4131,14.9708,14.9483,14.827,14.6486,14.6842,14.7199,14.7199,14.7199,14.8127,15.0208,15.0208,15.0208,15.0208,15.1052,15.0196,14.7913,14.7057,14.5415,14.3204,14.2347,14.1206,13.9921,14.0635,14.0564,13.9993,14.0635,14.092,14.092,14.092,14.092,14.092,14.092,14.092,14.092,14.092,14.092,14.092,14.092,14.092,14.092,14.092,14.092,14.092,14.092,14.0808,14.0638,14.0467,14.0295,14.0121,13.9945,13.9815,13.9756,13.9459,13.9399,13.9339,13.9035,13.8666,13.8416,13.8416,13.81,13.7786,13.7526,13.7461,13.733,13.7135,13.7068,13.7068,13.7068,13.6444,13.6028,13.6028,13.3808,13.2352,13.2352,13.0201,12.8536,12.7635,12.7635,12.7218,12.6317,12.5623,12.5276,12.5276,12.3056,12.2432,12.3195,12.2432,12.2918,11.7802,12.3648,12.9976,13.1969,13.2803,13.3743,13.5599,13.5101,13.3945,13.3,13.0003,12.6436,12.2797,11.9301,11.8872,12.4795,12.6079,12.9076,13.6925,13.8352,13.9779,14.2847,14.2205,14.2918,14.6356,14.67,14.5772,14.3418,14.6486,14.8341,14.7913,14.8211,14.884,14.9637,14.9994,15.0208,15.0208,14.9851,14.9126,14.7913,14.7199,14.5986,14.4345,14.2419,14.1277,14.092,14.092,14.0706,14.0349,14.0778,14.092,14.092,14.092,14.092,14.092,14.092,14.092,14.092,14.092,14.092,14.092,14.092,14.092,14.092,14.092,14.0864,14.0808,14.0808,14.0596,14.0237,13.9991,13.9768,13.954,13.9228,13.9157,13.9157,13.879,13.879,13.886,13.8541,13.8037,13.7716,13.7716,13.733,13.7068,13.7068,13.7068,13.7068,13.7068,13.7068,13.7068,13.7068,13.6722,13.6444,13.6444,13.36,13.1658,13.1242,12.8744,12.6594,12.5068,12.4999,12.4444,12.3265,12.3195,12.3056,12.264,12.1947,12.2016,12.264,12.1947,12.2848,11.7588,12.2226,12.5651,12.8719,13.1663,13.4302,13.5926,13.6211,13.614,13.5997,13.5854,13.4285,12.9647,12.8576,12.8576,12.8933,13.0289,13.3928,14.1776,14.4202,14.4702,14.3418,14.3204,14.1491,13.7353,14.092,14.3418,14.3275,14.3489,14.2989,14.1491,14.2775,14.4987,14.7984,14.9483,15.0208,15.0208,14.8769,14.7984,14.7913,14.934,14.9268,14.7556,14.4488,14.2347,14.092,14.092,14.0135,13.8796,14.0349,14.092,14.092,14.092,14.092,14.092,14.092,14.092,14.092,14.092,14.092,14.092,14.092,14.092,14.092,14.092,14.0695,14.0596,14.0596,14.0133,13.9649,13.9874,13.9768,13.96,13.954,13.9768,13.9578,13.8353,13.836,13.8297,13.7399,13.7135,13.7135,13.7135,13.7068,13.7068,13.7068,13.7068,13.7068,13.7068,13.7068,13.7068,13.7068,13.5751,13.4783,13.4783,13.2074,12.9716,12.8259,12.6594,12.4999,12.3403,12.3334,12.3265,12.3195,12.3195,12.2571,12.1184,12.2501,12.2432,12.1184,12.2501,12.3195,10.9311,11.3599,11.8492,11.9632,12.4394,12.9035,12.9691,13.0669,13.179,13.3,13.086,12.8576,12.7863,12.6079,12.5366,12.7435,12.822,13.1359,13.9208,13.8994,14.0135,14.563,14.1848,14.0492,14.4845,14.406,14.1562,13.7567,14.3774,14.7057,14.5487,14.5986,14.6771,14.7913,14.7485,14.777,14.8769,14.8198,14.8412,14.9483,14.8983,14.8484,14.7841,14.4702,14.2918,14.2276,14.0349,13.9136,13.8511,13.8138,13.7923,13.7923,13.7923,13.7923,13.8066,13.9065,13.9422,13.9279,13.828,13.7923,13.7923,13.7923,13.7923,13.7923,13.7923,13.7869,13.7703,13.7311,13.6911,13.6656,13.7093,13.7006,13.6974,13.7769,13.8043,13.7979,13.7461,13.7461,13.753,13.7135,13.7068,13.7068,13.7068,13.7068,13.7068,13.7068,13.7267,13.7399,13.7399,13.7201,13.7068,13.7068,13.6514,13.5404,13.3392,13.2213,13.0132,12.6663,12.59,12.4444,12.1947,12.1808,12.1392,12.0351,12.0351,12.0074,11.9588,12.0074,12.0629,12.1045,12.0559,12.0906,10.553,10.7898,11.1398,11.3462,11.8584,12.3581,12.5349,12.6915,12.8462,12.9738,12.7577,12.5865,12.7435,12.5936,12.5366,12.8077,12.8933,13.1502,13.7781,13.7281,13.8637,14.4845,14.0992,13.9208,14.2847,14.2775,14.1634,13.9636,14.6142,14.9625,14.7984,14.7913,14.7699,14.7128,14.6129,14.6129,14.7128,14.7128,14.7699,14.8639,14.7627,14.6842,14.6272,14.3632,14.2775,14.3132,14.0492,13.9136,13.8566,13.7495,13.6711,13.6282,13.6282,13.6282,13.6354,13.7424,13.7495,13.6996,13.6425,13.6282,13.6282,13.6282,13.6103,13.5939,13.5939,13.5718,13.5382,13.4982,13.4575,13.437,13.4874,13.5128,13.5507,13.6291,13.6916,13.7264,13.7135,13.7135,13.7201,13.7068,13.7068,13.7068,13.7068,13.7068,13.7135,13.7201,13.7465,13.7661,13.7791,13.7526,13.7121,13.6634,13.6565,13.5522,13.288,13.2121,13.0112,12.6014,12.5129,12.3473,12.0421,12.0282,11.9588,11.7993,11.8478,11.827,11.723,11.827,11.9033,11.9519,11.8964,11.9311,10.7242,10.5958,10.5173,11.1238,11.5162,11.8801,12.3439,12.5722,12.6864,12.6864,12.6864,12.7363,12.8862,12.9147,12.9647,13.1216,13.2786,13.4927,13.8011,13.9921,14.092,14.092,14.092,13.7852,13.0289,13.6568,14.356,14.9423,15.0065,14.9554,14.7984,14.7913,14.7199,14.5701,14.5558,14.5558,14.5558,14.5558,14.5558,14.563,14.563,14.4773,14.3275,14.1776,14.1848,14.3132,14.1562,13.9993,13.8582,13.8511,13.7638,13.6211,13.6211,13.614,13.614,13.614,13.5158,13.4017,13.5515,13.6086,13.6086,13.6086,13.5686,13.5112,13.5112,13.448,13.3839,13.3839,13.3352,13.2986,13.3438,13.443,13.5292,13.5362,13.667,13.785,13.7132,13.7333,13.7465,13.7135,13.7068,13.7068,13.7068,13.7068,13.7201,13.753,13.7596,13.7726,13.7973,13.7967,13.7344,13.5743,13.5603,13.4975,13.3368,13.1585,12.924,12.6176,12.4138,12.1738,11.8825,11.8686,11.7993,11.6467,11.7993,11.7299,11.4261,11.723,11.7923,11.6467,11.7923,11.8548,10.7641,10.9097,11.0596,11.2308,11.6803,12.1156,12.2511,12.4081,12.5223,12.5223,12.5223,12.5366,12.5794,12.5865,12.6793,12.9504,13.0289,13.1645,13.4784,13.8566,14.092,14.092,13.9921,13.8423,13.6211,14.1063,14.3632,14.1934,14.6058,14.8412,14.7913,14.7913,14.7199,14.5701,14.4488,14.3917,14.3917,14.3917,14.4488,14.563,14.563,14.5415,14.4916,14.4559,14.3917,14.3061,14.0421,13.9065,13.8439,13.7353,13.5997,13.457,13.457,13.3856,13.2947,13.364,13.2631,13.084,13.132,13.1644,13.1938,13.1938,13.1867,13.1922,13.1922,13.1756,13.1476,13.1089,13.17,13.2586,13.3343,13.443,13.5571,13.6691,13.7117,13.7264,13.7135,13.7135,13.7267,13.7399,13.7465,13.753,13.7721,13.7786,13.7786,13.7915,13.8107,13.7877,13.6881,13.6741,13.5986,13.4199,13.3997,13.2879,13.0354,12.9605,12.7461,12.3101,12.1244,11.9333,11.716,11.7091,11.6883,11.6467,11.7993,11.8339,11.7507,11.723,11.6883,11.6397,11.4663,11.3831,10.4584,10.4205,10.4734,10.6722,11.1255,11.5448,11.609,11.9515,12.2155,12.087,12.1655,12.294,12.4295,12.401,12.4581,12.7792,12.8862,13.0146,13.2643,13.6425,13.9493,14.0778,13.9565,13.9081,14.0421,14.2989,14.3774,14.1705,14.4916,14.7271,14.7913,14.7342,14.6557,14.563,14.406,14.2918,14.2276,14.2276,14.2704,14.3632,14.3632,14.3632,14.3632,14.3632,14.3132,14.2205,14.0349,13.9208,13.8566,13.7638,13.6354,13.4927,13.4927,13.3768,13.2182,13.2359,13.1536,13.0315,13.0315,13.0371,13.0371,13.0371,13.0315,13.026,13.026,13.0092,12.9808,12.9534,13.054,13.1884,13.2434,13.3515,13.4786,13.5693,13.571,13.5656,13.6282,13.6491,13.6695,13.7651,13.7721,13.7786,13.7973,13.7973,13.7681,13.6671,13.6778,13.6549,13.5635,13.5565,13.5093,13.3928,13.3237,13.1625,12.8599,12.7513,12.5648,12.212,12.0275,11.8851,11.7834,11.7665,11.6983,11.5733,11.6454,11.6189,11.4941,11.4039,11.3623,11.3553,11.1819,11.0293,9.9717,9.5836,9.4508,9.8871,10.2729,10.5888,0.0,11.3314,11.7566,11.4831,11.6518,11.9301,12.2155,12.1798,12.2035,12.5366,12.7363,12.9147,13.1074,13.3856,13.6853,13.9779,13.9279,13.9779,14.2704,14.2989,14.3632,14.5273,14.5344,14.6058,14.7556,14.6343,14.5273,14.4559,14.3703,14.2276,14.0207,14.0706,14.092,14.092,14.092,14.092,14.092,14.092,14.092,14.092,14.092,14.0135,13.8851,13.8851,13.7852,13.6282,13.6282,13.469,13.2277,13.147,13.0848,13.0438,13.0438,13.0205,12.9986,13.0128,13.0007,12.9892,13.0033,12.9558,12.9006,12.9006,12.9845,13.0894,13.1244,13.2434,13.3631,13.4043,13.3989,13.4206,13.5603,13.5883,13.6365,13.7827,13.7897,13.789,13.789,13.7751,13.6889,13.4831,13.4527,13.4457,13.4316,13.4316,13.4175,13.4034,13.2779,13.0737,12.778,12.56,12.3747,12.2274,12.0246,11.9031,11.9016,11.8615,11.7179,11.4516,11.4065,11.2637,10.993,10.953,10.9391,10.9322,10.9183,10.7657,0.0,0.0,0.0,0.0,0.0,0.0,0.0,10.8184,10.9288,10.9394,10.9882,11.0568,11.1211,11.3093,11.559,11.873,12.1655,12.4937,12.9147,13.1288,13.3214,13.5069,13.7281,13.9351,14.1206,14.1348,14.2062,14.356,14.3703,14.4417,14.5986,14.5772,14.3275,13.8209,14.142,14.0706,13.5355,13.9065,14.092,14.092,14.092,14.092,14.092,14.092,14.092,14.092,14.092,14.0778,14.0492,14.0492,13.878,13.6282,13.6282,13.312,12.8554,12.8382,12.7132,12.5584,12.5584,12.5684,12.5937,12.7202,12.8652,13.0103,13.1371,13.0762,12.9649,12.9649,12.8946,12.8806,13.1337,13.2927,13.4498,13.7014,13.7324,13.7204,13.7484,13.7554,13.7751,13.8353,13.7505,13.6725,13.7032,13.5977,13.5053,13.4539,13.4527,13.4105,13.2779,13.2638,13.2145,13.0878,13.0526,12.954,12.7639,12.4838,12.2478,12.066,11.7871,11.5609,11.4191,11.4016,11.3736,11.3178,11.279,11.2405,11.1848,10.9081,10.7796,10.7726,10.6478,10.5525,0.0,0.0,0.0,0.0,0.0,0.0,0.0,0.0,0.0,0.0,0.0,10.5992,10.7755,0.0,11.1856,11.4617,11.9015,12.294,12.5366,12.9076,13.1573,13.1573,13.4356,13.6925,13.8423,13.9993,14.092,14.092,14.092,14.1634,14.3204,14.1063,13.8708,13.6354,13.8494,13.7923,13.3999,13.8566,14.092,14.092,14.092,14.092,14.092,14.092,14.092,14.092,14.0135,13.9779,13.9707,13.8922,13.7155,13.4711,13.3036,13.0046,12.6655,12.5948,12.534,12.4813,12.404,12.4251,12.5164,12.671,12.7878,12.8977,13.0526,13.0455,12.9822,12.9822,12.9822,13.0033,13.0807,13.1465,13.2122,13.2895,13.2354,13.2025,13.3638,13.3919,13.4471,13.6198,13.5917,13.5415,13.5665,13.3694,13.2145,13.2145,13.0973,12.9775,12.8946,12.7569,12.6864,12.7635,12.505,12.4515,12.73,12.2023,11.8745,11.9137,11.6239,11.4431,11.4277,11.3472,11.2528,11.1758,11.0751,10.9828,10.9061,10.7203,10.6336,10.6267,10.3993,10.2832,0.0,0.0,0.0,0.0,0.0,0.0,0.0,0.0,0.0,0.0,0.0,0.0,0.0,0.0,0.0,11.1319,11.6589,12.0728,12.1892,12.6222,12.9076,12.8434,13.086,13.3286,13.5141,13.7638,13.8851,13.8209,13.7797,13.8494,14.0421,13.6568,13.457,13.4927,13.5783,13.5212,13.3072,13.7709,14.0064,14.0064,14.0064,0.0,14.0492,14.0492,14.0135,13.9565,13.8922,13.7869,13.6782,13.6014,13.464,13.2715,12.8911,12.6411,12.48,12.395,12.4217,12.4852,12.358,12.3843,12.4894,12.6161,12.6794,12.7358,12.8906,12.9188,0.0,12.9329,12.9892,13.0315,12.9963,12.9822,12.9681,12.9047,12.7921,12.7639,13.0174,13.0244,13.0807,13.3964,13.3823,13.3401,13.3905,13.0318,12.7151,12.6579,12.4505,12.3015,12.3015,12.1476,12.1198,12.3592,12.0168,11.9854,12.5407,11.8684,11.5121,11.7252,11.3877,11.2075,11.2827,11.1758,11.0358,10.8647,10.693,10.5743,10.4913,10.4389,10.4291,10.4401,10.0207,9.8696,0.0,0.0,0.0,0.0,0.0,0.0,0.0,0.0,0.0,0.0,0.0,0.0,0.0,0.0,0.0,0.0,11.1523,11.5733,12.1298,12.1513,12.2083,12.4795,12.665,12.8862,13.1787,13.2429,13.3714,13.6354,13.5212,13.5783,13.8708,13.7067,0.0,0.0,0.0,13.4142,12.9861,13.4427,13.6782,13.6782,13.6782,13.7495,13.8867,13.8867,13.7353,13.4855,13.7495,13.5498,13.0503,13.293,13.2911,13.1008,12.5862,12.2733,12.1216,12.2467,12.303,12.3117,12.2906,0.0,0.0,12.3274,12.426,12.5738,12.7287,12.6794,12.602,12.7358,12.5879,12.4823,12.8836,12.9822,13.0526,13.3119,13.3612,13.3612,13.3964,13.1793,13.0807,13.3964,13.1159,12.9188,13.2004,12.4545,11.7428,11.4866,11.4199,11.4013,11.4013,11.596,11.7421,11.7831,11.9485,0.0,11.9953,11.6026,11.3979,11.4727,10.8969,10.4498,10.1974,10.3227,10.297,10.0859,9.9575,9.999,10.2118,10.0532,10.0252,10.1151,9.2824,9.1318,0.0,0.0,0.0,0.0,0.0,0.0,0.0,0.0,0.0,0.0,0.0,0.0,0.0,0.0,0.0,0.0,10.6757,11.1553,11.4177,11.4387,11.5804,11.9943,12.2583,12.4652,12.5936,12.8576,13.0432,13.0788,13.193,13.3143,13.4427,13.2215,13.036,12.929,13.1145,13.0788,12.7934,13.3428,13.5783,13.4927,13.4927,13.5283,13.5854,13.4837,13.3589,13.2307,13.2573,13.1239,12.8822,12.9071,12.8113,12.6269,0.0,0.0,0.0,0.0,12.0951,12.0036,11.9121,11.8769,11.8909,11.9825,12.1233,12.2781,12.433,12.4964,12.5316,12.595,12.5246,12.4401,12.5527,12.5809,12.5879,12.6302,12.6372,12.6654,12.7498,12.6654,12.6204,12.7687,12.6382,0.0,12.5701,12.2157,11.8932,11.7701,11.6122,11.501,11.501,11.4637,11.4979,11.6651,11.4507,11.4442,11.8,11.1702,0.0,0.0,0.0,10.4127,10.3173,10.3061,0.0,0.0,0.0,9.6137,9.7788,9.4231,0.0,0.0,9.0692,8.8786,0.0,0.0,0.0,0.0,0.0,0.0,0.0,0.0,0.0,0.0,0.0,0.0,0.0,0.0,0.0,0.0,10.152,10.5108,10.4923,10.7173,11.0372,11.42,11.7586,11.9864,12.029,12.379,12.5865,12.5651,12.7292,12.8933,13.0217,12.772,12.7007,12.8576,12.8597,12.7975,12.6834,13.1202,13.2912,13.1896,13.1896,13.211,13.2466,13.1186,13.0083,12.9124,12.8627,12.751,12.5879,12.5348,12.4128,12.2309,11.9196,11.7917,11.7917,11.7917,11.7499,11.6732,11.5616,11.5198,11.5391,11.6536,11.7624,11.8923,12.0422,12.1725,12.2711,12.3133,12.3274,12.3009,12.1853,12.1657,12.1377,11.9745,11.941,11.987,12.0919,12.0849,12.0776,12.1847,12.0803,11.8962,11.6757,11.6364,11.6157,11.5277,11.3431,11.1972,11.1839,11.0694,11.0583,11.2465,10.9155,10.8906,11.4103,10.7234,10.4424,10.8569,10.4699,10.2658,10.36,10.1432,10.013,10.0164,9.5015,9.3368,0.0,0.0,0.0,0.0,0.0,0.0,0.0,0.0,0.0,0.0,0.0,0.0,0.0,0.0,0.0,0.0,0.0,0.0,0.0,0.0,0.0,0.0,0.0,0.0,9.448,10.0551,10.5742,10.7412,11.114,11.4222,11.5913,11.7089,11.9015,12.2012,12.0942,12.2155,12.6864,12.558,12.5366,12.6935,12.6753,12.665,12.6579,12.6391,12.6462,12.6792,12.6792,12.7575,12.8998,12.8998,12.7063,12.3983,12.7155,12.4975,11.9517,12.2236,12.2414,12.0335,11.4003,11.1526,11.1526,11.1526,11.2408,11.3692,11.3624,11.3624,11.3599,11.3652,11.3691,11.3983,11.5609,11.6093,11.6445,11.7994,11.8417,11.8382,11.8372,11.8617,11.8443,11.6805,11.6682,11.6927,11.6996,11.571,11.5452,11.8522,11.4464,10.9294,10.5213,10.449,10.3568,10.0671,10.0147,0.0,9.9255,10.147,10.2825,10.2202,10.4453,10.6064,10.6265,10.2919,10.1695,10.3885,9.9331,9.7493,9.9298,9.4915,9.2972,9.3952,9.1093,9.179,9.6374,0.0,0.0,0.0,0.0,0.0,0.0,0.0,0.0,0.0,0.0,0.0,0.0,0.0,0.0,0.0,0.0,0.0,0.0,0.0,0.0,0.0,0.0,0.0,0.0,9.7036,10.1867,10.509,10.6887,10.8027,10.8586,10.9918,11.117,11.2152,11.5539,11.8275,11.9889,12.0434,12.0995,12.1487,12.1432,12.0886,11.985,12.1169,12.1359,12.0441,12.0028,12.0132,12.0537,11.8421,11.6793,11.5652,11.6584,11.5778,11.3928,11.4903,11.4914,11.4247,11.2033,11.1207,11.1207,11.1207,11.1478,11.1817,11.08,11.0461,11.0387,11.0332,11.1055,11.1993,11.2465,11.3326,11.4072,11.3649,11.3755,11.395,11.3963,11.416,11.4219,11.3683,11.3683,11.3743,11.3743,11.3273,11.2903,11.3124,10.9038,10.495,10.3634,10.4871,10.4928,10.1529,10.2627,10.3656,10.3449,10.4284,10.4794,10.4517,10.4914,10.5199,10.5199,10.2743,10.1708,10.2952,9.9668,9.7785,9.7955,9.556,9.3949,9.3463,9.3193,9.0968,8.6783,0.0,0.0,0.0,0.0,0.0,0.0,0.0,0.0,0.0,0.0,0.0,0.0,0.0,0.0,0.0,0.0,0.0,0.0,0.0,0.0,0.0,0.0,0.0,0.0,0.0,0.0,10.1687,10.3785,0.0,10.393,10.5231,10.5733,10.4674,10.8281,11.1195,11.2914,11.3775,11.4967,11.6687,11.6401,11.5687,11.4721,11.6054,11.6226,11.5326,11.4897,11.4715,11.4647,11.2555,11.1557,11.1436,11.1261,11.1207,11.101,10.8752,10.784,10.7707,10.6771,10.6037,10.5437,10.4432,10.4365,10.4699,10.3703,10.3975,10.4779,10.4716,10.5085,10.542,10.5117,10.563,10.6241,10.5406,10.5997,10.6755,10.6286,10.7564,10.8775,10.8357,10.8829,10.9228,10.9228,10.87,10.7791,10.6634,10.2715,9.9711,10.0102,10.1405,10.1461,9.8664,10.0597,10.2391,10.2555,10.3447,10.4017,10.3728,10.3218,10.2924,10.2924,10.1583,10.0942,10.1518,9.9362,9.7536,9.6686,9.5281,9.4007,9.2922,9.1816,8.8403,0.0,0.0,0.0,0.0,0.0,0.0,0.0,0.0,0.0,0.0,0.0,0.0,0.0,0.0,0.0,0.0,0.0,0.0,0.0,0.0,0.0,0.0,0.0,0.0,0.0,0.0,0.0,9.6944,10.1469,0.0,0.0,0.0,0.0,9.9297,9.9228,10.133,10.5905,10.5497,10.7204,11.184,11.1233,11.0952,11.096,11.0936,11.1003,11.13,11.124,11.124,11.124,11.1172,11.099,11.069,11.069,11.069,11.024,10.4024,10.1424,10.1166,9.8457,9.6461,9.4787,9.2082,9.1889,9.3113,9.3113,9.498,9.7363,9.7363,9.6583,9.5441,9.4619,9.4064,0.0,0.0,9.573,9.7437,9.6491,9.945,10.2463,10.1601,10.2652,10.3833,10.3833,10.2062,10.0233,9.9435,9.6002,9.3425,9.4095,0.0,9.2972,9.1361,9.3623,9.5689,9.6031,9.8706,10.014,9.9418,9.9345,9.9345,9.9272,9.9272,9.9335,9.9398,9.8076,9.6691,9.5299,9.4047,9.2808,9.1827,8.7315,0.0,0.0,0.0,0.0,0.0,0.0,0.0,0.0,0.0,0.0,0.0,0.0,0.0,0.0,0.0,0.0,0.0,0.0,0.0,0.0,0.0,0.0,0.0,0.0,0.0,0.0,8.6137,9.0803,9.1379,9.3665,9.4189,0.0,0.0,0.0,0.0,0.0,0.0,9.572,9.5623,9.6397,9.8563,10.0421,10.1848,10.26,10.5539,10.7061,10.7061,10.6531,10.6263,10.6197,10.4945,10.4352,10.4218,10.4218,10.4218,10.3759,9.8085,9.5755,9.5755,9.5234,9.3545,9.1149,9.0194,9.0134,9.0396,9.0212,9.2018,9.4401,9.4401,9.4915,9.5424,9.5205,0.0,0.0,0.0,0.0,9.2944,9.5633,9.7401,9.9167,10.2128,10.2192,10.1604,10.1931,9.8668,9.5617,9.5418,9.2395,8.9013,8.6036,8.7374,0.0,8.2952,8.7722,9.1713,9.1487,9.496,9.7352,9.68,9.6729,9.6659,9.6376,9.6376,9.6817,9.7887,9.6628,9.5613,9.5236,9.4047,9.1218,8.6873,0.0,0.0,0.0,0.0,0.0,0.0,0.0,0.0,0.0,0.0,0.0,0.0,0.0,0.0,0.0,0.0,0.0,0.0,0.0,0.0,0.0,0.0,0.0,0.0,0.0,0.0,0.0,8.0054,8.4657,8.6042,8.7996,8.8169,0.0,0.0,0.0,0.0,0.0,0.0,0.0,0.0,0.0,9.3332,9.4035,9.4977,9.6236,9.9121,10.0624,10.0624,10.1465,10.1848,10.1783,10.0668,10.0145,10.0013,9.8718,9.787,9.7216,9.3629,9.2153,9.1957,0.0,0.0,0.0,0.0,8.4218,8.514,8.4965,8.7124,8.9936,8.9936,0.0,0.0,0.0,0.0,0.0,0.0,0.0,8.8886,9.1174,9.429,9.7548,10.0161,9.9445,9.8471,9.9841,9.2601,8.6303,8.7946,8.5296,8.2227,8.0112,8.1108,0.0,0.0,0.0,8.7046,8.6769,9.1408,9.4439,9.3602,9.354,9.3829,9.4403,9.4474,9.5134,9.6863,9.5598,9.4002,9.2257,9.2,8.8926,0.0,0.0,0.0,0.0,0.0,0.0,0.0,0.0,0.0,0.0,0.0,0.0,0.0,0.0,0.0,0.0,0.0,0.0,0.0,0.0,0.0,0.0,0.0,0.0,0.0,0.0,0.0,0.0,0.0,7.6988,8.0469,0.0,0.0,0.0,0.0,0.0,0.0,0.0,0.0,0.0,0.0,0.0,0.0,0.0,8.9414,9.0582,9.2581,9.3485,9.3291,9.5881,9.7048,9.7048,9.6594,9.6529,9.653,9.3565,0.0,9.1062,8.9663,0.0,0.0,0.0,0.0,0.0,0.0,0.0,0.0,0.0,0.0,0.0,0.0,0.0,0.0,0.0,0.0,0.0,0.0,0.0,0.0,0.0,0.0,9.5081,9.5662,9.4621,9.3915,9.5363,8.4731,7.6049,7.9433,7.7336,7.5133,0.0,0.0,0.0,0.0,0.0,0.0,8.2343,8.7927,9.1481,9.0461,9.0221,9.0783,9.2413,9.2632,9.3405,9.5264,9.3833,9.1344,8.7763,8.8821,0.0,0.0,0.0,0.0,0.0,0.0,0.0,0.0,0.0,0.0,0.0,0.0,0.0,0.0,0.0,0.0,0.0,0.0,0.0,0.0,0.0,0.0,0.0,0.0,0.0,0.0,0.0,0.0,0.0,0.0,0.0,0.0,0.0,0.0,0.0,0.0,0.0,0.0,0.0,0.0,0.0,0.0,0.0,0.0,0.0,0.0,0.0,0.0,0.0,0.0,8.8646,8.8963,8.8899,8.8513,8.8898,8.9724,8.7815,8.7061,8.6987,8.4539,0.0,0.0,0.0,0.0,0.0,0.0,0.0,0.0,0.0,0.0,0.0,0.0,0.0,0.0,0.0,0.0,0.0,0.0,0.0,0.0,0.0,0.0,8.4572,8.6868,8.6872,8.5295,8.1415,0.0,0.0,0.0,0.0,0.0,0.0,0.0,0.0,0.0,0.0,0.0,7.9733,8.481,8.8534,8.9066,8.8299,8.771,8.7697,8.799,8.8693,8.9918,8.7345,8.5354,0.0,0.0,0.0,0.0,0.0,0.0,0.0,0.0,0.0,0.0,0.0,0.0,0.0,0.0,0.0,0.0,0.0,0.0,0.0,0.0,0.0,0.0,0.0,0.0,0.0,0.0,0.0,0.0,0.0,0.0,0.0,0.0,0.0,0.0,0.0,0.0,0.0,0.0,0.0,0.0,0.0,0.0,0.0,0.0,0.0,0.0,0.0,0.0,0.0,0.0,0.0,0.0,0.0,0.0,0.0,0.0,0.0,0.0,8.1668,7.8139,0.0,0.0,0.0,0.0,0.0,0.0,0.0,0.0,0.0,0.0,0.0,0.0,0.0,0.0,0.0,0.0,0.0,0.0,0.0,0.0,0.0,0.0,0.0,0.0,0.0,0.0,0.0,0.0,0.0,0.0,0.0,0.0,0.0,0.0,0.0,0.0,0.0,0.0,0.0,0.0,7.6993,8.1915,8.5369,8.5195,8.4843,8.5026,8.5853,8.6225,8.6442,8.6178,8.4187,0.0,0.0,0.0,0.0,0.0,0.0,0.0,0.0,0.0,0.0,0.0,0.0,0.0,0.0,0.0,0.0,0.0,0.0,0.0,0.0,0.0,0.0,0.0,0.0,0.0,0.0,0.0,0.0,0.0,0.0,0.0,0.0,0.0,0.0,0.0,0.0,0.0,0.0,0.0,0.0,0.0,0.0,0.0,0.0,0.0,0.0,0.0,0.0,0.0,0.0,0.0,0.0,0.0,0.0,0.0,0.0,0.0,0.0,0.0,7.648,7.1084,0.0,0.0,0.0,0.0,0.0,0.0,0.0,0.0,0.0,0.0,0.0,0.0,0.0,0.0,0.0,0.0,0.0,0.0,0.0,0.0,0.0,0.0,0.0,0.0,0.0,0.0,0.0,0.0,0.0,0.0,0.0,0.0,0.0,0.0,0.0,0.0,0.0,0.0,0.0,0.0,7.4987,7.9676,8.273,8.2029,8.1933,8.2664,8.4186,8.4646,8.403,8.2213,8.0751,0.0,0.0,0.0,0.0,0.0,0.0,0.0,0.0,0.0,0.0,0.0,0.0,0.0,0.0,0.0,0.0,0.0,0.0,0.0,0.0,0.0,0.0,0.0,0.0,0.0,0.0,0.0,0.0,0.0,0.0,0.0,0.0,0.0,0.0,0.0,0.0,0.0,0.0,0.0,0.0,0.0,0.0,0.0,0.0,0.0,0.0,0.0,0.0,0.0,0.0,0.0,0.0,0.0,0.0,0.0,0.0,0.0,0.0,0.0,0.0,0.0,0.0,0.0,0.0,0.0,0.0,0.0,0.0,0.0,0.0,0.0,0.0,0.0,0.0,0.0,0.0,0.0,0.0,0.0,0.0,0.0,0.0,0.0,0.0,0.0,0.0,0.0,0.0,0.0,0.0,0.0,0.0,0.0,0.0,0.0,0.0,0.0,0.0,0.0,0.0,0.0,7.4903,7.8688,8.1541,8.2077,8.1242,8.0712,8.09,8.1305,7.9891,7.6139,0.0,0.0,0.0,0.0,0.0,0.0,0.0,0.0,0.0,0.0,0.0,0.0,0.0,0.0,0.0,0.0,0.0,0.0,0.0,0.0,0.0,0.0,0.0,0.0,0.0,0.0,0.0,0.0,0.0,0.0,0.0,0.0,0.0,0.0,0.0,0.0,0.0,0.0,0.0,0.0,0.0,0.0,0.0,0.0,0.0,0.0,0.0,0.0,0.0,0.0,0.0,0.0,0.0,0.0,0.0,0.0,0.0,0.0,0.0,0.0,0.0,0.0,0.0,0.0,0.0,0.0,0.0,0.0,0.0,0.0,0.0,0.0,0.0,0.0,0.0,0.0,0.0,0.0,0.0,0.0,0.0,0.0,0.0,0.0,0.0,0.0,0.0,0.0,0.0,0.0,0.0,0.0,0.0,0.0,0.0,0.0,0.0,0.0,0.0,0.0,0.0,0.0,7.2621,7.8062,8.1162,7.9607,8.0885,8.1106,7.923,8.0545,7.861,7.1998,0.0,0.0,0.0,0.0,0.0,0.0,0.0,0.0,0.0,0.0,0.0,0.0,0.0,0.0,0.0,0.0,0.0,0.0,0.0,0.0,0.0,0.0,0.0,0.0,0.0,0.0,0.0,0.0,0.0,0.0,0.0,0.0,0.0,0.0,0.0,0.0,0.0,0.0,0.0,0.0,0.0,0.0,0.0,0.0,0.0,0.0,0.0,0.0,0.0,0.0,0.0,0.0,0.0,0.0,0.0,0.0,0.0,0.0,0.0,0.0,0.0,0.0,0.0,0.0,0.0,0.0,0.0,0.0,0.0,0.0,0.0,0.0,0.0,0.0,0.0,0.0,0.0,0.0,0.0,0.0,0.0,0.0,0.0,0.0,0.0,0.0,0.0,0.0,0.0,0.0,0.0,0.0,0.0,0.0,0.0,0.0,0.0,0.0,0.0,0.0,0.0,0.0,6.9394,7.5549,7.8893,7.6615,7.8592,7.9179,7.699,7.8288,7.5874,6.8092,0.0,0.0,0.0,0.0,0.0,0.0,0.0,0.0,0.0,0.0,0.0,0.0,0.0,0.0,0.0,0.0,0.0,0.0,0.0,0.0,0.0,0.0,0.0,0.0,0.0,0.0,0.0,0.0,0.0,0.0,0.0,0.0,0.0,0.0,0.0,0.0,0.0,0.0,0.0,0.0,0.0,0.0,0.0,0.0,0.0,0.0,0.0,0.0,0.0,0.0,0.0,0.0,0.0,0.0,0.0,0.0,0.0,0.0,0.0,0.0,0.0,0.0,0.0,0.0,0.0,0.0,0.0,0.0,0.0,0.0,0.0,0.0,0.0,0.0,0.0,0.0,0.0,0.0,0.0,0.0,0.0,0.0,0.0,0.0,0.0,0.0,0.0,0.0,0.0,0.0,0.0,0.0,0.0,0.0,0.0,0.0,0.0,0.0,0.0,0.0,0.0,0.0,6.5117,7.0418,7.395,7.3557,7.3608,7.3608,7.3468,7.3557,7.0709,0.0,0.0,0.0,0.0,0.0,0.0,0.0,0.0,0.0,0.0,0.0,0.0,0.0,0.0,0.0,0.0,0.0,0.0,0.0,0.0,0.0,0.0,0.0,0.0,0.0,0.0,0.0,0.0,0.0,0.0,0.0,0.0,0.0,0.0,0.0,0.0,0.0,0.0,0.0,0.0,0.0,0.0,0.0,0.0,0.0,0.0,0.0,0.0,0.0,0.0,0.0,0.0,0.0,0.0,0.0,0.0,0.0,0.0,0.0,0.0,0.0,0.0,0.0,0.0,0.0,0.0,0.0,0.0,0.0,0.0,0.0,0.0,0.0,0.0,0.0,0.0,0.0,0.0,0.0,0.0,0.0,0.0,0.0,0.0,0.0,0.0,0.0,0.0,0.0,0.0,0.0,0.0,0.0,0.0,0.0,0.0,0.0,0.0,0.0,0.0,0.0,0.0,0.0,6.3474,7.0764,7.478,7.1819,7.3407,7.3477,7.0679,7.1596,6.9151,6.1522,0.0,0.0,0.0,0.0,0.0,0.0,0.0,0.0,0.0,0.0,0.0,0.0,0.0,0.0,0.0,0.0,0.0,0.0,0.0,0.0,0.0,0.0,0.0,0.0,0.0,0.0,0.0,0.0,0.0,0.0,0.0,0.0,0.0,0.0,0.0,0.0,0.0,0.0,0.0,0.0,0.0,0.0,0.0,0.0,0.0,0.0,0.0,0.0,0.0,0.0,0.0,0.0,0.0,0.0,0.0,0.0,0.0,0.0,0.0,0.0,0.0,0.0,0.0,0.0,0.0,0.0,0.0,0.0,0.0,0.0,0.0,0.0,0.0,0.0,0.0,0.0,0.0,0.0,0.0,0.0,0.0,0.0,0.0,0.0,0.0,0.0,0.0,0.0,0.0,0.0,0.0,0.0,0.0,0.0,0.0,0.0,0.0,0.0,0.0,0.0,0.0,0.0,0.0,6.6562,7.0353,6.8273,6.9941,7.0206,6.7679,6.8468,6.6305,5.94,0.0,0.0,0.0,0.0,0.0,0.0,0.0,0.0,0.0,0.0,0.0,0.0,0.0,0.0,0.0,0.0,0.0,0.0,0.0,0.0,0.0,0.0,0.0,0.0,0.0,0.0,0.0,0.0,0.0,0.0,0.0,0.0,0.0,0.0,0.0,0.0,0.0,0.0,0.0,0.0,0.0,0.0,0.0,0.0,0.0,0.0,0.0,0.0,0.0,0.0,0.0,0.0,0.0,0.0,0.0,0.0,0.0,0.0,0.0,0.0,0.0,0.0,0.0,0.0,0.0,0.0,0.0,0.0,0.0,0.0,0.0,0.0,0.0,0.0,0.0,0.0,0.0,0.0,0.0,0.0,0.0,0.0,0.0,0.0,0.0,0.0,0.0,0.0,0.0,0.0,0.0,0.0,0.0,0.0,0.0,0.0,0.0,0.0,0.0,0.0,0.0,0.0,0.0,5.9503,6.2374,6.3787,6.4381,6.4652,6.4606,6.4606,6.2583,5.7777,5.6455,0.0,0.0,0.0,0.0,0.0,0.0,0.0,0.0,0.0,0.0,0.0,0.0,0.0,0.0,0.0,0.0,0.0,0.0,0.0,0.0,0.0,0.0,0.0,0.0,0.0,0.0,0.0,0.0,0.0,0.0,0.0,0.0,0.0,0.0,0.0,0.0,0.0,0.0,0.0,0.0,0.0,0.0,0.0,0.0,0.0,0.0,0.0,0.0,0.0,0.0,0.0,0.0,0.0,0.0,0.0,0.0,0.0,0.0,0.0,0.0,0.0,0.0,0.0,0.0,0.0,0.0,0.0,0.0,0.0,0.0,0.0,0.0,0.0,0.0,0.0,0.0,0.0,0.0,0.0,0.0,0.0,0.0,0.0,0.0,0.0,0.0,0.0,0.0,0.0,0.0,0.0,0.0,0.0,0.0,0.0,0.0,0.0,0.0,0.0,0.0,0.0,0.0,6.1102,6.4388,6.4019,6.4381,6.4372,6.3624,6.353,6.1504,5.6691,5.537,0.0,0.0,0.0,0.0,0.0,0.0,0.0,0.0,0.0,0.0,0.0,0.0,0.0,0.0,0.0,0.0,0.0,0.0,0.0,0.0,0.0,0.0,0.0,0.0,0.0,0.0,0.0,0.0,0.0,0.0,0.0,0.0,0.0,0.0,0.0,0.0,0.0,0.0,0.0,0.0,0.0,0.0,0.0,0.0,0.0,0.0,0.0,0.0,0.0,0.0,0.0,0.0,0.0,0.0,0.0,0.0,0.0,0.0,0.0,0.0,0.0,0.0,0.0,0.0,0.0,0.0,0.0,0.0,0.0,0.0,0.0,0.0,0.0,0.0,0.0,0.0,0.0,0.0,0.0,0.0,0.0,0.0,0.0,0.0,0.0,0.0,0.0,0.0,0.0,0.0,0.0,0.0,0.0,0.0,0.0,0.0,0.0,0.0,0.0,0.0,0.0,0.0,5.7109,6.1276,6.2445,6.2985,6.3016,6.2502,6.2455,6.0698,5.6498,5.4792,0.0,0.0,0.0,0.0,0.0,0.0,0.0,0.0,0.0,0.0,0.0,0.0,0.0,0.0,0.0,0.0,0.0,0.0,0.0,0.0,0.0,0.0,0.0,0.0,0.0,0.0,0.0,0.0,0.0,0.0,0.0,0.0,0.0,0.0,0.0,0.0,0.0,0.0,0.0,0.0,0.0,0.0,0.0,0.0,0.0,0.0,0.0,0.0,0.0,0.0,0.0,0.0,0.0,0.0,0.0,0.0,0.0,0.0,0.0,0.0,0.0,0.0,0.0,0.0,0.0,0.0,0.0,0.0,0.0,0.0,0.0,0.0,0.0,0.0,0.0,0.0,0.0,0.0,0.0,0.0,0.0,0.0,0.0,0.0,0.0,0.0,0.0,0.0,0.0,0.0,0.0,0.0,0.0,0.0,0.0,0.0,0.0,0.0,0.0,0.0,0.0,0.0,0.0,5.568,5.9223,6.03,6.0831,6.1176,6.1176,5.978,5.652,0.0,0.0,0.0,0.0,0.0,0.0,0.0,0.0,0.0,0.0,0.0,0.0,0.0,0.0,0.0,0.0,0.0,0.0,0.0,0.0,0.0,0.0,0.0,0.0,0.0,0.0,0.0,0.0,0.0,0.0,0.0,0.0,0.0,0.0,0.0,0.0,0.0,0.0,0.0,0.0,0.0,0.0,0.0,0.0,0.0,0.0,0.0,0.0,0.0,0.0,0.0,0.0,0.0,0.0,0.0,0.0,0.0,0.0,0.0,0.0,0.0,0.0,0.0,0.0,0.0,0.0,0.0,0.0,0.0,0.0,0.0,0.0,0.0,0.0,0.0,0.0,0.0,0.0,0.0,0.0,0.0,0.0,0.0,0.0,0.0,0.0,0.0,0.0,0.0,0.0,0.0,0.0,0.0,0.0,0.0,0.0,0.0,0.0,0.0,0.0,0.0,0.0,0.0,0.0,5.1193,5.3675,5.5566,5.7362,5.8997,5.9173,5.7989,5.5274,0.0,0.0,0.0,0.0,0.0,0.0,0.0,0.0,0.0,0.0,0.0,0.0,0.0,0.0]}]]]